<?xml version="1.0" encoding="UTF-8" ?>
<gpx version="1.1" xmlns:xsi="http://www.w3.org/2001/XMLSchema-instance" 
    xmlns="http://www.topografix.com/GPX/1/1" 
    xsi:schemaLocation="http://www.topografix.com/GPX/1/1 http://www.topografix.com/GPX/1/1/gpx.xsd" 
    creator="Openrunner - https://www.openrunner.com" >	<trk>
						<name>Chartres- Paris de nuit V2-19912442</name>
						<trkseg>
					<trkpt lat="48.444680" lon="1.483430">
						<ele>158</ele>
						<time>2024-09-16T11:22:50Z</time>
					</trkpt>
					<trkpt lat="48.444700" lon="1.483430">
						<ele>158</ele>
						<time>2024-09-16T11:22:50Z</time>
					</trkpt>
					<trkpt lat="48.444960" lon="1.483470">
						<ele>157</ele>
						<time>2024-09-16T11:22:55Z</time>
					</trkpt>
					<trkpt lat="48.445050" lon="1.483490">
						<ele>157</ele>
						<time>2024-09-16T11:22:57Z</time>
					</trkpt>
					<trkpt lat="48.445240" lon="1.483520">
						<ele>157</ele>
						<time>2024-09-16T11:23:00Z</time>
					</trkpt>
					<trkpt lat="48.446160" lon="1.483710">
						<ele>154</ele>
						<time>2024-09-16T11:23:17Z</time>
					</trkpt>
					<trkpt lat="48.446570" lon="1.483790">
						<ele>151</ele>
						<time>2024-09-16T11:23:24Z</time>
					</trkpt>
					<trkpt lat="48.446620" lon="1.483790">
						<ele>151</ele>
						<time>2024-09-16T11:23:25Z</time>
					</trkpt>
					<trkpt lat="48.446700" lon="1.483740">
						<ele>150</ele>
						<time>2024-09-16T11:23:26Z</time>
					</trkpt>
					<trkpt lat="48.446860" lon="1.483490">
						<ele>151</ele>
						<time>2024-09-16T11:23:30Z</time>
					</trkpt>
					<trkpt lat="48.446990" lon="1.483260">
						<ele>151</ele>
						<time>2024-09-16T11:23:34Z</time>
					</trkpt>
					<trkpt lat="48.447720" lon="1.482060">
						<ele>148</ele>
						<time>2024-09-16T11:23:53Z</time>
					</trkpt>
					<trkpt lat="48.447740" lon="1.482020">
						<ele>147</ele>
						<time>2024-09-16T11:23:54Z</time>
					</trkpt>
					<trkpt lat="48.447870" lon="1.481800">
						<ele>146</ele>
						<time>2024-09-16T11:23:57Z</time>
					</trkpt>
					<trkpt lat="48.448060" lon="1.482040">
						<ele>146</ele>
						<time>2024-09-16T11:24:02Z</time>
					</trkpt>
					<trkpt lat="48.448080" lon="1.482080">
						<ele>146</ele>
						<time>2024-09-16T11:24:02Z</time>
					</trkpt>
					<trkpt lat="48.448490" lon="1.482710">
						<ele>144</ele>
						<time>2024-09-16T11:24:13Z</time>
					</trkpt>
					<trkpt lat="48.448740" lon="1.483080">
						<ele>143</ele>
						<time>2024-09-16T11:24:19Z</time>
					</trkpt>
					<trkpt lat="48.448820" lon="1.483160">
						<ele>143</ele>
						<time>2024-09-16T11:24:21Z</time>
					</trkpt>
					<trkpt lat="48.448870" lon="1.483250">
						<ele>143</ele>
						<time>2024-09-16T11:24:22Z</time>
					</trkpt>
					<trkpt lat="48.449020" lon="1.483370">
						<ele>143</ele>
						<time>2024-09-16T11:24:25Z</time>
					</trkpt>
					<trkpt lat="48.449150" lon="1.483410">
						<ele>143</ele>
						<time>2024-09-16T11:24:27Z</time>
					</trkpt>
					<trkpt lat="48.449370" lon="1.483540">
						<ele>143</ele>
						<time>2024-09-16T11:24:32Z</time>
					</trkpt>
					<trkpt lat="48.449630" lon="1.483740">
						<ele>143</ele>
						<time>2024-09-16T11:24:37Z</time>
					</trkpt>
					<trkpt lat="48.449750" lon="1.483870">
						<ele>143</ele>
						<time>2024-09-16T11:24:39Z</time>
					</trkpt>
					<trkpt lat="48.450240" lon="1.484530">
						<ele>143</ele>
						<time>2024-09-16T11:24:51Z</time>
					</trkpt>
					<trkpt lat="48.451600" lon="1.486320">
						<ele>139</ele>
						<time>2024-09-16T11:25:23Z</time>
					</trkpt>
					<trkpt lat="48.451680" lon="1.486440">
						<ele>138</ele>
						<time>2024-09-16T11:25:25Z</time>
					</trkpt>
					<trkpt lat="48.451800" lon="1.486590">
						<ele>138</ele>
						<time>2024-09-16T11:25:28Z</time>
					</trkpt>
					<trkpt lat="48.452190" lon="1.487130">
						<ele>135</ele>
						<time>2024-09-16T11:25:37Z</time>
					</trkpt>
					<trkpt lat="48.452520" lon="1.487590">
						<ele>132</ele>
						<time>2024-09-16T11:25:45Z</time>
					</trkpt>
					<trkpt lat="48.452710" lon="1.487850">
						<ele>131</ele>
						<time>2024-09-16T11:25:50Z</time>
					</trkpt>
					<trkpt lat="48.452760" lon="1.487920">
						<ele>131</ele>
						<time>2024-09-16T11:25:51Z</time>
					</trkpt>
					<trkpt lat="48.452780" lon="1.488030">
						<ele>131</ele>
						<time>2024-09-16T11:25:53Z</time>
					</trkpt>
					<trkpt lat="48.452850" lon="1.488380">
						<ele>130</ele>
						<time>2024-09-16T11:25:57Z</time>
					</trkpt>
					<trkpt lat="48.452860" lon="1.488410">
						<ele>130</ele>
						<time>2024-09-16T11:25:57Z</time>
					</trkpt>
					<trkpt lat="48.452880" lon="1.488510">
						<ele>130</ele>
						<time>2024-09-16T11:25:59Z</time>
					</trkpt>
					<trkpt lat="48.452880" lon="1.488550">
						<ele>130</ele>
						<time>2024-09-16T11:25:59Z</time>
					</trkpt>
					<trkpt lat="48.452890" lon="1.488600">
						<ele>129</ele>
						<time>2024-09-16T11:26:00Z</time>
					</trkpt>
					<trkpt lat="48.453060" lon="1.488550">
						<ele>129</ele>
						<time>2024-09-16T11:26:03Z</time>
					</trkpt>
					<trkpt lat="48.453170" lon="1.488570">
						<ele>129</ele>
						<time>2024-09-16T11:26:05Z</time>
					</trkpt>
					<trkpt lat="48.453200" lon="1.488590">
						<ele>129</ele>
						<time>2024-09-16T11:26:05Z</time>
					</trkpt>
					<trkpt lat="48.453230" lon="1.488520">
						<ele>129</ele>
						<time>2024-09-16T11:26:06Z</time>
					</trkpt>
					<trkpt lat="48.453220" lon="1.488450">
						<ele>129</ele>
						<time>2024-09-16T11:26:07Z</time>
					</trkpt>
					<trkpt lat="48.453440" lon="1.488320">
						<ele>129</ele>
						<time>2024-09-16T11:26:11Z</time>
					</trkpt>
					<trkpt lat="48.453800" lon="1.488100">
						<ele>130</ele>
						<time>2024-09-16T11:26:18Z</time>
					</trkpt>
					<trkpt lat="48.453920" lon="1.488000">
						<ele>130</ele>
						<time>2024-09-16T11:26:21Z</time>
					</trkpt>
					<trkpt lat="48.454210" lon="1.487710">
						<ele>131</ele>
						<time>2024-09-16T11:26:27Z</time>
					</trkpt>
					<trkpt lat="48.454290" lon="1.487650">
						<ele>132</ele>
						<time>2024-09-16T11:26:28Z</time>
					</trkpt>
					<trkpt lat="48.454720" lon="1.487530">
						<ele>134</ele>
						<time>2024-09-16T11:26:36Z</time>
					</trkpt>
					<trkpt lat="48.455690" lon="1.487250">
						<ele>135</ele>
						<time>2024-09-16T11:26:54Z</time>
					</trkpt>
					<trkpt lat="48.455860" lon="1.487140">
						<ele>135</ele>
						<time>2024-09-16T11:26:57Z</time>
					</trkpt>
					<trkpt lat="48.455940" lon="1.487040">
						<ele>135</ele>
						<time>2024-09-16T11:26:59Z</time>
					</trkpt>
					<trkpt lat="48.456400" lon="1.486400">
						<ele>133</ele>
						<time>2024-09-16T11:27:10Z</time>
					</trkpt>
					<trkpt lat="48.456670" lon="1.486050">
						<ele>132</ele>
						<time>2024-09-16T11:27:16Z</time>
					</trkpt>
					<trkpt lat="48.456830" lon="1.485920">
						<ele>132</ele>
						<time>2024-09-16T11:27:20Z</time>
					</trkpt>
					<trkpt lat="48.457010" lon="1.485800">
						<ele>132</ele>
						<time>2024-09-16T11:27:23Z</time>
					</trkpt>
					<trkpt lat="48.457700" lon="1.485410">
						<ele>131</ele>
						<time>2024-09-16T11:27:36Z</time>
					</trkpt>
					<trkpt lat="48.459310" lon="1.484250">
						<ele>128</ele>
						<time>2024-09-16T11:28:08Z</time>
					</trkpt>
					<trkpt lat="48.459500" lon="1.484080">
						<ele>128</ele>
						<time>2024-09-16T11:28:12Z</time>
					</trkpt>
					<trkpt lat="48.459970" lon="1.483610">
						<ele>126</ele>
						<time>2024-09-16T11:28:22Z</time>
					</trkpt>
					<trkpt lat="48.460570" lon="1.483010">
						<ele>125</ele>
						<time>2024-09-16T11:28:35Z</time>
					</trkpt>
					<trkpt lat="48.461020" lon="1.482650">
						<ele>125</ele>
						<time>2024-09-16T11:28:44Z</time>
					</trkpt>
					<trkpt lat="48.461300" lon="1.482430">
						<ele>125</ele>
						<time>2024-09-16T11:28:49Z</time>
					</trkpt>
					<trkpt lat="48.461450" lon="1.482350">
						<ele>125</ele>
						<time>2024-09-16T11:28:52Z</time>
					</trkpt>
					<trkpt lat="48.462240" lon="1.482000">
						<ele>125</ele>
						<time>2024-09-16T11:29:07Z</time>
					</trkpt>
					<trkpt lat="48.462470" lon="1.481890">
						<ele>124</ele>
						<time>2024-09-16T11:29:11Z</time>
					</trkpt>
					<trkpt lat="48.463050" lon="1.481710">
						<ele>123</ele>
						<time>2024-09-16T11:29:22Z</time>
					</trkpt>
					<trkpt lat="48.463240" lon="1.481630">
						<ele>123</ele>
						<time>2024-09-16T11:29:25Z</time>
					</trkpt>
					<trkpt lat="48.463830" lon="1.481340">
						<ele>123</ele>
						<time>2024-09-16T11:29:36Z</time>
					</trkpt>
					<trkpt lat="48.463990" lon="1.481230">
						<ele>123</ele>
						<time>2024-09-16T11:29:39Z</time>
					</trkpt>
					<trkpt lat="48.464220" lon="1.481070">
						<ele>122</ele>
						<time>2024-09-16T11:29:44Z</time>
					</trkpt>
					<trkpt lat="48.464350" lon="1.480990">
						<ele>122</ele>
						<time>2024-09-16T11:29:46Z</time>
					</trkpt>
					<trkpt lat="48.464530" lon="1.480850">
						<ele>122</ele>
						<time>2024-09-16T11:29:50Z</time>
					</trkpt>
					<trkpt lat="48.464980" lon="1.480550">
						<ele>121</ele>
						<time>2024-09-16T11:29:59Z</time>
					</trkpt>
					<trkpt lat="48.465200" lon="1.480400">
						<ele>122</ele>
						<time>2024-09-16T11:30:03Z</time>
					</trkpt>
					<trkpt lat="48.465650" lon="1.480140">
						<ele>124</ele>
						<time>2024-09-16T11:30:12Z</time>
					</trkpt>
					<trkpt lat="48.466050" lon="1.479990">
						<ele>124</ele>
						<time>2024-09-16T11:30:19Z</time>
					</trkpt>
					<trkpt lat="48.466280" lon="1.479920">
						<ele>124</ele>
						<time>2024-09-16T11:30:23Z</time>
					</trkpt>
					<trkpt lat="48.466850" lon="1.479860">
						<ele>123</ele>
						<time>2024-09-16T11:30:33Z</time>
					</trkpt>
					<trkpt lat="48.467200" lon="1.479810">
						<ele>124</ele>
						<time>2024-09-16T11:30:40Z</time>
					</trkpt>
					<trkpt lat="48.467420" lon="1.479820">
						<ele>124</ele>
						<time>2024-09-16T11:30:43Z</time>
					</trkpt>
					<trkpt lat="48.467640" lon="1.479860">
						<ele>125</ele>
						<time>2024-09-16T11:30:47Z</time>
					</trkpt>
					<trkpt lat="48.468710" lon="1.480280">
						<ele>125</ele>
						<time>2024-09-16T11:31:07Z</time>
					</trkpt>
					<trkpt lat="48.468750" lon="1.480290">
						<ele>125</ele>
						<time>2024-09-16T11:31:08Z</time>
					</trkpt>
					<trkpt lat="48.469110" lon="1.480420">
						<ele>124</ele>
						<time>2024-09-16T11:31:14Z</time>
					</trkpt>
					<trkpt lat="48.469140" lon="1.480430">
						<ele>124</ele>
						<time>2024-09-16T11:31:15Z</time>
					</trkpt>
					<trkpt lat="48.469400" lon="1.480550">
						<ele>124</ele>
						<time>2024-09-16T11:31:20Z</time>
					</trkpt>
					<trkpt lat="48.469870" lon="1.480890">
						<ele>125</ele>
						<time>2024-09-16T11:31:29Z</time>
					</trkpt>
					<trkpt lat="48.470020" lon="1.480950">
						<ele>125</ele>
						<time>2024-09-16T11:31:32Z</time>
					</trkpt>
					<trkpt lat="48.469980" lon="1.481120">
						<ele>125</ele>
						<time>2024-09-16T11:31:34Z</time>
					</trkpt>
					<trkpt lat="48.470020" lon="1.481310">
						<ele>126</ele>
						<time>2024-09-16T11:31:36Z</time>
					</trkpt>
					<trkpt lat="48.470270" lon="1.481980">
						<ele>127</ele>
						<time>2024-09-16T11:31:45Z</time>
					</trkpt>
					<trkpt lat="48.470480" lon="1.482470">
						<ele>127</ele>
						<time>2024-09-16T11:31:52Z</time>
					</trkpt>
					<trkpt lat="48.470670" lon="1.482800">
						<ele>127</ele>
						<time>2024-09-16T11:31:57Z</time>
					</trkpt>
					<trkpt lat="48.470840" lon="1.483030">
						<ele>127</ele>
						<time>2024-09-16T11:32:01Z</time>
					</trkpt>
					<trkpt lat="48.470940" lon="1.483210">
						<ele>128</ele>
						<time>2024-09-16T11:32:04Z</time>
					</trkpt>
					<trkpt lat="48.471020" lon="1.483390">
						<ele>128</ele>
						<time>2024-09-16T11:32:07Z</time>
					</trkpt>
					<trkpt lat="48.471190" lon="1.483840">
						<ele>128</ele>
						<time>2024-09-16T11:32:13Z</time>
					</trkpt>
					<trkpt lat="48.471430" lon="1.484270">
						<ele>128</ele>
						<time>2024-09-16T11:32:20Z</time>
					</trkpt>
					<trkpt lat="48.471980" lon="1.485050">
						<ele>129</ele>
						<time>2024-09-16T11:32:33Z</time>
					</trkpt>
					<trkpt lat="48.472110" lon="1.485260">
						<ele>129</ele>
						<time>2024-09-16T11:32:36Z</time>
					</trkpt>
					<trkpt lat="48.472290" lon="1.485550">
						<ele>128</ele>
						<time>2024-09-16T11:32:41Z</time>
					</trkpt>
					<trkpt lat="48.472520" lon="1.486050">
						<ele>127</ele>
						<time>2024-09-16T11:32:48Z</time>
					</trkpt>
					<trkpt lat="48.472630" lon="1.486400">
						<ele>127</ele>
						<time>2024-09-16T11:32:53Z</time>
					</trkpt>
					<trkpt lat="48.472730" lon="1.486920">
						<ele>127</ele>
						<time>2024-09-16T11:32:59Z</time>
					</trkpt>
					<trkpt lat="48.472830" lon="1.487250">
						<ele>126</ele>
						<time>2024-09-16T11:33:03Z</time>
					</trkpt>
					<trkpt lat="48.473410" lon="1.488630">
						<ele>125</ele>
						<time>2024-09-16T11:33:23Z</time>
					</trkpt>
					<trkpt lat="48.473650" lon="1.489380">
						<ele>126</ele>
						<time>2024-09-16T11:33:33Z</time>
					</trkpt>
					<trkpt lat="48.474230" lon="1.491380">
						<ele>122</ele>
						<time>2024-09-16T11:33:58Z</time>
					</trkpt>
					<trkpt lat="48.474280" lon="1.491520">
						<ele>122</ele>
						<time>2024-09-16T11:34:00Z</time>
					</trkpt>
					<trkpt lat="48.474430" lon="1.492150">
						<ele>123</ele>
						<time>2024-09-16T11:34:08Z</time>
					</trkpt>
					<trkpt lat="48.474710" lon="1.493350">
						<ele>122</ele>
						<time>2024-09-16T11:34:23Z</time>
					</trkpt>
					<trkpt lat="48.474820" lon="1.493530">
						<ele>123</ele>
						<time>2024-09-16T11:34:26Z</time>
					</trkpt>
					<trkpt lat="48.474860" lon="1.493570">
						<ele>123</ele>
						<time>2024-09-16T11:34:27Z</time>
					</trkpt>
					<trkpt lat="48.474960" lon="1.493660">
						<ele>124</ele>
						<time>2024-09-16T11:34:29Z</time>
					</trkpt>
					<trkpt lat="48.475140" lon="1.493740">
						<ele>125</ele>
						<time>2024-09-16T11:34:32Z</time>
					</trkpt>
					<trkpt lat="48.475710" lon="1.493780">
						<ele>127</ele>
						<time>2024-09-16T11:34:42Z</time>
					</trkpt>
					<trkpt lat="48.476140" lon="1.493950">
						<ele>127</ele>
						<time>2024-09-16T11:34:50Z</time>
					</trkpt>
					<trkpt lat="48.476510" lon="1.494100">
						<ele>126</ele>
						<time>2024-09-16T11:34:57Z</time>
					</trkpt>
					<trkpt lat="48.476960" lon="1.494280">
						<ele>126</ele>
						<time>2024-09-16T11:35:05Z</time>
					</trkpt>
					<trkpt lat="48.477330" lon="1.494430">
						<ele>126</ele>
						<time>2024-09-16T11:35:12Z</time>
					</trkpt>
					<trkpt lat="48.477750" lon="1.494610">
						<ele>127</ele>
						<time>2024-09-16T11:35:20Z</time>
					</trkpt>
					<trkpt lat="48.477880" lon="1.494690">
						<ele>127</ele>
						<time>2024-09-16T11:35:23Z</time>
					</trkpt>
					<trkpt lat="48.478000" lon="1.494760">
						<ele>127</ele>
						<time>2024-09-16T11:35:25Z</time>
					</trkpt>
					<trkpt lat="48.478450" lon="1.495160">
						<ele>126</ele>
						<time>2024-09-16T11:35:34Z</time>
					</trkpt>
					<trkpt lat="48.478950" lon="1.495800">
						<ele>123</ele>
						<time>2024-09-16T11:35:46Z</time>
					</trkpt>
					<trkpt lat="48.479380" lon="1.496670">
						<ele>123</ele>
						<time>2024-09-16T11:35:59Z</time>
					</trkpt>
					<trkpt lat="48.479600" lon="1.497070">
						<ele>122</ele>
						<time>2024-09-16T11:36:05Z</time>
					</trkpt>
					<trkpt lat="48.480730" lon="1.499000">
						<ele>122</ele>
						<time>2024-09-16T11:36:35Z</time>
					</trkpt>
					<trkpt lat="48.481000" lon="1.499460">
						<ele>121</ele>
						<time>2024-09-16T11:36:42Z</time>
					</trkpt>
					<trkpt lat="48.481370" lon="1.500160">
						<ele>120</ele>
						<time>2024-09-16T11:36:53Z</time>
					</trkpt>
					<trkpt lat="48.481630" lon="1.500260">
						<ele>120</ele>
						<time>2024-09-16T11:36:58Z</time>
					</trkpt>
					<trkpt lat="48.482530" lon="1.500760">
						<ele>119</ele>
						<time>2024-09-16T11:37:15Z</time>
					</trkpt>
					<trkpt lat="48.482740" lon="1.500890">
						<ele>119</ele>
						<time>2024-09-16T11:37:19Z</time>
					</trkpt>
					<trkpt lat="48.483580" lon="1.501410">
						<ele>119</ele>
						<time>2024-09-16T11:37:35Z</time>
					</trkpt>
					<trkpt lat="48.484060" lon="1.501890">
						<ele>120</ele>
						<time>2024-09-16T11:37:45Z</time>
					</trkpt>
					<trkpt lat="48.484620" lon="1.502550">
						<ele>121</ele>
						<time>2024-09-16T11:37:58Z</time>
					</trkpt>
					<trkpt lat="48.485700" lon="1.503840">
						<ele>122</ele>
						<time>2024-09-16T11:38:22Z</time>
					</trkpt>
					<trkpt lat="48.486220" lon="1.504530">
						<ele>122</ele>
						<time>2024-09-16T11:38:35Z</time>
					</trkpt>
					<trkpt lat="48.487610" lon="1.506380">
						<ele>121</ele>
						<time>2024-09-16T11:39:08Z</time>
					</trkpt>
					<trkpt lat="48.488190" lon="1.507100">
						<ele>122</ele>
						<time>2024-09-16T11:39:21Z</time>
					</trkpt>
					<trkpt lat="48.488350" lon="1.507370">
						<ele>122</ele>
						<time>2024-09-16T11:39:25Z</time>
					</trkpt>
					<trkpt lat="48.488490" lon="1.507750">
						<ele>122</ele>
						<time>2024-09-16T11:39:30Z</time>
					</trkpt>
					<trkpt lat="48.488580" lon="1.508120">
						<ele>122</ele>
						<time>2024-09-16T11:39:35Z</time>
					</trkpt>
					<trkpt lat="48.488590" lon="1.508390">
						<ele>121</ele>
						<time>2024-09-16T11:39:38Z</time>
					</trkpt>
					<trkpt lat="48.488580" lon="1.508750">
						<ele>122</ele>
						<time>2024-09-16T11:39:42Z</time>
					</trkpt>
					<trkpt lat="48.488520" lon="1.509110">
						<ele>122</ele>
						<time>2024-09-16T11:39:47Z</time>
					</trkpt>
					<trkpt lat="48.488440" lon="1.509430">
						<ele>121</ele>
						<time>2024-09-16T11:39:51Z</time>
					</trkpt>
					<trkpt lat="48.488350" lon="1.509690">
						<ele>121</ele>
						<time>2024-09-16T11:39:54Z</time>
					</trkpt>
					<trkpt lat="48.488200" lon="1.510020">
						<ele>122</ele>
						<time>2024-09-16T11:39:59Z</time>
					</trkpt>
					<trkpt lat="48.487940" lon="1.510500">
						<ele>121</ele>
						<time>2024-09-16T11:40:06Z</time>
					</trkpt>
					<trkpt lat="48.487820" lon="1.510820">
						<ele>120</ele>
						<time>2024-09-16T11:40:11Z</time>
					</trkpt>
					<trkpt lat="48.487760" lon="1.511040">
						<ele>120</ele>
						<time>2024-09-16T11:40:13Z</time>
					</trkpt>
					<trkpt lat="48.487690" lon="1.511610">
						<ele>119</ele>
						<time>2024-09-16T11:40:20Z</time>
					</trkpt>
					<trkpt lat="48.487600" lon="1.513180">
						<ele>120</ele>
						<time>2024-09-16T11:40:39Z</time>
					</trkpt>
					<trkpt lat="48.487580" lon="1.513630">
						<ele>120</ele>
						<time>2024-09-16T11:40:44Z</time>
					</trkpt>
					<trkpt lat="48.487600" lon="1.513850">
						<ele>121</ele>
						<time>2024-09-16T11:40:47Z</time>
					</trkpt>
					<trkpt lat="48.487630" lon="1.514040">
						<ele>121</ele>
						<time>2024-09-16T11:40:49Z</time>
					</trkpt>
					<trkpt lat="48.487850" lon="1.514690">
						<ele>122</ele>
						<time>2024-09-16T11:40:58Z</time>
					</trkpt>
					<trkpt lat="48.488140" lon="1.515500">
						<ele>123</ele>
						<time>2024-09-16T11:41:09Z</time>
					</trkpt>
					<trkpt lat="48.488210" lon="1.515750">
						<ele>124</ele>
						<time>2024-09-16T11:41:12Z</time>
					</trkpt>
					<trkpt lat="48.488260" lon="1.515950">
						<ele>124</ele>
						<time>2024-09-16T11:41:14Z</time>
					</trkpt>
					<trkpt lat="48.488260" lon="1.516140">
						<ele>125</ele>
						<time>2024-09-16T11:41:17Z</time>
					</trkpt>
					<trkpt lat="48.488250" lon="1.516320">
						<ele>125</ele>
						<time>2024-09-16T11:41:19Z</time>
					</trkpt>
					<trkpt lat="48.488180" lon="1.516640">
						<ele>126</ele>
						<time>2024-09-16T11:41:23Z</time>
					</trkpt>
					<trkpt lat="48.488050" lon="1.517490">
						<ele>129</ele>
						<time>2024-09-16T11:41:33Z</time>
					</trkpt>
					<trkpt lat="48.488000" lon="1.517780">
						<ele>128</ele>
						<time>2024-09-16T11:41:36Z</time>
					</trkpt>
					<trkpt lat="48.487920" lon="1.518020">
						<ele>128</ele>
						<time>2024-09-16T11:41:40Z</time>
					</trkpt>
					<trkpt lat="48.487550" lon="1.518900">
						<ele>122</ele>
						<time>2024-09-16T11:41:52Z</time>
					</trkpt>
					<trkpt lat="48.487390" lon="1.519320">
						<ele>122</ele>
						<time>2024-09-16T11:41:58Z</time>
					</trkpt>
					<trkpt lat="48.487190" lon="1.520210">
						<ele>124</ele>
						<time>2024-09-16T11:42:09Z</time>
					</trkpt>
					<trkpt lat="48.487160" lon="1.520470">
						<ele>125</ele>
						<time>2024-09-16T11:42:12Z</time>
					</trkpt>
					<trkpt lat="48.487070" lon="1.521190">
						<ele>127</ele>
						<time>2024-09-16T11:42:21Z</time>
					</trkpt>
					<trkpt lat="48.486980" lon="1.521660">
						<ele>127</ele>
						<time>2024-09-16T11:42:26Z</time>
					</trkpt>
					<trkpt lat="48.486880" lon="1.522020">
						<ele>126</ele>
						<time>2024-09-16T11:42:31Z</time>
					</trkpt>
					<trkpt lat="48.486700" lon="1.522420">
						<ele>123</ele>
						<time>2024-09-16T11:42:37Z</time>
					</trkpt>
					<trkpt lat="48.486550" lon="1.522830">
						<ele>122</ele>
						<time>2024-09-16T11:42:42Z</time>
					</trkpt>
					<trkpt lat="48.486470" lon="1.523240">
						<ele>122</ele>
						<time>2024-09-16T11:42:47Z</time>
					</trkpt>
					<trkpt lat="48.486460" lon="1.523560">
						<ele>123</ele>
						<time>2024-09-16T11:42:51Z</time>
					</trkpt>
					<trkpt lat="48.486490" lon="1.523880">
						<ele>124</ele>
						<time>2024-09-16T11:42:55Z</time>
					</trkpt>
					<trkpt lat="48.486580" lon="1.524310">
						<ele>125</ele>
						<time>2024-09-16T11:43:00Z</time>
					</trkpt>
					<trkpt lat="48.486660" lon="1.524670">
						<ele>123</ele>
						<time>2024-09-16T11:43:05Z</time>
					</trkpt>
					<trkpt lat="48.487060" lon="1.525960">
						<ele>124</ele>
						<time>2024-09-16T11:43:21Z</time>
					</trkpt>
					<trkpt lat="48.487090" lon="1.526190">
						<ele>124</ele>
						<time>2024-09-16T11:43:24Z</time>
					</trkpt>
					<trkpt lat="48.487010" lon="1.526200">
						<ele>123</ele>
						<time>2024-09-16T11:43:26Z</time>
					</trkpt>
					<trkpt lat="48.486970" lon="1.526270">
						<ele>123</ele>
						<time>2024-09-16T11:43:27Z</time>
					</trkpt>
					<trkpt lat="48.486960" lon="1.526360">
						<ele>122</ele>
						<time>2024-09-16T11:43:28Z</time>
					</trkpt>
					<trkpt lat="48.487010" lon="1.526450">
						<ele>123</ele>
						<time>2024-09-16T11:43:29Z</time>
					</trkpt>
					<trkpt lat="48.487080" lon="1.526470">
						<ele>123</ele>
						<time>2024-09-16T11:43:30Z</time>
					</trkpt>
					<trkpt lat="48.487130" lon="1.526440">
						<ele>124</ele>
						<time>2024-09-16T11:43:31Z</time>
					</trkpt>
					<trkpt lat="48.487190" lon="1.526500">
						<ele>124</ele>
						<time>2024-09-16T11:43:33Z</time>
					</trkpt>
					<trkpt lat="48.487500" lon="1.527180">
						<ele>123</ele>
						<time>2024-09-16T11:43:42Z</time>
					</trkpt>
					<trkpt lat="48.487710" lon="1.527600">
						<ele>124</ele>
						<time>2024-09-16T11:43:49Z</time>
					</trkpt>
					<trkpt lat="48.487860" lon="1.527830">
						<ele>124</ele>
						<time>2024-09-16T11:43:52Z</time>
					</trkpt>
					<trkpt lat="48.487950" lon="1.527970">
						<ele>124</ele>
						<time>2024-09-16T11:43:55Z</time>
					</trkpt>
					<trkpt lat="48.488420" lon="1.528530">
						<ele>124</ele>
						<time>2024-09-16T11:44:05Z</time>
					</trkpt>
					<trkpt lat="48.488650" lon="1.528790">
						<ele>124</ele>
						<time>2024-09-16T11:44:10Z</time>
					</trkpt>
					<trkpt lat="48.488760" lon="1.528880">
						<ele>123</ele>
						<time>2024-09-16T11:44:13Z</time>
					</trkpt>
					<trkpt lat="48.488950" lon="1.528990">
						<ele>123</ele>
						<time>2024-09-16T11:44:16Z</time>
					</trkpt>
					<trkpt lat="48.490780" lon="1.529810">
						<ele>123</ele>
						<time>2024-09-16T11:44:50Z</time>
					</trkpt>
					<trkpt lat="48.490980" lon="1.529900">
						<ele>122</ele>
						<time>2024-09-16T11:44:54Z</time>
					</trkpt>
					<trkpt lat="48.491250" lon="1.530010">
						<ele>122</ele>
						<time>2024-09-16T11:44:59Z</time>
					</trkpt>
					<trkpt lat="48.491720" lon="1.530150">
						<ele>123</ele>
						<time>2024-09-16T11:45:07Z</time>
					</trkpt>
					<trkpt lat="48.492380" lon="1.530400">
						<ele>123</ele>
						<time>2024-09-16T11:45:20Z</time>
					</trkpt>
					<trkpt lat="48.493430" lon="1.530860">
						<ele>121</ele>
						<time>2024-09-16T11:45:39Z</time>
					</trkpt>
					<trkpt lat="48.493650" lon="1.531010">
						<ele>121</ele>
						<time>2024-09-16T11:45:43Z</time>
					</trkpt>
					<trkpt lat="48.493730" lon="1.531060">
						<ele>121</ele>
						<time>2024-09-16T11:45:45Z</time>
					</trkpt>
					<trkpt lat="48.494090" lon="1.531280">
						<ele>121</ele>
						<time>2024-09-16T11:45:52Z</time>
					</trkpt>
					<trkpt lat="48.494560" lon="1.531560">
						<ele>119</ele>
						<time>2024-09-16T11:46:01Z</time>
					</trkpt>
					<trkpt lat="48.495010" lon="1.531770">
						<ele>118</ele>
						<time>2024-09-16T11:46:09Z</time>
					</trkpt>
					<trkpt lat="48.495290" lon="1.531930">
						<ele>118</ele>
						<time>2024-09-16T11:46:14Z</time>
					</trkpt>
					<trkpt lat="48.496130" lon="1.532290">
						<ele>119</ele>
						<time>2024-09-16T11:46:30Z</time>
					</trkpt>
					<trkpt lat="48.496570" lon="1.532700">
						<ele>118</ele>
						<time>2024-09-16T11:46:39Z</time>
					</trkpt>
					<trkpt lat="48.497210" lon="1.533590">
						<ele>118</ele>
						<time>2024-09-16T11:46:55Z</time>
					</trkpt>
					<trkpt lat="48.497290" lon="1.533670">
						<ele>118</ele>
						<time>2024-09-16T11:46:56Z</time>
					</trkpt>
					<trkpt lat="48.497440" lon="1.533830">
						<ele>118</ele>
						<time>2024-09-16T11:47:00Z</time>
					</trkpt>
					<trkpt lat="48.497750" lon="1.534040">
						<ele>118</ele>
						<time>2024-09-16T11:47:06Z</time>
					</trkpt>
					<trkpt lat="48.497980" lon="1.534130">
						<ele>117</ele>
						<time>2024-09-16T11:47:10Z</time>
					</trkpt>
					<trkpt lat="48.498580" lon="1.534180">
						<ele>117</ele>
						<time>2024-09-16T11:47:21Z</time>
					</trkpt>
					<trkpt lat="48.498900" lon="1.534240">
						<ele>117</ele>
						<time>2024-09-16T11:47:26Z</time>
					</trkpt>
					<trkpt lat="48.499250" lon="1.534440">
						<ele>118</ele>
						<time>2024-09-16T11:47:33Z</time>
					</trkpt>
					<trkpt lat="48.499420" lon="1.534580">
						<ele>118</ele>
						<time>2024-09-16T11:47:36Z</time>
					</trkpt>
					<trkpt lat="48.499890" lon="1.534980">
						<ele>117</ele>
						<time>2024-09-16T11:47:46Z</time>
					</trkpt>
					<trkpt lat="48.500380" lon="1.535600">
						<ele>117</ele>
						<time>2024-09-16T11:47:57Z</time>
					</trkpt>
					<trkpt lat="48.501270" lon="1.536650">
						<ele>115</ele>
						<time>2024-09-16T11:48:18Z</time>
					</trkpt>
					<trkpt lat="48.501690" lon="1.537050">
						<ele>115</ele>
						<time>2024-09-16T11:48:26Z</time>
					</trkpt>
					<trkpt lat="48.502190" lon="1.537400">
						<ele>116</ele>
						<time>2024-09-16T11:48:36Z</time>
					</trkpt>
					<trkpt lat="48.502400" lon="1.537550">
						<ele>117</ele>
						<time>2024-09-16T11:48:40Z</time>
					</trkpt>
					<trkpt lat="48.502510" lon="1.537640">
						<ele>117</ele>
						<time>2024-09-16T11:48:43Z</time>
					</trkpt>
					<trkpt lat="48.503950" lon="1.538530">
						<ele>114</ele>
						<time>2024-09-16T11:49:10Z</time>
					</trkpt>
					<trkpt lat="48.504750" lon="1.539120">
						<ele>113</ele>
						<time>2024-09-16T11:49:26Z</time>
					</trkpt>
					<trkpt lat="48.505350" lon="1.539550">
						<ele>113</ele>
						<time>2024-09-16T11:49:38Z</time>
					</trkpt>
					<trkpt lat="48.505660" lon="1.539790">
						<ele>114</ele>
						<time>2024-09-16T11:49:44Z</time>
					</trkpt>
					<trkpt lat="48.506070" lon="1.540200">
						<ele>114</ele>
						<time>2024-09-16T11:49:53Z</time>
					</trkpt>
					<trkpt lat="48.506700" lon="1.540850">
						<ele>113</ele>
						<time>2024-09-16T11:50:06Z</time>
					</trkpt>
					<trkpt lat="48.507190" lon="1.541390">
						<ele>113</ele>
						<time>2024-09-16T11:50:17Z</time>
					</trkpt>
					<trkpt lat="48.507460" lon="1.541730">
						<ele>113</ele>
						<time>2024-09-16T11:50:23Z</time>
					</trkpt>
					<trkpt lat="48.507730" lon="1.542120">
						<ele>113</ele>
						<time>2024-09-16T11:50:30Z</time>
					</trkpt>
					<trkpt lat="48.508010" lon="1.542530">
						<ele>113</ele>
						<time>2024-09-16T11:50:37Z</time>
					</trkpt>
					<trkpt lat="48.508670" lon="1.543350">
						<ele>114</ele>
						<time>2024-09-16T11:50:52Z</time>
					</trkpt>
					<trkpt lat="48.508880" lon="1.543660">
						<ele>114</ele>
						<time>2024-09-16T11:50:57Z</time>
					</trkpt>
					<trkpt lat="48.508980" lon="1.543840">
						<ele>114</ele>
						<time>2024-09-16T11:51:00Z</time>
					</trkpt>
					<trkpt lat="48.509000" lon="1.543890">
						<ele>114</ele>
						<time>2024-09-16T11:51:01Z</time>
					</trkpt>
					<trkpt lat="48.509170" lon="1.544220">
						<ele>113</ele>
						<time>2024-09-16T11:51:06Z</time>
					</trkpt>
					<trkpt lat="48.509380" lon="1.544520">
						<ele>114</ele>
						<time>2024-09-16T11:51:11Z</time>
					</trkpt>
					<trkpt lat="48.509740" lon="1.544880">
						<ele>115</ele>
						<time>2024-09-16T11:51:19Z</time>
					</trkpt>
					<trkpt lat="48.509980" lon="1.545100">
						<ele>115</ele>
						<time>2024-09-16T11:51:24Z</time>
					</trkpt>
					<trkpt lat="48.510890" lon="1.546110">
						<ele>116</ele>
						<time>2024-09-16T11:51:44Z</time>
					</trkpt>
					<trkpt lat="48.511720" lon="1.546880">
						<ele>115</ele>
						<time>2024-09-16T11:52:01Z</time>
					</trkpt>
					<trkpt lat="48.511960" lon="1.547130">
						<ele>115</ele>
						<time>2024-09-16T11:52:06Z</time>
					</trkpt>
					<trkpt lat="48.512510" lon="1.547870">
						<ele>114</ele>
						<time>2024-09-16T11:52:19Z</time>
					</trkpt>
					<trkpt lat="48.512870" lon="1.548320">
						<ele>114</ele>
						<time>2024-09-16T11:52:28Z</time>
					</trkpt>
					<trkpt lat="48.512910" lon="1.548420">
						<ele>114</ele>
						<time>2024-09-16T11:52:29Z</time>
					</trkpt>
					<trkpt lat="48.513080" lon="1.548890">
						<ele>114</ele>
						<time>2024-09-16T11:52:35Z</time>
					</trkpt>
					<trkpt lat="48.513210" lon="1.549100">
						<ele>113</ele>
						<time>2024-09-16T11:52:39Z</time>
					</trkpt>
					<trkpt lat="48.513410" lon="1.549320">
						<ele>114</ele>
						<time>2024-09-16T11:52:43Z</time>
					</trkpt>
					<trkpt lat="48.514110" lon="1.549850">
						<ele>117</ele>
						<time>2024-09-16T11:52:57Z</time>
					</trkpt>
					<trkpt lat="48.514540" lon="1.550200">
						<ele>119</ele>
						<time>2024-09-16T11:53:06Z</time>
					</trkpt>
					<trkpt lat="48.514740" lon="1.550370">
						<ele>119</ele>
						<time>2024-09-16T11:53:10Z</time>
					</trkpt>
					<trkpt lat="48.515690" lon="1.551140">
						<ele>123</ele>
						<time>2024-09-16T11:53:29Z</time>
					</trkpt>
					<trkpt lat="48.516360" lon="1.551580">
						<ele>124</ele>
						<time>2024-09-16T11:53:42Z</time>
					</trkpt>
					<trkpt lat="48.516630" lon="1.551870">
						<ele>125</ele>
						<time>2024-09-16T11:53:48Z</time>
					</trkpt>
					<trkpt lat="48.516860" lon="1.552260">
						<ele>123</ele>
						<time>2024-09-16T11:53:54Z</time>
					</trkpt>
					<trkpt lat="48.516910" lon="1.552400">
						<ele>122</ele>
						<time>2024-09-16T11:53:56Z</time>
					</trkpt>
					<trkpt lat="48.517060" lon="1.552700">
						<ele>121</ele>
						<time>2024-09-16T11:54:00Z</time>
					</trkpt>
					<trkpt lat="48.517750" lon="1.553750">
						<ele>120</ele>
						<time>2024-09-16T11:54:18Z</time>
					</trkpt>
					<trkpt lat="48.517950" lon="1.554180">
						<ele>120</ele>
						<time>2024-09-16T11:54:24Z</time>
					</trkpt>
					<trkpt lat="48.518110" lon="1.554650">
						<ele>118</ele>
						<time>2024-09-16T11:54:30Z</time>
					</trkpt>
					<trkpt lat="48.518260" lon="1.555290">
						<ele>117</ele>
						<time>2024-09-16T11:54:38Z</time>
					</trkpt>
					<trkpt lat="48.518320" lon="1.555580">
						<ele>116</ele>
						<time>2024-09-16T11:54:42Z</time>
					</trkpt>
					<trkpt lat="48.518520" lon="1.556380">
						<ele>116</ele>
						<time>2024-09-16T11:54:52Z</time>
					</trkpt>
					<trkpt lat="48.518610" lon="1.556590">
						<ele>116</ele>
						<time>2024-09-16T11:54:55Z</time>
					</trkpt>
					<trkpt lat="48.518740" lon="1.556840">
						<ele>116</ele>
						<time>2024-09-16T11:54:59Z</time>
					</trkpt>
					<trkpt lat="48.518890" lon="1.557060">
						<ele>117</ele>
						<time>2024-09-16T11:55:02Z</time>
					</trkpt>
					<trkpt lat="48.519320" lon="1.557510">
						<ele>118</ele>
						<time>2024-09-16T11:55:12Z</time>
					</trkpt>
					<trkpt lat="48.520290" lon="1.558450">
						<ele>118</ele>
						<time>2024-09-16T11:55:32Z</time>
					</trkpt>
					<trkpt lat="48.520480" lon="1.558690">
						<ele>117</ele>
						<time>2024-09-16T11:55:37Z</time>
					</trkpt>
					<trkpt lat="48.520930" lon="1.559230">
						<ele>117</ele>
						<time>2024-09-16T11:55:47Z</time>
					</trkpt>
					<trkpt lat="48.521730" lon="1.560190">
						<ele>117</ele>
						<time>2024-09-16T11:56:05Z</time>
					</trkpt>
					<trkpt lat="48.522900" lon="1.562160">
						<ele>115</ele>
						<time>2024-09-16T11:56:36Z</time>
					</trkpt>
					<trkpt lat="48.523710" lon="1.563180">
						<ele>112</ele>
						<time>2024-09-16T11:56:55Z</time>
					</trkpt>
					<trkpt lat="48.523890" lon="1.563410">
						<ele>112</ele>
						<time>2024-09-16T11:56:59Z</time>
					</trkpt>
					<trkpt lat="48.524140" lon="1.563770">
						<ele>111</ele>
						<time>2024-09-16T11:57:05Z</time>
					</trkpt>
					<trkpt lat="48.524880" lon="1.564830">
						<ele>110</ele>
						<time>2024-09-16T11:57:23Z</time>
					</trkpt>
					<trkpt lat="48.526140" lon="1.566270">
						<ele>109</ele>
						<time>2024-09-16T11:57:52Z</time>
					</trkpt>
					<trkpt lat="48.526800" lon="1.567200">
						<ele>109</ele>
						<time>2024-09-16T11:58:08Z</time>
					</trkpt>
					<trkpt lat="48.528030" lon="1.568930">
						<ele>109</ele>
						<time>2024-09-16T11:58:38Z</time>
					</trkpt>
					<trkpt lat="48.528220" lon="1.569170">
						<ele>110</ele>
						<time>2024-09-16T11:58:42Z</time>
					</trkpt>
					<trkpt lat="48.529100" lon="1.570490">
						<ele>109</ele>
						<time>2024-09-16T11:59:04Z</time>
					</trkpt>
					<trkpt lat="48.530230" lon="1.572060">
						<ele>109</ele>
						<time>2024-09-16T11:59:31Z</time>
					</trkpt>
					<trkpt lat="48.530400" lon="1.572300">
						<ele>108</ele>
						<time>2024-09-16T11:59:35Z</time>
					</trkpt>
					<trkpt lat="48.530890" lon="1.572720">
						<ele>107</ele>
						<time>2024-09-16T11:59:46Z</time>
					</trkpt>
					<trkpt lat="48.531690" lon="1.573160">
						<ele>111</ele>
						<time>2024-09-16T12:00:01Z</time>
					</trkpt>
					<trkpt lat="48.532490" lon="1.573560">
						<ele>115</ele>
						<time>2024-09-16T12:00:16Z</time>
					</trkpt>
					<trkpt lat="48.533110" lon="1.573960">
						<ele>116</ele>
						<time>2024-09-16T12:00:28Z</time>
					</trkpt>
					<trkpt lat="48.533440" lon="1.574230">
						<ele>115</ele>
						<time>2024-09-16T12:00:34Z</time>
					</trkpt>
					<trkpt lat="48.533880" lon="1.574460">
						<ele>117</ele>
						<time>2024-09-16T12:00:43Z</time>
					</trkpt>
					<trkpt lat="48.534480" lon="1.575110">
						<ele>116</ele>
						<time>2024-09-16T12:00:56Z</time>
					</trkpt>
					<trkpt lat="48.535230" lon="1.576020">
						<ele>116</ele>
						<time>2024-09-16T12:01:13Z</time>
					</trkpt>
					<trkpt lat="48.536270" lon="1.577020">
						<ele>120</ele>
						<time>2024-09-16T12:01:35Z</time>
					</trkpt>
					<trkpt lat="48.536690" lon="1.577760">
						<ele>116</ele>
						<time>2024-09-16T12:01:46Z</time>
					</trkpt>
					<trkpt lat="48.536940" lon="1.578020">
						<ele>115</ele>
						<time>2024-09-16T12:01:52Z</time>
					</trkpt>
					<trkpt lat="48.537640" lon="1.578700">
						<ele>114</ele>
						<time>2024-09-16T12:02:06Z</time>
					</trkpt>
					<trkpt lat="48.538360" lon="1.579450">
						<ele>112</ele>
						<time>2024-09-16T12:02:22Z</time>
					</trkpt>
					<trkpt lat="48.539210" lon="1.580060">
						<ele>111</ele>
						<time>2024-09-16T12:02:39Z</time>
					</trkpt>
					<trkpt lat="48.540130" lon="1.580580">
						<ele>110</ele>
						<time>2024-09-16T12:02:56Z</time>
					</trkpt>
					<trkpt lat="48.540530" lon="1.580770">
						<ele>110</ele>
						<time>2024-09-16T12:03:04Z</time>
					</trkpt>
					<trkpt lat="48.541940" lon="1.581260">
						<ele>114</ele>
						<time>2024-09-16T12:03:29Z</time>
					</trkpt>
					<trkpt lat="48.542560" lon="1.581690">
						<ele>113</ele>
						<time>2024-09-16T12:03:42Z</time>
					</trkpt>
					<trkpt lat="48.543010" lon="1.581930">
						<ele>113</ele>
						<time>2024-09-16T12:03:50Z</time>
					</trkpt>
					<trkpt lat="48.543140" lon="1.582000">
						<ele>113</ele>
						<time>2024-09-16T12:03:53Z</time>
					</trkpt>
					<trkpt lat="48.543590" lon="1.582090">
						<ele>114</ele>
						<time>2024-09-16T12:04:01Z</time>
					</trkpt>
					<trkpt lat="48.545000" lon="1.582200">
						<ele>112</ele>
						<time>2024-09-16T12:04:26Z</time>
					</trkpt>
					<trkpt lat="48.545630" lon="1.582230">
						<ele>110</ele>
						<time>2024-09-16T12:04:37Z</time>
					</trkpt>
					<trkpt lat="48.545830" lon="1.582420">
						<ele>108</ele>
						<time>2024-09-16T12:04:41Z</time>
					</trkpt>
					<trkpt lat="48.545880" lon="1.582470">
						<ele>108</ele>
						<time>2024-09-16T12:04:42Z</time>
					</trkpt>
					<trkpt lat="48.546210" lon="1.582780">
						<ele>109</ele>
						<time>2024-09-16T12:04:49Z</time>
					</trkpt>
					<trkpt lat="48.546750" lon="1.583280">
						<ele>108</ele>
						<time>2024-09-16T12:05:00Z</time>
					</trkpt>
					<trkpt lat="48.546990" lon="1.583500">
						<ele>108</ele>
						<time>2024-09-16T12:05:05Z</time>
					</trkpt>
					<trkpt lat="48.547110" lon="1.583530">
						<ele>108</ele>
						<time>2024-09-16T12:05:08Z</time>
					</trkpt>
					<trkpt lat="48.547330" lon="1.583580">
						<ele>109</ele>
						<time>2024-09-16T12:05:12Z</time>
					</trkpt>
					<trkpt lat="48.547550" lon="1.583550">
						<ele>110</ele>
						<time>2024-09-16T12:05:15Z</time>
					</trkpt>
					<trkpt lat="48.547740" lon="1.583610">
						<ele>109</ele>
						<time>2024-09-16T12:05:19Z</time>
					</trkpt>
					<trkpt lat="48.547790" lon="1.583620">
						<ele>109</ele>
						<time>2024-09-16T12:05:20Z</time>
					</trkpt>
					<trkpt lat="48.547930" lon="1.583670">
						<ele>109</ele>
						<time>2024-09-16T12:05:22Z</time>
					</trkpt>
					<trkpt lat="48.548490" lon="1.584050">
						<ele>109</ele>
						<time>2024-09-16T12:05:33Z</time>
					</trkpt>
					<trkpt lat="48.548660" lon="1.584080">
						<ele>109</ele>
						<time>2024-09-16T12:05:36Z</time>
					</trkpt>
					<trkpt lat="48.549220" lon="1.583900">
						<ele>110</ele>
						<time>2024-09-16T12:05:47Z</time>
					</trkpt>
					<trkpt lat="48.549320" lon="1.583870">
						<ele>110</ele>
						<time>2024-09-16T12:05:48Z</time>
					</trkpt>
					<trkpt lat="48.549910" lon="1.583600">
						<ele>107</ele>
						<time>2024-09-16T12:05:59Z</time>
					</trkpt>
					<trkpt lat="48.550220" lon="1.583370">
						<ele>106</ele>
						<time>2024-09-16T12:06:05Z</time>
					</trkpt>
					<trkpt lat="48.550360" lon="1.583170">
						<ele>107</ele>
						<time>2024-09-16T12:06:09Z</time>
					</trkpt>
					<trkpt lat="48.550470" lon="1.582950">
						<ele>107</ele>
						<time>2024-09-16T12:06:12Z</time>
					</trkpt>
					<trkpt lat="48.550840" lon="1.581880">
						<ele>108</ele>
						<time>2024-09-16T12:06:26Z</time>
					</trkpt>
					<trkpt lat="48.551030" lon="1.581590">
						<ele>110</ele>
						<time>2024-09-16T12:06:31Z</time>
					</trkpt>
					<trkpt lat="48.551320" lon="1.581250">
						<ele>113</ele>
						<time>2024-09-16T12:06:38Z</time>
					</trkpt>
					<trkpt lat="48.551500" lon="1.581090">
						<ele>115</ele>
						<time>2024-09-16T12:06:41Z</time>
					</trkpt>
					<trkpt lat="48.551690" lon="1.580960">
						<ele>115</ele>
						<time>2024-09-16T12:06:45Z</time>
					</trkpt>
					<trkpt lat="48.552290" lon="1.580800">
						<ele>114</ele>
						<time>2024-09-16T12:06:56Z</time>
					</trkpt>
					<trkpt lat="48.552690" lon="1.580740">
						<ele>114</ele>
						<time>2024-09-16T12:07:03Z</time>
					</trkpt>
					<trkpt lat="48.553050" lon="1.580730">
						<ele>115</ele>
						<time>2024-09-16T12:07:10Z</time>
					</trkpt>
					<trkpt lat="48.553780" lon="1.580760">
						<ele>115</ele>
						<time>2024-09-16T12:07:23Z</time>
					</trkpt>
					<trkpt lat="48.554620" lon="1.580690">
						<ele>117</ele>
						<time>2024-09-16T12:07:37Z</time>
					</trkpt>
					<trkpt lat="48.555150" lon="1.580740">
						<ele>116</ele>
						<time>2024-09-16T12:07:47Z</time>
					</trkpt>
					<trkpt lat="48.555620" lon="1.580870">
						<ele>117</ele>
						<time>2024-09-16T12:07:55Z</time>
					</trkpt>
					<trkpt lat="48.555910" lon="1.580990">
						<ele>118</ele>
						<time>2024-09-16T12:08:01Z</time>
					</trkpt>
					<trkpt lat="48.557250" lon="1.581620">
						<ele>113</ele>
						<time>2024-09-16T12:08:26Z</time>
					</trkpt>
					<trkpt lat="48.557360" lon="1.581670">
						<ele>112</ele>
						<time>2024-09-16T12:08:28Z</time>
					</trkpt>
					<trkpt lat="48.557720" lon="1.581820">
						<ele>113</ele>
						<time>2024-09-16T12:08:34Z</time>
					</trkpt>
					<trkpt lat="48.558100" lon="1.581950">
						<ele>115</ele>
						<time>2024-09-16T12:08:41Z</time>
					</trkpt>
					<trkpt lat="48.558740" lon="1.582110">
						<ele>116</ele>
						<time>2024-09-16T12:08:53Z</time>
					</trkpt>
					<trkpt lat="48.559270" lon="1.582110">
						<ele>117</ele>
						<time>2024-09-16T12:09:02Z</time>
					</trkpt>
					<trkpt lat="48.560490" lon="1.582050">
						<ele>117</ele>
						<time>2024-09-16T12:09:24Z</time>
					</trkpt>
					<trkpt lat="48.560870" lon="1.582040">
						<ele>118</ele>
						<time>2024-09-16T12:09:31Z</time>
					</trkpt>
					<trkpt lat="48.561460" lon="1.582180">
						<ele>118</ele>
						<time>2024-09-16T12:09:41Z</time>
					</trkpt>
					<trkpt lat="48.562060" lon="1.582270">
						<ele>116</ele>
						<time>2024-09-16T12:09:52Z</time>
					</trkpt>
					<trkpt lat="48.562430" lon="1.582340">
						<ele>114</ele>
						<time>2024-09-16T12:09:59Z</time>
					</trkpt>
					<trkpt lat="48.562830" lon="1.582620">
						<ele>112</ele>
						<time>2024-09-16T12:10:07Z</time>
					</trkpt>
					<trkpt lat="48.563040" lon="1.582770">
						<ele>111</ele>
						<time>2024-09-16T12:10:11Z</time>
					</trkpt>
					<trkpt lat="48.563570" lon="1.583200">
						<ele>107</ele>
						<time>2024-09-16T12:10:22Z</time>
					</trkpt>
					<trkpt lat="48.563780" lon="1.583570">
						<ele>106</ele>
						<time>2024-09-16T12:10:27Z</time>
					</trkpt>
					<trkpt lat="48.563840" lon="1.583660">
						<ele>106</ele>
						<time>2024-09-16T12:10:29Z</time>
					</trkpt>
					<trkpt lat="48.563950" lon="1.583910">
						<ele>105</ele>
						<time>2024-09-16T12:10:32Z</time>
					</trkpt>
					<trkpt lat="48.564080" lon="1.584120">
						<ele>105</ele>
						<time>2024-09-16T12:10:36Z</time>
					</trkpt>
					<trkpt lat="48.564200" lon="1.584250">
						<ele>105</ele>
						<time>2024-09-16T12:10:38Z</time>
					</trkpt>
					<trkpt lat="48.565170" lon="1.584270">
						<ele>106</ele>
						<time>2024-09-16T12:10:56Z</time>
					</trkpt>
					<trkpt lat="48.565460" lon="1.584260">
						<ele>106</ele>
						<time>2024-09-16T12:11:01Z</time>
					</trkpt>
					<trkpt lat="48.565660" lon="1.584250">
						<ele>106</ele>
						<time>2024-09-16T12:11:04Z</time>
					</trkpt>
					<trkpt lat="48.565880" lon="1.584240">
						<ele>106</ele>
						<time>2024-09-16T12:11:08Z</time>
					</trkpt>
					<trkpt lat="48.566470" lon="1.584110">
						<ele>105</ele>
						<time>2024-09-16T12:11:19Z</time>
					</trkpt>
					<trkpt lat="48.566550" lon="1.584080">
						<ele>105</ele>
						<time>2024-09-16T12:11:20Z</time>
					</trkpt>
					<trkpt lat="48.567050" lon="1.583920">
						<ele>104</ele>
						<time>2024-09-16T12:11:29Z</time>
					</trkpt>
					<trkpt lat="48.567330" lon="1.583820">
						<ele>103</ele>
						<time>2024-09-16T12:11:34Z</time>
					</trkpt>
					<trkpt lat="48.567720" lon="1.583600">
						<ele>103</ele>
						<time>2024-09-16T12:11:42Z</time>
					</trkpt>
					<trkpt lat="48.568410" lon="1.582910">
						<ele>102</ele>
						<time>2024-09-16T12:11:57Z</time>
					</trkpt>
					<trkpt lat="48.568720" lon="1.582530">
						<ele>101</ele>
						<time>2024-09-16T12:12:04Z</time>
					</trkpt>
					<trkpt lat="48.569070" lon="1.581960">
						<ele>103</ele>
						<time>2024-09-16T12:12:13Z</time>
					</trkpt>
					<trkpt lat="48.569410" lon="1.581450">
						<ele>108</ele>
						<time>2024-09-16T12:12:21Z</time>
					</trkpt>
					<trkpt lat="48.569700" lon="1.581130">
						<ele>113</ele>
						<time>2024-09-16T12:12:28Z</time>
					</trkpt>
					<trkpt lat="48.570410" lon="1.580790">
						<ele>112</ele>
						<time>2024-09-16T12:12:41Z</time>
					</trkpt>
					<trkpt lat="48.570910" lon="1.580580">
						<ele>108</ele>
						<time>2024-09-16T12:12:50Z</time>
					</trkpt>
					<trkpt lat="48.571170" lon="1.580520">
						<ele>109</ele>
						<time>2024-09-16T12:12:55Z</time>
					</trkpt>
					<trkpt lat="48.571430" lon="1.580460">
						<ele>110</ele>
						<time>2024-09-16T12:13:00Z</time>
					</trkpt>
					<trkpt lat="48.573390" lon="1.580110">
						<ele>116</ele>
						<time>2024-09-16T12:13:35Z</time>
					</trkpt>
					<trkpt lat="48.574740" lon="1.580040">
						<ele>116</ele>
						<time>2024-09-16T12:13:59Z</time>
					</trkpt>
					<trkpt lat="48.576540" lon="1.579870">
						<ele>116</ele>
						<time>2024-09-16T12:14:31Z</time>
					</trkpt>
					<trkpt lat="48.577120" lon="1.579820">
						<ele>116</ele>
						<time>2024-09-16T12:14:41Z</time>
					</trkpt>
					<trkpt lat="48.579500" lon="1.579650">
						<ele>116</ele>
						<time>2024-09-16T12:15:24Z</time>
					</trkpt>
					<trkpt lat="48.580310" lon="1.579330">
						<ele>124</ele>
						<time>2024-09-16T12:15:39Z</time>
					</trkpt>
					<trkpt lat="48.582340" lon="1.578910">
						<ele>117</ele>
						<time>2024-09-16T12:16:15Z</time>
					</trkpt>
					<trkpt lat="48.582960" lon="1.578630">
						<ele>116</ele>
						<time>2024-09-16T12:16:26Z</time>
					</trkpt>
					<trkpt lat="48.583150" lon="1.578540">
						<ele>114</ele>
						<time>2024-09-16T12:16:30Z</time>
					</trkpt>
					<trkpt lat="48.583620" lon="1.578260">
						<ele>114</ele>
						<time>2024-09-16T12:16:39Z</time>
					</trkpt>
					<trkpt lat="48.583780" lon="1.578030">
						<ele>114</ele>
						<time>2024-09-16T12:16:43Z</time>
					</trkpt>
					<trkpt lat="48.584000" lon="1.577330">
						<ele>115</ele>
						<time>2024-09-16T12:16:52Z</time>
					</trkpt>
					<trkpt lat="48.584140" lon="1.576940">
						<ele>115</ele>
						<time>2024-09-16T12:16:57Z</time>
					</trkpt>
					<trkpt lat="48.584300" lon="1.576320">
						<ele>112</ele>
						<time>2024-09-16T12:17:05Z</time>
					</trkpt>
					<trkpt lat="48.584460" lon="1.575810">
						<ele>109</ele>
						<time>2024-09-16T12:17:12Z</time>
					</trkpt>
					<trkpt lat="48.584780" lon="1.576130">
						<ele>109</ele>
						<time>2024-09-16T12:17:19Z</time>
					</trkpt>
					<trkpt lat="48.584950" lon="1.576300">
						<ele>108</ele>
						<time>2024-09-16T12:17:22Z</time>
					</trkpt>
					<trkpt lat="48.585160" lon="1.576500">
						<ele>107</ele>
						<time>2024-09-16T12:17:27Z</time>
					</trkpt>
					<trkpt lat="48.585320" lon="1.576710">
						<ele>106</ele>
						<time>2024-09-16T12:17:30Z</time>
					</trkpt>
					<trkpt lat="48.585510" lon="1.576960">
						<ele>105</ele>
						<time>2024-09-16T12:17:35Z</time>
					</trkpt>
					<trkpt lat="48.585810" lon="1.577340">
						<ele>104</ele>
						<time>2024-09-16T12:17:42Z</time>
					</trkpt>
					<trkpt lat="48.586180" lon="1.577550">
						<ele>104</ele>
						<time>2024-09-16T12:17:49Z</time>
					</trkpt>
					<trkpt lat="48.586250" lon="1.577580">
						<ele>104</ele>
						<time>2024-09-16T12:17:50Z</time>
					</trkpt>
					<trkpt lat="48.586310" lon="1.577600">
						<ele>103</ele>
						<time>2024-09-16T12:17:51Z</time>
					</trkpt>
					<trkpt lat="48.586400" lon="1.577640">
						<ele>103</ele>
						<time>2024-09-16T12:17:53Z</time>
					</trkpt>
					<trkpt lat="48.586630" lon="1.577680">
						<ele>103</ele>
						<time>2024-09-16T12:17:57Z</time>
					</trkpt>
					<trkpt lat="48.586680" lon="1.577740">
						<ele>103</ele>
						<time>2024-09-16T12:17:58Z</time>
					</trkpt>
					<trkpt lat="48.586750" lon="1.577810">
						<ele>103</ele>
						<time>2024-09-16T12:18:00Z</time>
					</trkpt>
					<trkpt lat="48.586820" lon="1.577860">
						<ele>103</ele>
						<time>2024-09-16T12:18:01Z</time>
					</trkpt>
					<trkpt lat="48.587030" lon="1.578050">
						<ele>103</ele>
						<time>2024-09-16T12:18:05Z</time>
					</trkpt>
					<trkpt lat="48.587090" lon="1.578080">
						<ele>103</ele>
						<time>2024-09-16T12:18:07Z</time>
					</trkpt>
					<trkpt lat="48.587530" lon="1.578000">
						<ele>103</ele>
						<time>2024-09-16T12:18:14Z</time>
					</trkpt>
					<trkpt lat="48.587550" lon="1.577990">
						<ele>103</ele>
						<time>2024-09-16T12:18:15Z</time>
					</trkpt>
					<trkpt lat="48.587860" lon="1.577930">
						<ele>103</ele>
						<time>2024-09-16T12:18:20Z</time>
					</trkpt>
					<trkpt lat="48.587990" lon="1.577900">
						<ele>103</ele>
						<time>2024-09-16T12:18:23Z</time>
					</trkpt>
					<trkpt lat="48.588230" lon="1.577860">
						<ele>103</ele>
						<time>2024-09-16T12:18:27Z</time>
					</trkpt>
					<trkpt lat="48.588670" lon="1.577790">
						<ele>103</ele>
						<time>2024-09-16T12:18:35Z</time>
					</trkpt>
					<trkpt lat="48.588850" lon="1.577850">
						<ele>103</ele>
						<time>2024-09-16T12:18:38Z</time>
					</trkpt>
					<trkpt lat="48.589030" lon="1.578000">
						<ele>103</ele>
						<time>2024-09-16T12:18:42Z</time>
					</trkpt>
					<trkpt lat="48.589110" lon="1.578110">
						<ele>103</ele>
						<time>2024-09-16T12:18:44Z</time>
					</trkpt>
					<trkpt lat="48.589190" lon="1.578240">
						<ele>103</ele>
						<time>2024-09-16T12:18:46Z</time>
					</trkpt>
					<trkpt lat="48.589240" lon="1.578390">
						<ele>103</ele>
						<time>2024-09-16T12:18:48Z</time>
					</trkpt>
					<trkpt lat="48.589400" lon="1.578990">
						<ele>102</ele>
						<time>2024-09-16T12:18:55Z</time>
					</trkpt>
					<trkpt lat="48.589490" lon="1.579430">
						<ele>102</ele>
						<time>2024-09-16T12:19:01Z</time>
					</trkpt>
					<trkpt lat="48.589570" lon="1.579770">
						<ele>102</ele>
						<time>2024-09-16T12:19:05Z</time>
					</trkpt>
					<trkpt lat="48.590210" lon="1.583220">
						<ele>109</ele>
						<time>2024-09-16T12:19:47Z</time>
					</trkpt>
					<trkpt lat="48.590320" lon="1.583610">
						<ele>112</ele>
						<time>2024-09-16T12:19:52Z</time>
					</trkpt>
					<trkpt lat="48.590370" lon="1.583730">
						<ele>113</ele>
						<time>2024-09-16T12:19:54Z</time>
					</trkpt>
					<trkpt lat="48.590520" lon="1.584010">
						<ele>116</ele>
						<time>2024-09-16T12:19:58Z</time>
					</trkpt>
					<trkpt lat="48.590650" lon="1.584190">
						<ele>118</ele>
						<time>2024-09-16T12:20:01Z</time>
					</trkpt>
					<trkpt lat="48.590750" lon="1.584290">
						<ele>120</ele>
						<time>2024-09-16T12:20:03Z</time>
					</trkpt>
					<trkpt lat="48.590840" lon="1.584380">
						<ele>122</ele>
						<time>2024-09-16T12:20:05Z</time>
					</trkpt>
					<trkpt lat="48.591080" lon="1.584520">
						<ele>124</ele>
						<time>2024-09-16T12:20:10Z</time>
					</trkpt>
					<trkpt lat="48.592760" lon="1.585290">
						<ele>129</ele>
						<time>2024-09-16T12:20:41Z</time>
					</trkpt>
					<trkpt lat="48.593060" lon="1.585440">
						<ele>130</ele>
						<time>2024-09-16T12:20:47Z</time>
					</trkpt>
					<trkpt lat="48.593140" lon="1.585510">
						<ele>130</ele>
						<time>2024-09-16T12:20:48Z</time>
					</trkpt>
					<trkpt lat="48.593510" lon="1.585930">
						<ele>130</ele>
						<time>2024-09-16T12:20:57Z</time>
					</trkpt>
					<trkpt lat="48.594030" lon="1.586760">
						<ele>133</ele>
						<time>2024-09-16T12:21:10Z</time>
					</trkpt>
					<trkpt lat="48.594100" lon="1.586860">
						<ele>133</ele>
						<time>2024-09-16T12:21:12Z</time>
					</trkpt>
					<trkpt lat="48.595080" lon="1.588420">
						<ele>136</ele>
						<time>2024-09-16T12:21:37Z</time>
					</trkpt>
					<trkpt lat="48.595110" lon="1.588670">
						<ele>136</ele>
						<time>2024-09-16T12:21:40Z</time>
					</trkpt>
					<trkpt lat="48.595100" lon="1.588770">
						<ele>136</ele>
						<time>2024-09-16T12:21:41Z</time>
					</trkpt>
					<trkpt lat="48.595120" lon="1.588860">
						<ele>136</ele>
						<time>2024-09-16T12:21:42Z</time>
					</trkpt>
					<trkpt lat="48.595140" lon="1.588900">
						<ele>136</ele>
						<time>2024-09-16T12:21:43Z</time>
					</trkpt>
					<trkpt lat="48.595200" lon="1.588950">
						<ele>135</ele>
						<time>2024-09-16T12:21:44Z</time>
					</trkpt>
					<trkpt lat="48.595260" lon="1.588940">
						<ele>135</ele>
						<time>2024-09-16T12:21:45Z</time>
					</trkpt>
					<trkpt lat="48.595290" lon="1.588920">
						<ele>135</ele>
						<time>2024-09-16T12:21:46Z</time>
					</trkpt>
					<trkpt lat="48.595490" lon="1.588990">
						<ele>135</ele>
						<time>2024-09-16T12:21:50Z</time>
					</trkpt>
					<trkpt lat="48.595930" lon="1.589520">
						<ele>134</ele>
						<time>2024-09-16T12:22:00Z</time>
					</trkpt>
					<trkpt lat="48.596500" lon="1.590130">
						<ele>133</ele>
						<time>2024-09-16T12:22:12Z</time>
					</trkpt>
					<trkpt lat="48.596680" lon="1.590410">
						<ele>134</ele>
						<time>2024-09-16T12:22:17Z</time>
					</trkpt>
					<trkpt lat="48.597260" lon="1.591550">
						<ele>133</ele>
						<time>2024-09-16T12:22:34Z</time>
					</trkpt>
					<trkpt lat="48.597740" lon="1.592450">
						<ele>134</ele>
						<time>2024-09-16T12:22:47Z</time>
					</trkpt>
					<trkpt lat="48.598720" lon="1.594370">
						<ele>133</ele>
						<time>2024-09-16T12:23:16Z</time>
					</trkpt>
					<trkpt lat="48.599700" lon="1.595990">
						<ele>133</ele>
						<time>2024-09-16T12:23:41Z</time>
					</trkpt>
					<trkpt lat="48.600250" lon="1.597020">
						<ele>134</ele>
						<time>2024-09-16T12:23:57Z</time>
					</trkpt>
					<trkpt lat="48.600480" lon="1.597390">
						<ele>135</ele>
						<time>2024-09-16T12:24:03Z</time>
					</trkpt>
					<trkpt lat="48.600640" lon="1.597620">
						<ele>135</ele>
						<time>2024-09-16T12:24:07Z</time>
					</trkpt>
					<trkpt lat="48.601060" lon="1.598090">
						<ele>134</ele>
						<time>2024-09-16T12:24:16Z</time>
					</trkpt>
					<trkpt lat="48.601480" lon="1.598540">
						<ele>133</ele>
						<time>2024-09-16T12:24:25Z</time>
					</trkpt>
					<trkpt lat="48.603240" lon="1.600280">
						<ele>131</ele>
						<time>2024-09-16T12:25:03Z</time>
					</trkpt>
					<trkpt lat="48.604460" lon="1.601690">
						<ele>131</ele>
						<time>2024-09-16T12:25:30Z</time>
					</trkpt>
					<trkpt lat="48.605240" lon="1.602440">
						<ele>130</ele>
						<time>2024-09-16T12:25:47Z</time>
					</trkpt>
					<trkpt lat="48.605650" lon="1.602910">
						<ele>130</ele>
						<time>2024-09-16T12:25:56Z</time>
					</trkpt>
					<trkpt lat="48.606070" lon="1.603450">
						<ele>131</ele>
						<time>2024-09-16T12:26:06Z</time>
					</trkpt>
					<trkpt lat="48.606690" lon="1.604370">
						<ele>130</ele>
						<time>2024-09-16T12:26:21Z</time>
					</trkpt>
					<trkpt lat="48.606850" lon="1.604680">
						<ele>130</ele>
						<time>2024-09-16T12:26:26Z</time>
					</trkpt>
					<trkpt lat="48.606970" lon="1.604980">
						<ele>130</ele>
						<time>2024-09-16T12:26:30Z</time>
					</trkpt>
					<trkpt lat="48.607310" lon="1.606190">
						<ele>128</ele>
						<time>2024-09-16T12:26:45Z</time>
					</trkpt>
					<trkpt lat="48.607430" lon="1.606490">
						<ele>128</ele>
						<time>2024-09-16T12:26:49Z</time>
					</trkpt>
					<trkpt lat="48.607770" lon="1.607120">
						<ele>127</ele>
						<time>2024-09-16T12:26:59Z</time>
					</trkpt>
					<trkpt lat="48.607990" lon="1.607480">
						<ele>128</ele>
						<time>2024-09-16T12:27:05Z</time>
					</trkpt>
					<trkpt lat="48.608190" lon="1.607730">
						<ele>128</ele>
						<time>2024-09-16T12:27:09Z</time>
					</trkpt>
					<trkpt lat="48.608540" lon="1.608080">
						<ele>128</ele>
						<time>2024-09-16T12:27:17Z</time>
					</trkpt>
					<trkpt lat="48.608730" lon="1.608210">
						<ele>128</ele>
						<time>2024-09-16T12:27:20Z</time>
					</trkpt>
					<trkpt lat="48.608890" lon="1.608280">
						<ele>127</ele>
						<time>2024-09-16T12:27:23Z</time>
					</trkpt>
					<trkpt lat="48.609950" lon="1.608570">
						<ele>124</ele>
						<time>2024-09-16T12:27:43Z</time>
					</trkpt>
					<trkpt lat="48.610140" lon="1.608570">
						<ele>123</ele>
						<time>2024-09-16T12:27:46Z</time>
					</trkpt>
					<trkpt lat="48.610530" lon="1.608450">
						<ele>122</ele>
						<time>2024-09-16T12:27:53Z</time>
					</trkpt>
					<trkpt lat="48.610700" lon="1.608420">
						<ele>121</ele>
						<time>2024-09-16T12:27:56Z</time>
					</trkpt>
					<trkpt lat="48.611050" lon="1.608510">
						<ele>119</ele>
						<time>2024-09-16T12:28:02Z</time>
					</trkpt>
					<trkpt lat="48.612000" lon="1.608930">
						<ele>112</ele>
						<time>2024-09-16T12:28:20Z</time>
					</trkpt>
					<trkpt lat="48.612050" lon="1.608890">
						<ele>112</ele>
						<time>2024-09-16T12:28:21Z</time>
					</trkpt>
					<trkpt lat="48.612090" lon="1.608960">
						<ele>112</ele>
						<time>2024-09-16T12:28:22Z</time>
					</trkpt>
					<trkpt lat="48.612220" lon="1.609080">
						<ele>112</ele>
						<time>2024-09-16T12:28:25Z</time>
					</trkpt>
					<trkpt lat="48.612510" lon="1.609220">
						<ele>111</ele>
						<time>2024-09-16T12:28:30Z</time>
					</trkpt>
					<trkpt lat="48.612750" lon="1.609370">
						<ele>109</ele>
						<time>2024-09-16T12:28:35Z</time>
					</trkpt>
					<trkpt lat="48.612860" lon="1.609420">
						<ele>108</ele>
						<time>2024-09-16T12:28:37Z</time>
					</trkpt>
					<trkpt lat="48.613240" lon="1.609590">
						<ele>106</ele>
						<time>2024-09-16T12:28:44Z</time>
					</trkpt>
					<trkpt lat="48.613670" lon="1.609720">
						<ele>106</ele>
						<time>2024-09-16T12:28:52Z</time>
					</trkpt>
					<trkpt lat="48.613740" lon="1.609740">
						<ele>106</ele>
						<time>2024-09-16T12:28:53Z</time>
					</trkpt>
					<trkpt lat="48.613840" lon="1.609770">
						<ele>106</ele>
						<time>2024-09-16T12:28:55Z</time>
					</trkpt>
					<trkpt lat="48.613990" lon="1.609880">
						<ele>107</ele>
						<time>2024-09-16T12:28:58Z</time>
					</trkpt>
					<trkpt lat="48.614090" lon="1.610010">
						<ele>107</ele>
						<time>2024-09-16T12:29:00Z</time>
					</trkpt>
					<trkpt lat="48.614320" lon="1.610680">
						<ele>110</ele>
						<time>2024-09-16T12:29:09Z</time>
					</trkpt>
					<trkpt lat="48.614300" lon="1.611360">
						<ele>111</ele>
						<time>2024-09-16T12:29:17Z</time>
					</trkpt>
					<trkpt lat="48.614310" lon="1.611580">
						<ele>111</ele>
						<time>2024-09-16T12:29:20Z</time>
					</trkpt>
					<trkpt lat="48.614650" lon="1.613280">
						<ele>113</ele>
						<time>2024-09-16T12:29:41Z</time>
					</trkpt>
					<trkpt lat="48.614740" lon="1.613610">
						<ele>112</ele>
						<time>2024-09-16T12:29:45Z</time>
					</trkpt>
					<trkpt lat="48.614920" lon="1.614070">
						<ele>111</ele>
						<time>2024-09-16T12:29:51Z</time>
					</trkpt>
					<trkpt lat="48.615320" lon="1.615000">
						<ele>109</ele>
						<time>2024-09-16T12:30:04Z</time>
					</trkpt>
					<trkpt lat="48.615440" lon="1.615140">
						<ele>109</ele>
						<time>2024-09-16T12:30:07Z</time>
					</trkpt>
					<trkpt lat="48.615590" lon="1.615220">
						<ele>110</ele>
						<time>2024-09-16T12:30:10Z</time>
					</trkpt>
					<trkpt lat="48.615710" lon="1.615260">
						<ele>110</ele>
						<time>2024-09-16T12:30:12Z</time>
					</trkpt>
					<trkpt lat="48.615820" lon="1.615320">
						<ele>110</ele>
						<time>2024-09-16T12:30:14Z</time>
					</trkpt>
					<trkpt lat="48.615940" lon="1.615420">
						<ele>111</ele>
						<time>2024-09-16T12:30:16Z</time>
					</trkpt>
					<trkpt lat="48.616920" lon="1.616360">
						<ele>111</ele>
						<time>2024-09-16T12:30:37Z</time>
					</trkpt>
					<trkpt lat="48.617070" lon="1.616550">
						<ele>110</ele>
						<time>2024-09-16T12:30:40Z</time>
					</trkpt>
					<trkpt lat="48.617510" lon="1.617330">
						<ele>108</ele>
						<time>2024-09-16T12:30:53Z</time>
					</trkpt>
					<trkpt lat="48.617630" lon="1.617630">
						<ele>108</ele>
						<time>2024-09-16T12:30:57Z</time>
					</trkpt>
					<trkpt lat="48.617710" lon="1.617990">
						<ele>108</ele>
						<time>2024-09-16T12:31:01Z</time>
					</trkpt>
					<trkpt lat="48.617830" lon="1.620010">
						<ele>109</ele>
						<time>2024-09-16T12:31:25Z</time>
					</trkpt>
					<trkpt lat="48.617940" lon="1.620590">
						<ele>110</ele>
						<time>2024-09-16T12:31:32Z</time>
					</trkpt>
					<trkpt lat="48.618090" lon="1.621200">
						<ele>110</ele>
						<time>2024-09-16T12:31:40Z</time>
					</trkpt>
					<trkpt lat="48.618230" lon="1.621180">
						<ele>111</ele>
						<time>2024-09-16T12:31:42Z</time>
					</trkpt>
					<trkpt lat="48.618310" lon="1.621140">
						<ele>112</ele>
						<time>2024-09-16T12:31:44Z</time>
					</trkpt>
					<trkpt lat="48.618410" lon="1.621050">
						<ele>112</ele>
						<time>2024-09-16T12:31:46Z</time>
					</trkpt>
					<trkpt lat="48.618460" lon="1.620900">
						<ele>113</ele>
						<time>2024-09-16T12:31:48Z</time>
					</trkpt>
					<trkpt lat="48.618500" lon="1.620330">
						<ele>113</ele>
						<time>2024-09-16T12:31:55Z</time>
					</trkpt>
					<trkpt lat="48.618580" lon="1.620020">
						<ele>114</ele>
						<time>2024-09-16T12:31:58Z</time>
					</trkpt>
					<trkpt lat="48.618760" lon="1.619670">
						<ele>116</ele>
						<time>2024-09-16T12:32:04Z</time>
					</trkpt>
					<trkpt lat="48.619110" lon="1.619190">
						<ele>119</ele>
						<time>2024-09-16T12:32:12Z</time>
					</trkpt>
					<trkpt lat="48.619700" lon="1.618440">
						<ele>123</ele>
						<time>2024-09-16T12:32:26Z</time>
					</trkpt>
					<trkpt lat="48.619770" lon="1.618410">
						<ele>124</ele>
						<time>2024-09-16T12:32:27Z</time>
					</trkpt>
					<trkpt lat="48.619830" lon="1.618430">
						<ele>124</ele>
						<time>2024-09-16T12:32:28Z</time>
					</trkpt>
					<trkpt lat="48.619880" lon="1.618490">
						<ele>124</ele>
						<time>2024-09-16T12:32:29Z</time>
					</trkpt>
					<trkpt lat="48.620820" lon="1.619800">
						<ele>130</ele>
						<time>2024-09-16T12:32:52Z</time>
					</trkpt>
					<trkpt lat="48.621650" lon="1.620880">
						<ele>134</ele>
						<time>2024-09-16T12:33:11Z</time>
					</trkpt>
					<trkpt lat="48.621950" lon="1.621180">
						<ele>134</ele>
						<time>2024-09-16T12:33:18Z</time>
					</trkpt>
					<trkpt lat="48.622200" lon="1.621370">
						<ele>135</ele>
						<time>2024-09-16T12:33:23Z</time>
					</trkpt>
					<trkpt lat="48.622730" lon="1.621700">
						<ele>135</ele>
						<time>2024-09-16T12:33:33Z</time>
					</trkpt>
					<trkpt lat="48.624010" lon="1.622200">
						<ele>135</ele>
						<time>2024-09-16T12:33:57Z</time>
					</trkpt>
					<trkpt lat="48.624290" lon="1.622330">
						<ele>135</ele>
						<time>2024-09-16T12:34:02Z</time>
					</trkpt>
					<trkpt lat="48.624430" lon="1.622430">
						<ele>135</ele>
						<time>2024-09-16T12:34:05Z</time>
					</trkpt>
					<trkpt lat="48.625130" lon="1.623080">
						<ele>137</ele>
						<time>2024-09-16T12:34:19Z</time>
					</trkpt>
					<trkpt lat="48.625980" lon="1.623930">
						<ele>144</ele>
						<time>2024-09-16T12:34:37Z</time>
					</trkpt>
					<trkpt lat="48.626360" lon="1.624250">
						<ele>147</ele>
						<time>2024-09-16T12:34:45Z</time>
					</trkpt>
					<trkpt lat="48.627560" lon="1.625000">
						<ele>152</ele>
						<time>2024-09-16T12:35:08Z</time>
					</trkpt>
					<trkpt lat="48.627620" lon="1.625040">
						<ele>152</ele>
						<time>2024-09-16T12:35:09Z</time>
					</trkpt>
					<trkpt lat="48.628050" lon="1.625260">
						<ele>151</ele>
						<time>2024-09-16T12:35:17Z</time>
					</trkpt>
					<trkpt lat="48.628410" lon="1.625350">
						<ele>150</ele>
						<time>2024-09-16T12:35:24Z</time>
					</trkpt>
					<trkpt lat="48.628520" lon="1.625360">
						<ele>150</ele>
						<time>2024-09-16T12:35:26Z</time>
					</trkpt>
					<trkpt lat="48.628660" lon="1.625310">
						<ele>150</ele>
						<time>2024-09-16T12:35:28Z</time>
					</trkpt>
					<trkpt lat="48.628860" lon="1.625160">
						<ele>149</ele>
						<time>2024-09-16T12:35:32Z</time>
					</trkpt>
					<trkpt lat="48.629280" lon="1.624930">
						<ele>148</ele>
						<time>2024-09-16T12:35:40Z</time>
					</trkpt>
					<trkpt lat="48.629440" lon="1.624880">
						<ele>146</ele>
						<time>2024-09-16T12:35:43Z</time>
					</trkpt>
					<trkpt lat="48.629570" lon="1.624860">
						<ele>145</ele>
						<time>2024-09-16T12:35:46Z</time>
					</trkpt>
					<trkpt lat="48.629720" lon="1.624890">
						<ele>144</ele>
						<time>2024-09-16T12:35:48Z</time>
					</trkpt>
					<trkpt lat="48.629780" lon="1.624900">
						<ele>143</ele>
						<time>2024-09-16T12:35:49Z</time>
					</trkpt>
					<trkpt lat="48.630120" lon="1.625090">
						<ele>141</ele>
						<time>2024-09-16T12:35:56Z</time>
					</trkpt>
					<trkpt lat="48.630380" lon="1.625270">
						<ele>142</ele>
						<time>2024-09-16T12:36:01Z</time>
					</trkpt>
					<trkpt lat="48.630580" lon="1.625360">
						<ele>143</ele>
						<time>2024-09-16T12:36:05Z</time>
					</trkpt>
					<trkpt lat="48.630630" lon="1.625350">
						<ele>143</ele>
						<time>2024-09-16T12:36:05Z</time>
					</trkpt>
					<trkpt lat="48.630740" lon="1.625350">
						<ele>143</ele>
						<time>2024-09-16T12:36:07Z</time>
					</trkpt>
					<trkpt lat="48.630930" lon="1.625200">
						<ele>144</ele>
						<time>2024-09-16T12:36:11Z</time>
					</trkpt>
					<trkpt lat="48.631110" lon="1.624970">
						<ele>145</ele>
						<time>2024-09-16T12:36:15Z</time>
					</trkpt>
					<trkpt lat="48.631300" lon="1.624310">
						<ele>144</ele>
						<time>2024-09-16T12:36:24Z</time>
					</trkpt>
					<trkpt lat="48.631490" lon="1.623750">
						<ele>142</ele>
						<time>2024-09-16T12:36:31Z</time>
					</trkpt>
					<trkpt lat="48.631570" lon="1.623590">
						<ele>142</ele>
						<time>2024-09-16T12:36:34Z</time>
					</trkpt>
					<trkpt lat="48.631880" lon="1.623340">
						<ele>143</ele>
						<time>2024-09-16T12:36:40Z</time>
					</trkpt>
					<trkpt lat="48.632120" lon="1.623180">
						<ele>143</ele>
						<time>2024-09-16T12:36:45Z</time>
					</trkpt>
					<trkpt lat="48.632370" lon="1.623090">
						<ele>144</ele>
						<time>2024-09-16T12:36:49Z</time>
					</trkpt>
					<trkpt lat="48.632830" lon="1.623010">
						<ele>143</ele>
						<time>2024-09-16T12:36:57Z</time>
					</trkpt>
					<trkpt lat="48.634170" lon="1.623220">
						<ele>139</ele>
						<time>2024-09-16T12:37:21Z</time>
					</trkpt>
					<trkpt lat="48.634400" lon="1.623320">
						<ele>139</ele>
						<time>2024-09-16T12:37:26Z</time>
					</trkpt>
					<trkpt lat="48.634660" lon="1.623390">
						<ele>138</ele>
						<time>2024-09-16T12:37:30Z</time>
					</trkpt>
					<trkpt lat="48.635220" lon="1.623660">
						<ele>135</ele>
						<time>2024-09-16T12:37:41Z</time>
					</trkpt>
					<trkpt lat="48.635620" lon="1.623790">
						<ele>134</ele>
						<time>2024-09-16T12:37:48Z</time>
					</trkpt>
					<trkpt lat="48.636620" lon="1.623940">
						<ele>132</ele>
						<time>2024-09-16T12:38:06Z</time>
					</trkpt>
					<trkpt lat="48.638470" lon="1.624100">
						<ele>132</ele>
						<time>2024-09-16T12:38:39Z</time>
					</trkpt>
					<trkpt lat="48.640200" lon="1.624070">
						<ele>130</ele>
						<time>2024-09-16T12:39:10Z</time>
					</trkpt>
					<trkpt lat="48.640910" lon="1.624130">
						<ele>129</ele>
						<time>2024-09-16T12:39:22Z</time>
					</trkpt>
					<trkpt lat="48.641370" lon="1.624090">
						<ele>129</ele>
						<time>2024-09-16T12:39:31Z</time>
					</trkpt>
					<trkpt lat="48.642650" lon="1.623920">
						<ele>128</ele>
						<time>2024-09-16T12:39:53Z</time>
					</trkpt>
					<trkpt lat="48.642850" lon="1.623870">
						<ele>128</ele>
						<time>2024-09-16T12:39:57Z</time>
					</trkpt>
					<trkpt lat="48.643300" lon="1.623650">
						<ele>128</ele>
						<time>2024-09-16T12:40:05Z</time>
					</trkpt>
					<trkpt lat="48.644040" lon="1.623130">
						<ele>125</ele>
						<time>2024-09-16T12:40:20Z</time>
					</trkpt>
					<trkpt lat="48.644690" lon="1.622680">
						<ele>124</ele>
						<time>2024-09-16T12:40:33Z</time>
					</trkpt>
					<trkpt lat="48.644900" lon="1.622570">
						<ele>124</ele>
						<time>2024-09-16T12:40:37Z</time>
					</trkpt>
					<trkpt lat="48.645240" lon="1.622420">
						<ele>124</ele>
						<time>2024-09-16T12:40:43Z</time>
					</trkpt>
					<trkpt lat="48.645360" lon="1.622400">
						<ele>124</ele>
						<time>2024-09-16T12:40:45Z</time>
					</trkpt>
					<trkpt lat="48.645440" lon="1.622410">
						<ele>124</ele>
						<time>2024-09-16T12:40:46Z</time>
					</trkpt>
					<trkpt lat="48.645590" lon="1.622490">
						<ele>124</ele>
						<time>2024-09-16T12:40:49Z</time>
					</trkpt>
					<trkpt lat="48.645660" lon="1.622560">
						<ele>124</ele>
						<time>2024-09-16T12:40:51Z</time>
					</trkpt>
					<trkpt lat="48.646200" lon="1.623230">
						<ele>124</ele>
						<time>2024-09-16T12:41:03Z</time>
					</trkpt>
					<trkpt lat="48.646410" lon="1.623510">
						<ele>124</ele>
						<time>2024-09-16T12:41:08Z</time>
					</trkpt>
					<trkpt lat="48.646740" lon="1.623800">
						<ele>124</ele>
						<time>2024-09-16T12:41:15Z</time>
					</trkpt>
					<trkpt lat="48.647080" lon="1.624060">
						<ele>124</ele>
						<time>2024-09-16T12:41:22Z</time>
					</trkpt>
					<trkpt lat="48.647170" lon="1.624090">
						<ele>124</ele>
						<time>2024-09-16T12:41:23Z</time>
					</trkpt>
					<trkpt lat="48.647660" lon="1.624130">
						<ele>124</ele>
						<time>2024-09-16T12:41:32Z</time>
					</trkpt>
					<trkpt lat="48.647780" lon="1.624200">
						<ele>124</ele>
						<time>2024-09-16T12:41:34Z</time>
					</trkpt>
					<trkpt lat="48.648020" lon="1.624470">
						<ele>125</ele>
						<time>2024-09-16T12:41:40Z</time>
					</trkpt>
					<trkpt lat="48.648280" lon="1.624770">
						<ele>126</ele>
						<time>2024-09-16T12:41:46Z</time>
					</trkpt>
					<trkpt lat="48.648390" lon="1.624880">
						<ele>126</ele>
						<time>2024-09-16T12:41:48Z</time>
					</trkpt>
					<trkpt lat="48.649120" lon="1.625510">
						<ele>126</ele>
						<time>2024-09-16T12:42:03Z</time>
					</trkpt>
					<trkpt lat="48.649420" lon="1.625830">
						<ele>126</ele>
						<time>2024-09-16T12:42:09Z</time>
					</trkpt>
					<trkpt lat="48.650110" lon="1.626670">
						<ele>127</ele>
						<time>2024-09-16T12:42:25Z</time>
					</trkpt>
					<trkpt lat="48.650440" lon="1.626970">
						<ele>129</ele>
						<time>2024-09-16T12:42:32Z</time>
					</trkpt>
					<trkpt lat="48.650640" lon="1.627080">
						<ele>130</ele>
						<time>2024-09-16T12:42:36Z</time>
					</trkpt>
					<trkpt lat="48.650720" lon="1.627090">
						<ele>131</ele>
						<time>2024-09-16T12:42:37Z</time>
					</trkpt>
					<trkpt lat="48.651200" lon="1.627110">
						<ele>133</ele>
						<time>2024-09-16T12:42:46Z</time>
					</trkpt>
					<trkpt lat="48.651400" lon="1.627170">
						<ele>134</ele>
						<time>2024-09-16T12:42:49Z</time>
					</trkpt>
					<trkpt lat="48.652070" lon="1.627610">
						<ele>134</ele>
						<time>2024-09-16T12:43:02Z</time>
					</trkpt>
					<trkpt lat="48.653160" lon="1.628240">
						<ele>131</ele>
						<time>2024-09-16T12:43:23Z</time>
					</trkpt>
					<trkpt lat="48.653310" lon="1.628290">
						<ele>131</ele>
						<time>2024-09-16T12:43:26Z</time>
					</trkpt>
					<trkpt lat="48.653710" lon="1.628320">
						<ele>129</ele>
						<time>2024-09-16T12:43:33Z</time>
					</trkpt>
					<trkpt lat="48.655020" lon="1.628250">
						<ele>125</ele>
						<time>2024-09-16T12:43:56Z</time>
					</trkpt>
					<trkpt lat="48.655160" lon="1.628290">
						<ele>125</ele>
						<time>2024-09-16T12:43:59Z</time>
					</trkpt>
					<trkpt lat="48.655360" lon="1.628300">
						<ele>125</ele>
						<time>2024-09-16T12:44:02Z</time>
					</trkpt>
					<trkpt lat="48.655530" lon="1.628220">
						<ele>125</ele>
						<time>2024-09-16T12:44:06Z</time>
					</trkpt>
					<trkpt lat="48.655600" lon="1.628160">
						<ele>125</ele>
						<time>2024-09-16T12:44:07Z</time>
					</trkpt>
					<trkpt lat="48.655670" lon="1.628070">
						<ele>125</ele>
						<time>2024-09-16T12:44:09Z</time>
					</trkpt>
					<trkpt lat="48.655770" lon="1.627890">
						<ele>126</ele>
						<time>2024-09-16T12:44:11Z</time>
					</trkpt>
					<trkpt lat="48.655870" lon="1.627470">
						<ele>126</ele>
						<time>2024-09-16T12:44:17Z</time>
					</trkpt>
					<trkpt lat="48.655910" lon="1.627250">
						<ele>125</ele>
						<time>2024-09-16T12:44:19Z</time>
					</trkpt>
					<trkpt lat="48.655920" lon="1.627200">
						<ele>125</ele>
						<time>2024-09-16T12:44:20Z</time>
					</trkpt>
					<trkpt lat="48.655940" lon="1.627090">
						<ele>125</ele>
						<time>2024-09-16T12:44:21Z</time>
					</trkpt>
					<trkpt lat="48.656090" lon="1.626470">
						<ele>124</ele>
						<time>2024-09-16T12:44:29Z</time>
					</trkpt>
					<trkpt lat="48.656160" lon="1.626240">
						<ele>124</ele>
						<time>2024-09-16T12:44:32Z</time>
					</trkpt>
					<trkpt lat="48.656210" lon="1.626150">
						<ele>124</ele>
						<time>2024-09-16T12:44:33Z</time>
					</trkpt>
					<trkpt lat="48.656370" lon="1.626000">
						<ele>123</ele>
						<time>2024-09-16T12:44:37Z</time>
					</trkpt>
					<trkpt lat="48.656470" lon="1.625980">
						<ele>123</ele>
						<time>2024-09-16T12:44:39Z</time>
					</trkpt>
					<trkpt lat="48.656840" lon="1.626020">
						<ele>123</ele>
						<time>2024-09-16T12:44:45Z</time>
					</trkpt>
					<trkpt lat="48.657330" lon="1.626130">
						<ele>124</ele>
						<time>2024-09-16T12:44:54Z</time>
					</trkpt>
					<trkpt lat="48.657670" lon="1.626240">
						<ele>124</ele>
						<time>2024-09-16T12:45:00Z</time>
					</trkpt>
					<trkpt lat="48.657960" lon="1.626290">
						<ele>123</ele>
						<time>2024-09-16T12:45:05Z</time>
					</trkpt>
					<trkpt lat="48.658210" lon="1.626270">
						<ele>123</ele>
						<time>2024-09-16T12:45:10Z</time>
					</trkpt>
					<trkpt lat="48.658440" lon="1.626220">
						<ele>123</ele>
						<time>2024-09-16T12:45:14Z</time>
					</trkpt>
					<trkpt lat="48.658700" lon="1.626110">
						<ele>124</ele>
						<time>2024-09-16T12:45:19Z</time>
					</trkpt>
					<trkpt lat="48.659070" lon="1.625910">
						<ele>125</ele>
						<time>2024-09-16T12:45:26Z</time>
					</trkpt>
					<trkpt lat="48.660420" lon="1.624980">
						<ele>125</ele>
						<time>2024-09-16T12:45:52Z</time>
					</trkpt>
					<trkpt lat="48.660810" lon="1.624760">
						<ele>125</ele>
						<time>2024-09-16T12:46:00Z</time>
					</trkpt>
					<trkpt lat="48.661680" lon="1.624430">
						<ele>126</ele>
						<time>2024-09-16T12:46:15Z</time>
					</trkpt>
					<trkpt lat="48.662000" lon="1.624320">
						<ele>126</ele>
						<time>2024-09-16T12:46:21Z</time>
					</trkpt>
					<trkpt lat="48.662260" lon="1.624290">
						<ele>127</ele>
						<time>2024-09-16T12:46:26Z</time>
					</trkpt>
					<trkpt lat="48.662650" lon="1.624350">
						<ele>128</ele>
						<time>2024-09-16T12:46:33Z</time>
					</trkpt>
					<trkpt lat="48.662750" lon="1.624410">
						<ele>127</ele>
						<time>2024-09-16T12:46:35Z</time>
					</trkpt>
					<trkpt lat="48.663370" lon="1.624870">
						<ele>127</ele>
						<time>2024-09-16T12:46:47Z</time>
					</trkpt>
					<trkpt lat="48.663440" lon="1.624940">
						<ele>127</ele>
						<time>2024-09-16T12:46:49Z</time>
					</trkpt>
					<trkpt lat="48.663160" lon="1.627030">
						<ele>126</ele>
						<time>2024-09-16T12:47:14Z</time>
					</trkpt>
					<trkpt lat="48.663050" lon="1.627840">
						<ele>126</ele>
						<time>2024-09-16T12:47:23Z</time>
					</trkpt>
					<trkpt lat="48.663040" lon="1.628060">
						<ele>126</ele>
						<time>2024-09-16T12:47:26Z</time>
					</trkpt>
					<trkpt lat="48.663100" lon="1.628560">
						<ele>126</ele>
						<time>2024-09-16T12:47:32Z</time>
					</trkpt>
					<trkpt lat="48.663120" lon="1.628760">
						<ele>127</ele>
						<time>2024-09-16T12:47:34Z</time>
					</trkpt>
					<trkpt lat="48.663190" lon="1.629070">
						<ele>127</ele>
						<time>2024-09-16T12:47:38Z</time>
					</trkpt>
					<trkpt lat="48.663300" lon="1.629320">
						<ele>128</ele>
						<time>2024-09-16T12:47:42Z</time>
					</trkpt>
					<trkpt lat="48.663630" lon="1.629890">
						<ele>127</ele>
						<time>2024-09-16T12:47:51Z</time>
					</trkpt>
					<trkpt lat="48.663770" lon="1.630230">
						<ele>127</ele>
						<time>2024-09-16T12:47:55Z</time>
					</trkpt>
					<trkpt lat="48.663960" lon="1.630940">
						<ele>128</ele>
						<time>2024-09-16T12:48:04Z</time>
					</trkpt>
					<trkpt lat="48.664340" lon="1.632660">
						<ele>130</ele>
						<time>2024-09-16T12:48:26Z</time>
					</trkpt>
					<trkpt lat="48.664420" lon="1.633080">
						<ele>132</ele>
						<time>2024-09-16T12:48:31Z</time>
					</trkpt>
					<trkpt lat="48.664510" lon="1.633610">
						<ele>133</ele>
						<time>2024-09-16T12:48:37Z</time>
					</trkpt>
					<trkpt lat="48.664620" lon="1.634290">
						<ele>133</ele>
						<time>2024-09-16T12:48:45Z</time>
					</trkpt>
					<trkpt lat="48.664870" lon="1.635510">
						<ele>133</ele>
						<time>2024-09-16T12:49:00Z</time>
					</trkpt>
					<trkpt lat="48.665010" lon="1.636320">
						<ele>135</ele>
						<time>2024-09-16T12:49:10Z</time>
					</trkpt>
					<trkpt lat="48.665120" lon="1.636870">
						<ele>135</ele>
						<time>2024-09-16T12:49:17Z</time>
					</trkpt>
					<trkpt lat="48.665200" lon="1.637140">
						<ele>135</ele>
						<time>2024-09-16T12:49:21Z</time>
					</trkpt>
					<trkpt lat="48.666060" lon="1.639300">
						<ele>136</ele>
						<time>2024-09-16T12:49:50Z</time>
					</trkpt>
					<trkpt lat="48.666470" lon="1.640180">
						<ele>137</ele>
						<time>2024-09-16T12:50:03Z</time>
					</trkpt>
					<trkpt lat="48.667280" lon="1.641760">
						<ele>139</ele>
						<time>2024-09-16T12:50:26Z</time>
					</trkpt>
					<trkpt lat="48.667460" lon="1.642080">
						<ele>139</ele>
						<time>2024-09-16T12:50:31Z</time>
					</trkpt>
					<trkpt lat="48.668760" lon="1.644370">
						<ele>138</ele>
						<time>2024-09-16T12:51:07Z</time>
					</trkpt>
					<trkpt lat="48.668900" lon="1.644560">
						<ele>137</ele>
						<time>2024-09-16T12:51:10Z</time>
					</trkpt>
					<trkpt lat="48.669350" lon="1.644690">
						<ele>135</ele>
						<time>2024-09-16T12:51:18Z</time>
					</trkpt>
					<trkpt lat="48.669770" lon="1.644800">
						<ele>134</ele>
						<time>2024-09-16T12:51:26Z</time>
					</trkpt>
					<trkpt lat="48.670240" lon="1.645410">
						<ele>135</ele>
						<time>2024-09-16T12:51:37Z</time>
					</trkpt>
					<trkpt lat="48.671030" lon="1.645920">
						<ele>140</ele>
						<time>2024-09-16T12:51:52Z</time>
					</trkpt>
					<trkpt lat="48.672100" lon="1.646680">
						<ele>145</ele>
						<time>2024-09-16T12:52:13Z</time>
					</trkpt>
					<trkpt lat="48.672940" lon="1.647170">
						<ele>146</ele>
						<time>2024-09-16T12:52:29Z</time>
					</trkpt>
					<trkpt lat="48.673850" lon="1.647830">
						<ele>145</ele>
						<time>2024-09-16T12:52:47Z</time>
					</trkpt>
					<trkpt lat="48.673600" lon="1.648460">
						<ele>148</ele>
						<time>2024-09-16T12:52:56Z</time>
					</trkpt>
					<trkpt lat="48.673520" lon="1.648830">
						<ele>149</ele>
						<time>2024-09-16T12:53:00Z</time>
					</trkpt>
					<trkpt lat="48.673120" lon="1.651200">
						<ele>156</ele>
						<time>2024-09-16T12:53:29Z</time>
					</trkpt>
					<trkpt lat="48.670110" lon="1.659010">
						<ele>170</ele>
						<time>2024-09-16T12:55:15Z</time>
					</trkpt>
					<trkpt lat="48.669650" lon="1.660210">
						<ele>172</ele>
						<time>2024-09-16T12:55:32Z</time>
					</trkpt>
					<trkpt lat="48.669230" lon="1.660840">
						<ele>172</ele>
						<time>2024-09-16T12:55:42Z</time>
					</trkpt>
					<trkpt lat="48.662300" lon="1.668960">
						<ele>165</ele>
						<time>2024-09-16T12:58:18Z</time>
					</trkpt>
					<trkpt lat="48.660480" lon="1.671100">
						<ele>166</ele>
						<time>2024-09-16T12:58:59Z</time>
					</trkpt>
					<trkpt lat="48.659640" lon="1.672080">
						<ele>161</ele>
						<time>2024-09-16T12:59:18Z</time>
					</trkpt>
					<trkpt lat="48.658390" lon="1.673550">
						<ele>158</ele>
						<time>2024-09-16T12:59:46Z</time>
					</trkpt>
					<trkpt lat="48.656400" lon="1.675880">
						<ele>160</ele>
						<time>2024-09-16T13:00:31Z</time>
					</trkpt>
					<trkpt lat="48.655630" lon="1.676790">
						<ele>161</ele>
						<time>2024-09-16T13:00:48Z</time>
					</trkpt>
					<trkpt lat="48.655010" lon="1.677530">
						<ele>162</ele>
						<time>2024-09-16T13:01:02Z</time>
					</trkpt>
					<trkpt lat="48.654820" lon="1.677800">
						<ele>163</ele>
						<time>2024-09-16T13:01:07Z</time>
					</trkpt>
					<trkpt lat="48.654620" lon="1.678150">
						<ele>165</ele>
						<time>2024-09-16T13:01:12Z</time>
					</trkpt>
					<trkpt lat="48.654400" lon="1.678670">
						<ele>165</ele>
						<time>2024-09-16T13:01:20Z</time>
					</trkpt>
					<trkpt lat="48.654090" lon="1.679520">
						<ele>163</ele>
						<time>2024-09-16T13:01:31Z</time>
					</trkpt>
					<trkpt lat="48.653460" lon="1.681260">
						<ele>159</ele>
						<time>2024-09-16T13:01:54Z</time>
					</trkpt>
					<trkpt lat="48.652150" lon="1.684850">
						<ele>152</ele>
						<time>2024-09-16T13:02:43Z</time>
					</trkpt>
					<trkpt lat="48.651640" lon="1.685670">
						<ele>149</ele>
						<time>2024-09-16T13:02:56Z</time>
					</trkpt>
					<trkpt lat="48.651140" lon="1.687240">
						<ele>143</ele>
						<time>2024-09-16T13:03:16Z</time>
					</trkpt>
					<trkpt lat="48.650860" lon="1.688210">
						<ele>136</ele>
						<time>2024-09-16T13:03:29Z</time>
					</trkpt>
					<trkpt lat="48.650740" lon="1.688640">
						<ele>134</ele>
						<time>2024-09-16T13:03:34Z</time>
					</trkpt>
					<trkpt lat="48.650690" lon="1.688820">
						<ele>133</ele>
						<time>2024-09-16T13:03:37Z</time>
					</trkpt>
					<trkpt lat="48.650590" lon="1.689360">
						<ele>132</ele>
						<time>2024-09-16T13:03:43Z</time>
					</trkpt>
					<trkpt lat="48.650350" lon="1.691120">
						<ele>131</ele>
						<time>2024-09-16T13:04:04Z</time>
					</trkpt>
					<trkpt lat="48.650300" lon="1.691840">
						<ele>131</ele>
						<time>2024-09-16T13:04:13Z</time>
					</trkpt>
					<trkpt lat="48.650290" lon="1.692640">
						<ele>133</ele>
						<time>2024-09-16T13:04:22Z</time>
					</trkpt>
					<trkpt lat="48.650310" lon="1.696440">
						<ele>151</ele>
						<time>2024-09-16T13:05:07Z</time>
					</trkpt>
					<trkpt lat="48.650360" lon="1.696910">
						<ele>152</ele>
						<time>2024-09-16T13:05:12Z</time>
					</trkpt>
					<trkpt lat="48.650460" lon="1.697290">
						<ele>153</ele>
						<time>2024-09-16T13:05:17Z</time>
					</trkpt>
					<trkpt lat="48.650570" lon="1.697550">
						<ele>153</ele>
						<time>2024-09-16T13:05:21Z</time>
					</trkpt>
					<trkpt lat="48.651120" lon="1.698620">
						<ele>156</ele>
						<time>2024-09-16T13:05:37Z</time>
					</trkpt>
					<trkpt lat="48.651210" lon="1.698860">
						<ele>157</ele>
						<time>2024-09-16T13:05:40Z</time>
					</trkpt>
					<trkpt lat="48.651310" lon="1.699190">
						<ele>159</ele>
						<time>2024-09-16T13:05:44Z</time>
					</trkpt>
					<trkpt lat="48.651380" lon="1.699940">
						<ele>162</ele>
						<time>2024-09-16T13:05:53Z</time>
					</trkpt>
					<trkpt lat="48.651360" lon="1.700300">
						<ele>162</ele>
						<time>2024-09-16T13:05:57Z</time>
					</trkpt>
					<trkpt lat="48.650600" lon="1.704380">
						<ele>166</ele>
						<time>2024-09-16T13:06:47Z</time>
					</trkpt>
					<trkpt lat="48.650290" lon="1.706010">
						<ele>167</ele>
						<time>2024-09-16T13:07:07Z</time>
					</trkpt>
					<trkpt lat="48.648300" lon="1.716400">
						<ele>164</ele>
						<time>2024-09-16T13:09:14Z</time>
					</trkpt>
					<trkpt lat="48.647590" lon="1.720170">
						<ele>165</ele>
						<time>2024-09-16T13:10:00Z</time>
					</trkpt>
					<trkpt lat="48.647480" lon="1.720830">
						<ele>165</ele>
						<time>2024-09-16T13:10:08Z</time>
					</trkpt>
					<trkpt lat="48.646850" lon="1.724120">
						<ele>164</ele>
						<time>2024-09-16T13:10:49Z</time>
					</trkpt>
					<trkpt lat="48.646330" lon="1.726800">
						<ele>165</ele>
						<time>2024-09-16T13:11:22Z</time>
					</trkpt>
					<trkpt lat="48.646290" lon="1.727020">
						<ele>166</ele>
						<time>2024-09-16T13:11:24Z</time>
					</trkpt>
					<trkpt lat="48.645950" lon="1.728800">
						<ele>167</ele>
						<time>2024-09-16T13:11:46Z</time>
					</trkpt>
					<trkpt lat="48.645670" lon="1.730300">
						<ele>167</ele>
						<time>2024-09-16T13:12:04Z</time>
					</trkpt>
					<trkpt lat="48.645460" lon="1.731490">
						<ele>169</ele>
						<time>2024-09-16T13:12:19Z</time>
					</trkpt>
					<trkpt lat="48.644980" lon="1.734710">
						<ele>169</ele>
						<time>2024-09-16T13:12:58Z</time>
					</trkpt>
					<trkpt lat="48.644590" lon="1.737270">
						<ele>163</ele>
						<time>2024-09-16T13:13:29Z</time>
					</trkpt>
					<trkpt lat="48.643770" lon="1.742710">
						<ele>167</ele>
						<time>2024-09-16T13:14:34Z</time>
					</trkpt>
					<trkpt lat="48.643560" lon="1.743830">
						<ele>166</ele>
						<time>2024-09-16T13:14:48Z</time>
					</trkpt>
					<trkpt lat="48.642000" lon="1.751690">
						<ele>165</ele>
						<time>2024-09-16T13:16:24Z</time>
					</trkpt>
					<trkpt lat="48.641860" lon="1.752180">
						<ele>166</ele>
						<time>2024-09-16T13:16:31Z</time>
					</trkpt>
					<trkpt lat="48.641680" lon="1.752640">
						<ele>166</ele>
						<time>2024-09-16T13:16:37Z</time>
					</trkpt>
					<trkpt lat="48.641360" lon="1.753320">
						<ele>165</ele>
						<time>2024-09-16T13:16:47Z</time>
					</trkpt>
					<trkpt lat="48.640500" lon="1.755090">
						<ele>161</ele>
						<time>2024-09-16T13:17:13Z</time>
					</trkpt>
					<trkpt lat="48.639690" lon="1.756760">
						<ele>161</ele>
						<time>2024-09-16T13:17:37Z</time>
					</trkpt>
					<trkpt lat="48.637910" lon="1.760390">
						<ele>159</ele>
						<time>2024-09-16T13:18:30Z</time>
					</trkpt>
					<trkpt lat="48.637750" lon="1.760790">
						<ele>159</ele>
						<time>2024-09-16T13:18:36Z</time>
					</trkpt>
					<trkpt lat="48.637630" lon="1.761180">
						<ele>157</ele>
						<time>2024-09-16T13:18:41Z</time>
					</trkpt>
					<trkpt lat="48.637520" lon="1.761570">
						<ele>156</ele>
						<time>2024-09-16T13:18:46Z</time>
					</trkpt>
					<trkpt lat="48.637190" lon="1.763170">
						<ele>153</ele>
						<time>2024-09-16T13:19:05Z</time>
					</trkpt>
					<trkpt lat="48.637070" lon="1.763420">
						<ele>153</ele>
						<time>2024-09-16T13:19:09Z</time>
					</trkpt>
					<trkpt lat="48.637000" lon="1.763390">
						<ele>153</ele>
						<time>2024-09-16T13:19:10Z</time>
					</trkpt>
					<trkpt lat="48.636930" lon="1.763420">
						<ele>153</ele>
						<time>2024-09-16T13:19:12Z</time>
					</trkpt>
					<trkpt lat="48.636910" lon="1.763460">
						<ele>153</ele>
						<time>2024-09-16T13:19:12Z</time>
					</trkpt>
					<trkpt lat="48.636890" lon="1.763560">
						<ele>153</ele>
						<time>2024-09-16T13:19:13Z</time>
					</trkpt>
					<trkpt lat="48.636900" lon="1.763610">
						<ele>153</ele>
						<time>2024-09-16T13:19:14Z</time>
					</trkpt>
					<trkpt lat="48.636940" lon="1.763690">
						<ele>153</ele>
						<time>2024-09-16T13:19:15Z</time>
					</trkpt>
					<trkpt lat="48.637000" lon="1.763720">
						<ele>153</ele>
						<time>2024-09-16T13:19:16Z</time>
					</trkpt>
					<trkpt lat="48.637000" lon="1.763880">
						<ele>152</ele>
						<time>2024-09-16T13:19:18Z</time>
					</trkpt>
					<trkpt lat="48.637040" lon="1.764100">
						<ele>152</ele>
						<time>2024-09-16T13:19:21Z</time>
					</trkpt>
					<trkpt lat="48.638240" lon="1.767270">
						<ele>145</ele>
						<time>2024-09-16T13:20:04Z</time>
					</trkpt>
					<trkpt lat="48.638600" lon="1.768190">
						<ele>144</ele>
						<time>2024-09-16T13:20:16Z</time>
					</trkpt>
					<trkpt lat="48.638720" lon="1.768540">
						<ele>145</ele>
						<time>2024-09-16T13:20:21Z</time>
					</trkpt>
					<trkpt lat="48.638800" lon="1.768950">
						<ele>145</ele>
						<time>2024-09-16T13:20:26Z</time>
					</trkpt>
					<trkpt lat="48.638820" lon="1.769200">
						<ele>146</ele>
						<time>2024-09-16T13:20:29Z</time>
					</trkpt>
					<trkpt lat="48.638830" lon="1.769640">
						<ele>146</ele>
						<time>2024-09-16T13:20:34Z</time>
					</trkpt>
					<trkpt lat="48.638700" lon="1.770990">
						<ele>144</ele>
						<time>2024-09-16T13:20:50Z</time>
					</trkpt>
					<trkpt lat="48.638690" lon="1.771090">
						<ele>144</ele>
						<time>2024-09-16T13:20:51Z</time>
					</trkpt>
					<trkpt lat="48.638480" lon="1.773090">
						<ele>144</ele>
						<time>2024-09-16T13:21:15Z</time>
					</trkpt>
					<trkpt lat="48.638450" lon="1.773720">
						<ele>143</ele>
						<time>2024-09-16T13:21:23Z</time>
					</trkpt>
					<trkpt lat="48.638420" lon="1.774030">
						<ele>143</ele>
						<time>2024-09-16T13:21:26Z</time>
					</trkpt>
					<trkpt lat="48.638330" lon="1.774680">
						<ele>142</ele>
						<time>2024-09-16T13:21:34Z</time>
					</trkpt>
					<trkpt lat="48.637960" lon="1.778320">
						<ele>151</ele>
						<time>2024-09-16T13:22:17Z</time>
					</trkpt>
					<trkpt lat="48.637860" lon="1.779320">
						<ele>155</ele>
						<time>2024-09-16T13:22:29Z</time>
					</trkpt>
					<trkpt lat="48.637650" lon="1.781430">
						<ele>160</ele>
						<time>2024-09-16T13:22:54Z</time>
					</trkpt>
					<trkpt lat="48.637470" lon="1.783200">
						<ele>163</ele>
						<time>2024-09-16T13:23:15Z</time>
					</trkpt>
					<trkpt lat="48.637260" lon="1.785360">
						<ele>159</ele>
						<time>2024-09-16T13:23:41Z</time>
					</trkpt>
					<trkpt lat="48.637240" lon="1.785980">
						<ele>158</ele>
						<time>2024-09-16T13:23:48Z</time>
					</trkpt>
					<trkpt lat="48.637240" lon="1.786330">
						<ele>158</ele>
						<time>2024-09-16T13:23:53Z</time>
					</trkpt>
					<trkpt lat="48.637460" lon="1.791050">
						<ele>153</ele>
						<time>2024-09-16T13:24:48Z</time>
					</trkpt>
					<trkpt lat="48.637530" lon="1.791970">
						<ele>150</ele>
						<time>2024-09-16T13:24:59Z</time>
					</trkpt>
					<trkpt lat="48.637570" lon="1.792280">
						<ele>148</ele>
						<time>2024-09-16T13:25:03Z</time>
					</trkpt>
					<trkpt lat="48.637610" lon="1.792500">
						<ele>148</ele>
						<time>2024-09-16T13:25:05Z</time>
					</trkpt>
					<trkpt lat="48.637700" lon="1.792900">
						<ele>147</ele>
						<time>2024-09-16T13:25:10Z</time>
					</trkpt>
					<trkpt lat="48.638100" lon="1.794080">
						<ele>146</ele>
						<time>2024-09-16T13:25:26Z</time>
					</trkpt>
					<trkpt lat="48.638120" lon="1.794160">
						<ele>146</ele>
						<time>2024-09-16T13:25:27Z</time>
					</trkpt>
					<trkpt lat="48.638430" lon="1.795060">
						<ele>147</ele>
						<time>2024-09-16T13:25:39Z</time>
					</trkpt>
					<trkpt lat="48.638570" lon="1.795340">
						<ele>147</ele>
						<time>2024-09-16T13:25:43Z</time>
					</trkpt>
					<trkpt lat="48.638980" lon="1.795880">
						<ele>149</ele>
						<time>2024-09-16T13:25:53Z</time>
					</trkpt>
					<trkpt lat="48.639070" lon="1.796080">
						<ele>148</ele>
						<time>2024-09-16T13:25:56Z</time>
					</trkpt>
					<trkpt lat="48.639100" lon="1.796200">
						<ele>148</ele>
						<time>2024-09-16T13:25:57Z</time>
					</trkpt>
					<trkpt lat="48.639110" lon="1.796440">
						<ele>146</ele>
						<time>2024-09-16T13:26:00Z</time>
					</trkpt>
					<trkpt lat="48.639100" lon="1.796550">
						<ele>146</ele>
						<time>2024-09-16T13:26:01Z</time>
					</trkpt>
					<trkpt lat="48.639030" lon="1.796780">
						<ele>145</ele>
						<time>2024-09-16T13:26:04Z</time>
					</trkpt>
					<trkpt lat="48.638940" lon="1.797000">
						<ele>145</ele>
						<time>2024-09-16T13:26:07Z</time>
					</trkpt>
					<trkpt lat="48.638860" lon="1.797190">
						<ele>146</ele>
						<time>2024-09-16T13:26:10Z</time>
					</trkpt>
					<trkpt lat="48.638780" lon="1.797420">
						<ele>147</ele>
						<time>2024-09-16T13:26:13Z</time>
					</trkpt>
					<trkpt lat="48.638760" lon="1.797530">
						<ele>147</ele>
						<time>2024-09-16T13:26:14Z</time>
					</trkpt>
					<trkpt lat="48.638750" lon="1.797650">
						<ele>149</ele>
						<time>2024-09-16T13:26:16Z</time>
					</trkpt>
					<trkpt lat="48.638760" lon="1.797910">
						<ele>152</ele>
						<time>2024-09-16T13:26:19Z</time>
					</trkpt>
					<trkpt lat="48.639380" lon="1.800490">
						<ele>160</ele>
						<time>2024-09-16T13:26:51Z</time>
					</trkpt>
					<trkpt lat="48.639480" lon="1.800960">
						<ele>162</ele>
						<time>2024-09-16T13:26:57Z</time>
					</trkpt>
					<trkpt lat="48.639480" lon="1.801300">
						<ele>163</ele>
						<time>2024-09-16T13:27:01Z</time>
					</trkpt>
					<trkpt lat="48.639460" lon="1.801580">
						<ele>164</ele>
						<time>2024-09-16T13:27:04Z</time>
					</trkpt>
					<trkpt lat="48.639390" lon="1.802030">
						<ele>164</ele>
						<time>2024-09-16T13:27:10Z</time>
					</trkpt>
					<trkpt lat="48.639220" lon="1.803000">
						<ele>166</ele>
						<time>2024-09-16T13:27:21Z</time>
					</trkpt>
					<trkpt lat="48.639130" lon="1.803340">
						<ele>167</ele>
						<time>2024-09-16T13:27:26Z</time>
					</trkpt>
					<trkpt lat="48.639020" lon="1.803700">
						<ele>168</ele>
						<time>2024-09-16T13:27:30Z</time>
					</trkpt>
					<trkpt lat="48.636640" lon="1.810000">
						<ele>168</ele>
						<time>2024-09-16T13:28:56Z</time>
					</trkpt>
					<trkpt lat="48.636560" lon="1.810240">
						<ele>167</ele>
						<time>2024-09-16T13:28:59Z</time>
					</trkpt>
					<trkpt lat="48.636510" lon="1.810470">
						<ele>167</ele>
						<time>2024-09-16T13:29:02Z</time>
					</trkpt>
					<trkpt lat="48.636480" lon="1.810910">
						<ele>167</ele>
						<time>2024-09-16T13:29:07Z</time>
					</trkpt>
					<trkpt lat="48.636500" lon="1.811130">
						<ele>167</ele>
						<time>2024-09-16T13:29:10Z</time>
					</trkpt>
					<trkpt lat="48.636560" lon="1.811470">
						<ele>167</ele>
						<time>2024-09-16T13:29:14Z</time>
					</trkpt>
					<trkpt lat="48.636680" lon="1.811820">
						<ele>168</ele>
						<time>2024-09-16T13:29:18Z</time>
					</trkpt>
					<trkpt lat="48.636780" lon="1.811990">
						<ele>167</ele>
						<time>2024-09-16T13:29:21Z</time>
					</trkpt>
					<trkpt lat="48.637270" lon="1.812720">
						<ele>168</ele>
						<time>2024-09-16T13:29:33Z</time>
					</trkpt>
					<trkpt lat="48.637490" lon="1.813080">
						<ele>168</ele>
						<time>2024-09-16T13:29:39Z</time>
					</trkpt>
					<trkpt lat="48.637710" lon="1.813560">
						<ele>167</ele>
						<time>2024-09-16T13:29:46Z</time>
					</trkpt>
					<trkpt lat="48.637940" lon="1.814180">
						<ele>166</ele>
						<time>2024-09-16T13:29:54Z</time>
					</trkpt>
					<trkpt lat="48.638390" lon="1.815330">
						<ele>160</ele>
						<time>2024-09-16T13:30:10Z</time>
					</trkpt>
					<trkpt lat="48.639130" lon="1.817260">
						<ele>152</ele>
						<time>2024-09-16T13:30:36Z</time>
					</trkpt>
					<trkpt lat="48.639480" lon="1.818160">
						<ele>151</ele>
						<time>2024-09-16T13:30:48Z</time>
					</trkpt>
					<trkpt lat="48.639610" lon="1.818420">
						<ele>151</ele>
						<time>2024-09-16T13:30:52Z</time>
					</trkpt>
					<trkpt lat="48.640520" lon="1.819770">
						<ele>150</ele>
						<time>2024-09-16T13:31:15Z</time>
					</trkpt>
					<trkpt lat="48.640640" lon="1.820080">
						<ele>150</ele>
						<time>2024-09-16T13:31:19Z</time>
					</trkpt>
					<trkpt lat="48.640680" lon="1.820250">
						<ele>150</ele>
						<time>2024-09-16T13:31:21Z</time>
					</trkpt>
					<trkpt lat="48.640740" lon="1.820820">
						<ele>150</ele>
						<time>2024-09-16T13:31:28Z</time>
					</trkpt>
					<trkpt lat="48.640790" lon="1.821500">
						<ele>149</ele>
						<time>2024-09-16T13:31:36Z</time>
					</trkpt>
					<trkpt lat="48.640930" lon="1.823210">
						<ele>152</ele>
						<time>2024-09-16T13:31:56Z</time>
					</trkpt>
					<trkpt lat="48.641000" lon="1.823980">
						<ele>151</ele>
						<time>2024-09-16T13:32:05Z</time>
					</trkpt>
					<trkpt lat="48.641040" lon="1.824390">
						<ele>151</ele>
						<time>2024-09-16T13:32:10Z</time>
					</trkpt>
					<trkpt lat="48.641090" lon="1.824630">
						<ele>151</ele>
						<time>2024-09-16T13:32:13Z</time>
					</trkpt>
					<trkpt lat="48.641180" lon="1.824890">
						<ele>151</ele>
						<time>2024-09-16T13:32:17Z</time>
					</trkpt>
					<trkpt lat="48.641300" lon="1.825140">
						<ele>151</ele>
						<time>2024-09-16T13:32:20Z</time>
					</trkpt>
					<trkpt lat="48.641540" lon="1.825520">
						<ele>151</ele>
						<time>2024-09-16T13:32:27Z</time>
					</trkpt>
					<trkpt lat="48.641680" lon="1.825600">
						<ele>151</ele>
						<time>2024-09-16T13:32:29Z</time>
					</trkpt>
					<trkpt lat="48.641910" lon="1.825660">
						<ele>152</ele>
						<time>2024-09-16T13:32:33Z</time>
					</trkpt>
					<trkpt lat="48.642920" lon="1.825730">
						<ele>152</ele>
						<time>2024-09-16T13:32:51Z</time>
					</trkpt>
					<trkpt lat="48.642980" lon="1.825880">
						<ele>152</ele>
						<time>2024-09-16T13:32:53Z</time>
					</trkpt>
					<trkpt lat="48.643020" lon="1.825970">
						<ele>153</ele>
						<time>2024-09-16T13:32:55Z</time>
					</trkpt>
					<trkpt lat="48.643060" lon="1.826040">
						<ele>153</ele>
						<time>2024-09-16T13:32:56Z</time>
					</trkpt>
					<trkpt lat="48.643380" lon="1.826180">
						<ele>155</ele>
						<time>2024-09-16T13:33:02Z</time>
					</trkpt>
					<trkpt lat="48.643510" lon="1.826310">
						<ele>156</ele>
						<time>2024-09-16T13:33:05Z</time>
					</trkpt>
					<trkpt lat="48.643740" lon="1.826600">
						<ele>159</ele>
						<time>2024-09-16T13:33:10Z</time>
					</trkpt>
					<trkpt lat="48.643710" lon="1.826690">
						<ele>159</ele>
						<time>2024-09-16T13:33:11Z</time>
					</trkpt>
					<trkpt lat="48.643750" lon="1.826780">
						<ele>159</ele>
						<time>2024-09-16T13:33:12Z</time>
					</trkpt>
					<trkpt lat="48.643620" lon="1.827130">
						<ele>160</ele>
						<time>2024-09-16T13:33:17Z</time>
					</trkpt>
					<trkpt lat="48.643250" lon="1.828150">
						<ele>162</ele>
						<time>2024-09-16T13:33:31Z</time>
					</trkpt>
					<trkpt lat="48.643200" lon="1.828480">
						<ele>161</ele>
						<time>2024-09-16T13:33:35Z</time>
					</trkpt>
					<trkpt lat="48.643200" lon="1.828650">
						<ele>160</ele>
						<time>2024-09-16T13:33:37Z</time>
					</trkpt>
					<trkpt lat="48.643230" lon="1.828890">
						<ele>159</ele>
						<time>2024-09-16T13:33:40Z</time>
					</trkpt>
					<trkpt lat="48.643390" lon="1.829760">
						<ele>159</ele>
						<time>2024-09-16T13:33:50Z</time>
					</trkpt>
					<trkpt lat="48.643420" lon="1.830000">
						<ele>159</ele>
						<time>2024-09-16T13:33:53Z</time>
					</trkpt>
					<trkpt lat="48.643430" lon="1.830160">
						<ele>160</ele>
						<time>2024-09-16T13:33:55Z</time>
					</trkpt>
					<trkpt lat="48.643280" lon="1.830140">
						<ele>159</ele>
						<time>2024-09-16T13:33:58Z</time>
					</trkpt>
					<trkpt lat="48.643160" lon="1.830220">
						<ele>159</ele>
						<time>2024-09-16T13:34:00Z</time>
					</trkpt>
					<trkpt lat="48.643140" lon="1.830250">
						<ele>159</ele>
						<time>2024-09-16T13:34:00Z</time>
					</trkpt>
					<trkpt lat="48.643140" lon="1.830410">
						<ele>160</ele>
						<time>2024-09-16T13:34:02Z</time>
					</trkpt>
					<trkpt lat="48.643270" lon="1.830630">
						<ele>160</ele>
						<time>2024-09-16T13:34:06Z</time>
					</trkpt>
					<trkpt lat="48.643490" lon="1.830990">
						<ele>161</ele>
						<time>2024-09-16T13:34:12Z</time>
					</trkpt>
					<trkpt lat="48.643570" lon="1.831040">
						<ele>161</ele>
						<time>2024-09-16T13:34:13Z</time>
					</trkpt>
					<trkpt lat="48.643630" lon="1.831030">
						<ele>161</ele>
						<time>2024-09-16T13:34:14Z</time>
					</trkpt>
					<trkpt lat="48.643680" lon="1.830960">
						<ele>161</ele>
						<time>2024-09-16T13:34:15Z</time>
					</trkpt>
					<trkpt lat="48.643760" lon="1.830850">
						<ele>161</ele>
						<time>2024-09-16T13:34:17Z</time>
					</trkpt>
					<trkpt lat="48.643840" lon="1.830740">
						<ele>161</ele>
						<time>2024-09-16T13:34:19Z</time>
					</trkpt>
					<trkpt lat="48.643880" lon="1.830710">
						<ele>161</ele>
						<time>2024-09-16T13:34:20Z</time>
					</trkpt>
					<trkpt lat="48.643950" lon="1.830670">
						<ele>161</ele>
						<time>2024-09-16T13:34:21Z</time>
					</trkpt>
					<trkpt lat="48.644050" lon="1.830530">
						<ele>161</ele>
						<time>2024-09-16T13:34:24Z</time>
					</trkpt>
					<trkpt lat="48.644100" lon="1.830500">
						<ele>161</ele>
						<time>2024-09-16T13:34:25Z</time>
					</trkpt>
					<trkpt lat="48.644140" lon="1.830470">
						<ele>161</ele>
						<time>2024-09-16T13:34:26Z</time>
					</trkpt>
					<trkpt lat="48.644160" lon="1.830470">
						<ele>161</ele>
						<time>2024-09-16T13:34:26Z</time>
					</trkpt>
					<trkpt lat="48.644260" lon="1.830510">
						<ele>161</ele>
						<time>2024-09-16T13:34:28Z</time>
					</trkpt>
					<trkpt lat="48.644380" lon="1.830550">
						<ele>162</ele>
						<time>2024-09-16T13:34:30Z</time>
					</trkpt>
					<trkpt lat="48.644490" lon="1.830550">
						<ele>162</ele>
						<time>2024-09-16T13:34:32Z</time>
					</trkpt>
					<trkpt lat="48.644550" lon="1.830550">
						<ele>162</ele>
						<time>2024-09-16T13:34:33Z</time>
					</trkpt>
					<trkpt lat="48.644570" lon="1.830530">
						<ele>162</ele>
						<time>2024-09-16T13:34:33Z</time>
					</trkpt>
					<trkpt lat="48.644790" lon="1.830540">
						<ele>162</ele>
						<time>2024-09-16T13:34:37Z</time>
					</trkpt>
					<trkpt lat="48.644930" lon="1.830550">
						<ele>163</ele>
						<time>2024-09-16T13:34:40Z</time>
					</trkpt>
					<trkpt lat="48.645470" lon="1.830580">
						<ele>162</ele>
						<time>2024-09-16T13:34:49Z</time>
					</trkpt>
					<trkpt lat="48.645510" lon="1.830580">
						<ele>162</ele>
						<time>2024-09-16T13:34:50Z</time>
					</trkpt>
					<trkpt lat="48.646260" lon="1.830610">
						<ele>161</ele>
						<time>2024-09-16T13:35:03Z</time>
					</trkpt>
					<trkpt lat="48.646520" lon="1.830620">
						<ele>160</ele>
						<time>2024-09-16T13:35:08Z</time>
					</trkpt>
					<trkpt lat="48.646600" lon="1.830630">
						<ele>160</ele>
						<time>2024-09-16T13:35:10Z</time>
					</trkpt>
					<trkpt lat="48.646680" lon="1.830630">
						<ele>160</ele>
						<time>2024-09-16T13:35:11Z</time>
					</trkpt>
					<trkpt lat="48.647710" lon="1.830680">
						<ele>160</ele>
						<time>2024-09-16T13:35:29Z</time>
					</trkpt>
					<trkpt lat="48.648580" lon="1.830730">
						<ele>159</ele>
						<time>2024-09-16T13:35:45Z</time>
					</trkpt>
					<trkpt lat="48.649850" lon="1.830800">
						<ele>156</ele>
						<time>2024-09-16T13:36:07Z</time>
					</trkpt>
					<trkpt lat="48.649990" lon="1.830810">
						<ele>156</ele>
						<time>2024-09-16T13:36:10Z</time>
					</trkpt>
					<trkpt lat="48.650210" lon="1.830860">
						<ele>156</ele>
						<time>2024-09-16T13:36:14Z</time>
					</trkpt>
					<trkpt lat="48.650350" lon="1.830890">
						<ele>156</ele>
						<time>2024-09-16T13:36:16Z</time>
					</trkpt>
					<trkpt lat="48.650610" lon="1.830940">
						<ele>155</ele>
						<time>2024-09-16T13:36:21Z</time>
					</trkpt>
					<trkpt lat="48.650710" lon="1.830990">
						<ele>155</ele>
						<time>2024-09-16T13:36:23Z</time>
					</trkpt>
					<trkpt lat="48.650770" lon="1.831090">
						<ele>155</ele>
						<time>2024-09-16T13:36:24Z</time>
					</trkpt>
					<trkpt lat="48.650840" lon="1.831110">
						<ele>155</ele>
						<time>2024-09-16T13:36:26Z</time>
					</trkpt>
					<trkpt lat="48.650880" lon="1.831100">
						<ele>155</ele>
						<time>2024-09-16T13:36:26Z</time>
					</trkpt>
					<trkpt lat="48.650950" lon="1.831020">
						<ele>156</ele>
						<time>2024-09-16T13:36:28Z</time>
					</trkpt>
					<trkpt lat="48.651110" lon="1.831030">
						<ele>156</ele>
						<time>2024-09-16T13:36:31Z</time>
					</trkpt>
					<trkpt lat="48.651160" lon="1.831040">
						<ele>156</ele>
						<time>2024-09-16T13:36:32Z</time>
					</trkpt>
					<trkpt lat="48.651440" lon="1.831130">
						<ele>157</ele>
						<time>2024-09-16T13:36:37Z</time>
					</trkpt>
					<trkpt lat="48.651630" lon="1.831140">
						<ele>157</ele>
						<time>2024-09-16T13:36:40Z</time>
					</trkpt>
					<trkpt lat="48.651900" lon="1.831230">
						<ele>158</ele>
						<time>2024-09-16T13:36:45Z</time>
					</trkpt>
					<trkpt lat="48.652000" lon="1.831290">
						<ele>158</ele>
						<time>2024-09-16T13:36:47Z</time>
					</trkpt>
					<trkpt lat="48.652020" lon="1.831490">
						<ele>158</ele>
						<time>2024-09-16T13:36:49Z</time>
					</trkpt>
					<trkpt lat="48.652030" lon="1.831840">
						<ele>159</ele>
						<time>2024-09-16T13:36:54Z</time>
					</trkpt>
					<trkpt lat="48.652040" lon="1.832070">
						<ele>159</ele>
						<time>2024-09-16T13:36:56Z</time>
					</trkpt>
					<trkpt lat="48.652080" lon="1.832580">
						<ele>160</ele>
						<time>2024-09-16T13:37:02Z</time>
					</trkpt>
					<trkpt lat="48.652250" lon="1.833280">
						<ele>161</ele>
						<time>2024-09-16T13:37:11Z</time>
					</trkpt>
					<trkpt lat="48.652420" lon="1.833700">
						<ele>161</ele>
						<time>2024-09-16T13:37:17Z</time>
					</trkpt>
					<trkpt lat="48.652670" lon="1.834120">
						<ele>162</ele>
						<time>2024-09-16T13:37:24Z</time>
					</trkpt>
					<trkpt lat="48.652870" lon="1.834840">
						<ele>162</ele>
						<time>2024-09-16T13:37:33Z</time>
					</trkpt>
					<trkpt lat="48.653050" lon="1.835620">
						<ele>162</ele>
						<time>2024-09-16T13:37:42Z</time>
					</trkpt>
					<trkpt lat="48.653160" lon="1.836010">
						<ele>162</ele>
						<time>2024-09-16T13:37:47Z</time>
					</trkpt>
					<trkpt lat="48.653240" lon="1.836240">
						<ele>163</ele>
						<time>2024-09-16T13:37:50Z</time>
					</trkpt>
					<trkpt lat="48.653690" lon="1.837230">
						<ele>164</ele>
						<time>2024-09-16T13:38:05Z</time>
					</trkpt>
					<trkpt lat="48.653710" lon="1.837340">
						<ele>164</ele>
						<time>2024-09-16T13:38:06Z</time>
					</trkpt>
					<trkpt lat="48.653710" lon="1.837470">
						<ele>164</ele>
						<time>2024-09-16T13:38:07Z</time>
					</trkpt>
					<trkpt lat="48.653730" lon="1.837540">
						<ele>164</ele>
						<time>2024-09-16T13:38:08Z</time>
					</trkpt>
					<trkpt lat="48.653830" lon="1.837600">
						<ele>164</ele>
						<time>2024-09-16T13:38:10Z</time>
					</trkpt>
					<trkpt lat="48.654160" lon="1.838350">
						<ele>164</ele>
						<time>2024-09-16T13:38:21Z</time>
					</trkpt>
					<trkpt lat="48.654280" lon="1.838630">
						<ele>164</ele>
						<time>2024-09-16T13:38:25Z</time>
					</trkpt>
					<trkpt lat="48.654340" lon="1.838770">
						<ele>164</ele>
						<time>2024-09-16T13:38:27Z</time>
					</trkpt>
					<trkpt lat="48.654420" lon="1.838870">
						<ele>164</ele>
						<time>2024-09-16T13:38:29Z</time>
					</trkpt>
					<trkpt lat="48.654740" lon="1.839250">
						<ele>163</ele>
						<time>2024-09-16T13:38:36Z</time>
					</trkpt>
					<trkpt lat="48.654930" lon="1.839470">
						<ele>163</ele>
						<time>2024-09-16T13:38:40Z</time>
					</trkpt>
					<trkpt lat="48.654940" lon="1.839590">
						<ele>164</ele>
						<time>2024-09-16T13:38:41Z</time>
					</trkpt>
					<trkpt lat="48.654970" lon="1.839700">
						<ele>164</ele>
						<time>2024-09-16T13:38:43Z</time>
					</trkpt>
					<trkpt lat="48.655010" lon="1.839800">
						<ele>164</ele>
						<time>2024-09-16T13:38:44Z</time>
					</trkpt>
					<trkpt lat="48.655110" lon="1.840230">
						<ele>164</ele>
						<time>2024-09-16T13:38:50Z</time>
					</trkpt>
					<trkpt lat="48.655170" lon="1.840510">
						<ele>163</ele>
						<time>2024-09-16T13:38:53Z</time>
					</trkpt>
					<trkpt lat="48.655270" lon="1.840860">
						<ele>163</ele>
						<time>2024-09-16T13:38:58Z</time>
					</trkpt>
					<trkpt lat="48.655390" lon="1.841470">
						<ele>164</ele>
						<time>2024-09-16T13:39:05Z</time>
					</trkpt>
					<trkpt lat="48.655410" lon="1.841590">
						<ele>164</ele>
						<time>2024-09-16T13:39:06Z</time>
					</trkpt>
					<trkpt lat="48.655500" lon="1.842140">
						<ele>165</ele>
						<time>2024-09-16T13:39:13Z</time>
					</trkpt>
					<trkpt lat="48.655600" lon="1.842760">
						<ele>165</ele>
						<time>2024-09-16T13:39:21Z</time>
					</trkpt>
					<trkpt lat="48.655600" lon="1.843230">
						<ele>166</ele>
						<time>2024-09-16T13:39:26Z</time>
					</trkpt>
					<trkpt lat="48.655460" lon="1.844130">
						<ele>166</ele>
						<time>2024-09-16T13:39:37Z</time>
					</trkpt>
					<trkpt lat="48.655270" lon="1.845450">
						<ele>168</ele>
						<time>2024-09-16T13:39:53Z</time>
					</trkpt>
					<trkpt lat="48.655210" lon="1.845660">
						<ele>169</ele>
						<time>2024-09-16T13:39:56Z</time>
					</trkpt>
					<trkpt lat="48.655100" lon="1.845890">
						<ele>169</ele>
						<time>2024-09-16T13:39:59Z</time>
					</trkpt>
					<trkpt lat="48.655240" lon="1.846090">
						<ele>169</ele>
						<time>2024-09-16T13:40:02Z</time>
					</trkpt>
					<trkpt lat="48.655380" lon="1.846210">
						<ele>170</ele>
						<time>2024-09-16T13:40:05Z</time>
					</trkpt>
					<trkpt lat="48.655500" lon="1.846500">
						<ele>172</ele>
						<time>2024-09-16T13:40:09Z</time>
					</trkpt>
					<trkpt lat="48.656430" lon="1.849510">
						<ele>172</ele>
						<time>2024-09-16T13:40:48Z</time>
					</trkpt>
					<trkpt lat="48.656520" lon="1.849870">
						<ele>172</ele>
						<time>2024-09-16T13:40:53Z</time>
					</trkpt>
					<trkpt lat="48.657020" lon="1.851710">
						<ele>172</ele>
						<time>2024-09-16T13:41:16Z</time>
					</trkpt>
					<trkpt lat="48.657090" lon="1.851960">
						<ele>172</ele>
						<time>2024-09-16T13:41:19Z</time>
					</trkpt>
					<trkpt lat="48.657180" lon="1.852340">
						<ele>172</ele>
						<time>2024-09-16T13:41:24Z</time>
					</trkpt>
					<trkpt lat="48.657430" lon="1.853400">
						<ele>173</ele>
						<time>2024-09-16T13:41:37Z</time>
					</trkpt>
					<trkpt lat="48.657530" lon="1.853760">
						<ele>174</ele>
						<time>2024-09-16T13:41:42Z</time>
					</trkpt>
					<trkpt lat="48.657580" lon="1.853890">
						<ele>174</ele>
						<time>2024-09-16T13:41:44Z</time>
					</trkpt>
					<trkpt lat="48.658140" lon="1.856010">
						<ele>176</ele>
						<time>2024-09-16T13:42:11Z</time>
					</trkpt>
					<trkpt lat="48.658950" lon="1.858590">
						<ele>177</ele>
						<time>2024-09-16T13:42:44Z</time>
					</trkpt>
					<trkpt lat="48.658990" lon="1.858710">
						<ele>177</ele>
						<time>2024-09-16T13:42:46Z</time>
					</trkpt>
					<trkpt lat="48.659310" lon="1.859740">
						<ele>177</ele>
						<time>2024-09-16T13:42:59Z</time>
					</trkpt>
					<trkpt lat="48.660540" lon="1.859040">
						<ele>178</ele>
						<time>2024-09-16T13:43:23Z</time>
					</trkpt>
					<trkpt lat="48.660610" lon="1.859070">
						<ele>178</ele>
						<time>2024-09-16T13:43:24Z</time>
					</trkpt>
					<trkpt lat="48.660650" lon="1.859160">
						<ele>179</ele>
						<time>2024-09-16T13:43:25Z</time>
					</trkpt>
					<trkpt lat="48.660770" lon="1.859710">
						<ele>178</ele>
						<time>2024-09-16T13:43:32Z</time>
					</trkpt>
					<trkpt lat="48.661280" lon="1.861940">
						<ele>177</ele>
						<time>2024-09-16T13:44:00Z</time>
					</trkpt>
					<trkpt lat="48.661700" lon="1.863970">
						<ele>174</ele>
						<time>2024-09-16T13:44:25Z</time>
					</trkpt>
					<trkpt lat="48.662380" lon="1.867200">
						<ele>175</ele>
						<time>2024-09-16T13:45:04Z</time>
					</trkpt>
					<trkpt lat="48.662680" lon="1.868580">
						<ele>174</ele>
						<time>2024-09-16T13:45:22Z</time>
					</trkpt>
					<trkpt lat="48.662910" lon="1.869640">
						<ele>173</ele>
						<time>2024-09-16T13:45:35Z</time>
					</trkpt>
					<trkpt lat="48.663170" lon="1.870740">
						<ele>172</ele>
						<time>2024-09-16T13:45:48Z</time>
					</trkpt>
					<trkpt lat="48.664420" lon="1.874230">
						<ele>171</ele>
						<time>2024-09-16T13:46:35Z</time>
					</trkpt>
					<trkpt lat="48.664460" lon="1.874340">
						<ele>171</ele>
						<time>2024-09-16T13:46:37Z</time>
					</trkpt>
					<trkpt lat="48.664530" lon="1.874500">
						<ele>171</ele>
						<time>2024-09-16T13:46:39Z</time>
					</trkpt>
					<trkpt lat="48.664640" lon="1.874700">
						<ele>171</ele>
						<time>2024-09-16T13:46:42Z</time>
					</trkpt>
					<trkpt lat="48.664760" lon="1.874890">
						<ele>172</ele>
						<time>2024-09-16T13:46:45Z</time>
					</trkpt>
					<trkpt lat="48.665250" lon="1.875390">
						<ele>172</ele>
						<time>2024-09-16T13:46:55Z</time>
					</trkpt>
					<trkpt lat="48.665320" lon="1.875510">
						<ele>172</ele>
						<time>2024-09-16T13:46:57Z</time>
					</trkpt>
					<trkpt lat="48.665370" lon="1.875640">
						<ele>171</ele>
						<time>2024-09-16T13:46:59Z</time>
					</trkpt>
					<trkpt lat="48.665680" lon="1.877110">
						<ele>171</ele>
						<time>2024-09-16T13:47:17Z</time>
					</trkpt>
					<trkpt lat="48.666290" lon="1.876810">
						<ele>172</ele>
						<time>2024-09-16T13:47:29Z</time>
					</trkpt>
					<trkpt lat="48.667140" lon="1.876390">
						<ele>173</ele>
						<time>2024-09-16T13:47:45Z</time>
					</trkpt>
					<trkpt lat="48.667390" lon="1.876300">
						<ele>173</ele>
						<time>2024-09-16T13:47:49Z</time>
					</trkpt>
					<trkpt lat="48.667730" lon="1.876140">
						<ele>173</ele>
						<time>2024-09-16T13:47:55Z</time>
					</trkpt>
					<trkpt lat="48.667840" lon="1.876100">
						<ele>173</ele>
						<time>2024-09-16T13:47:57Z</time>
					</trkpt>
					<trkpt lat="48.668110" lon="1.875930">
						<ele>172</ele>
						<time>2024-09-16T13:48:03Z</time>
					</trkpt>
					<trkpt lat="48.668600" lon="1.875720">
						<ele>173</ele>
						<time>2024-09-16T13:48:12Z</time>
					</trkpt>
					<trkpt lat="48.668990" lon="1.875540">
						<ele>174</ele>
						<time>2024-09-16T13:48:19Z</time>
					</trkpt>
					<trkpt lat="48.669160" lon="1.875460">
						<ele>174</ele>
						<time>2024-09-16T13:48:22Z</time>
					</trkpt>
					<trkpt lat="48.669430" lon="1.875340">
						<ele>174</ele>
						<time>2024-09-16T13:48:27Z</time>
					</trkpt>
					<trkpt lat="48.669930" lon="1.875100">
						<ele>174</ele>
						<time>2024-09-16T13:48:36Z</time>
					</trkpt>
					<trkpt lat="48.670390" lon="1.874880">
						<ele>173</ele>
						<time>2024-09-16T13:48:45Z</time>
					</trkpt>
					<trkpt lat="48.670590" lon="1.874790">
						<ele>172</ele>
						<time>2024-09-16T13:48:49Z</time>
					</trkpt>
					<trkpt lat="48.671810" lon="1.874210">
						<ele>172</ele>
						<time>2024-09-16T13:49:12Z</time>
					</trkpt>
					<trkpt lat="48.672020" lon="1.874100">
						<ele>172</ele>
						<time>2024-09-16T13:49:15Z</time>
					</trkpt>
					<trkpt lat="48.673170" lon="1.873540">
						<ele>172</ele>
						<time>2024-09-16T13:49:37Z</time>
					</trkpt>
					<trkpt lat="48.677120" lon="1.871670">
						<ele>172</ele>
						<time>2024-09-16T13:50:51Z</time>
					</trkpt>
					<trkpt lat="48.677380" lon="1.871640">
						<ele>171</ele>
						<time>2024-09-16T13:50:55Z</time>
					</trkpt>
					<trkpt lat="48.677520" lon="1.871680">
						<ele>171</ele>
						<time>2024-09-16T13:50:58Z</time>
					</trkpt>
					<trkpt lat="48.677650" lon="1.871770">
						<ele>172</ele>
						<time>2024-09-16T13:51:00Z</time>
					</trkpt>
					<trkpt lat="48.677750" lon="1.871880">
						<ele>172</ele>
						<time>2024-09-16T13:51:03Z</time>
					</trkpt>
					<trkpt lat="48.678420" lon="1.872910">
						<ele>171</ele>
						<time>2024-09-16T13:51:20Z</time>
					</trkpt>
					<trkpt lat="48.678720" lon="1.873120">
						<ele>171</ele>
						<time>2024-09-16T13:51:25Z</time>
					</trkpt>
					<trkpt lat="48.679170" lon="1.873290">
						<ele>171</ele>
						<time>2024-09-16T13:51:34Z</time>
					</trkpt>
					<trkpt lat="48.682030" lon="1.874230">
						<ele>171</ele>
						<time>2024-09-16T13:52:26Z</time>
					</trkpt>
					<trkpt lat="48.683500" lon="1.874710">
						<ele>172</ele>
						<time>2024-09-16T13:52:52Z</time>
					</trkpt>
					<trkpt lat="48.683610" lon="1.874790">
						<ele>172</ele>
						<time>2024-09-16T13:52:55Z</time>
					</trkpt>
					<trkpt lat="48.683730" lon="1.874940">
						<ele>172</ele>
						<time>2024-09-16T13:52:57Z</time>
					</trkpt>
					<trkpt lat="48.683820" lon="1.875100">
						<ele>173</ele>
						<time>2024-09-16T13:53:00Z</time>
					</trkpt>
					<trkpt lat="48.683980" lon="1.875460">
						<ele>174</ele>
						<time>2024-09-16T13:53:05Z</time>
					</trkpt>
					<trkpt lat="48.684090" lon="1.875570">
						<ele>175</ele>
						<time>2024-09-16T13:53:07Z</time>
					</trkpt>
					<trkpt lat="48.684220" lon="1.875660">
						<ele>176</ele>
						<time>2024-09-16T13:53:10Z</time>
					</trkpt>
					<trkpt lat="48.687190" lon="1.877480">
						<ele>178</ele>
						<time>2024-09-16T13:54:07Z</time>
					</trkpt>
					<trkpt lat="48.687420" lon="1.877660">
						<ele>178</ele>
						<time>2024-09-16T13:54:11Z</time>
					</trkpt>
					<trkpt lat="48.688160" lon="1.878490">
						<ele>172</ele>
						<time>2024-09-16T13:54:28Z</time>
					</trkpt>
					<trkpt lat="48.688300" lon="1.878580">
						<ele>171</ele>
						<time>2024-09-16T13:54:31Z</time>
					</trkpt>
					<trkpt lat="48.690080" lon="1.879110">
						<ele>172</ele>
						<time>2024-09-16T13:55:03Z</time>
					</trkpt>
					<trkpt lat="48.690160" lon="1.879140">
						<ele>172</ele>
						<time>2024-09-16T13:55:04Z</time>
					</trkpt>
					<trkpt lat="48.692930" lon="1.880160">
						<ele>172</ele>
						<time>2024-09-16T13:55:55Z</time>
					</trkpt>
					<trkpt lat="48.694150" lon="1.880480">
						<ele>173</ele>
						<time>2024-09-16T13:56:17Z</time>
					</trkpt>
					<trkpt lat="48.694710" lon="1.880660">
						<ele>173</ele>
						<time>2024-09-16T13:56:27Z</time>
					</trkpt>
					<trkpt lat="48.695100" lon="1.880850">
						<ele>173</ele>
						<time>2024-09-16T13:56:35Z</time>
					</trkpt>
					<trkpt lat="48.695930" lon="1.881480">
						<ele>174</ele>
						<time>2024-09-16T13:56:51Z</time>
					</trkpt>
					<trkpt lat="48.696800" lon="1.882320">
						<ele>174</ele>
						<time>2024-09-16T13:57:09Z</time>
					</trkpt>
					<trkpt lat="48.697140" lon="1.882670">
						<ele>174</ele>
						<time>2024-09-16T13:57:17Z</time>
					</trkpt>
					<trkpt lat="48.697550" lon="1.883240">
						<ele>172</ele>
						<time>2024-09-16T13:57:27Z</time>
					</trkpt>
					<trkpt lat="48.697680" lon="1.883420">
						<ele>171</ele>
						<time>2024-09-16T13:57:30Z</time>
					</trkpt>
					<trkpt lat="48.698030" lon="1.883900">
						<ele>170</ele>
						<time>2024-09-16T13:57:38Z</time>
					</trkpt>
					<trkpt lat="48.698220" lon="1.884170">
						<ele>169</ele>
						<time>2024-09-16T13:57:43Z</time>
					</trkpt>
					<trkpt lat="48.698380" lon="1.884470">
						<ele>167</ele>
						<time>2024-09-16T13:57:47Z</time>
					</trkpt>
					<trkpt lat="48.698790" lon="1.885730">
						<ele>163</ele>
						<time>2024-09-16T13:58:04Z</time>
					</trkpt>
					<trkpt lat="48.698850" lon="1.885970">
						<ele>163</ele>
						<time>2024-09-16T13:58:07Z</time>
					</trkpt>
					<trkpt lat="48.698940" lon="1.886530">
						<ele>163</ele>
						<time>2024-09-16T13:58:14Z</time>
					</trkpt>
					<trkpt lat="48.699000" lon="1.886900">
						<ele>162</ele>
						<time>2024-09-16T13:58:18Z</time>
					</trkpt>
					<trkpt lat="48.699030" lon="1.886980">
						<ele>161</ele>
						<time>2024-09-16T13:58:19Z</time>
					</trkpt>
					<trkpt lat="48.699090" lon="1.887020">
						<ele>161</ele>
						<time>2024-09-16T13:58:20Z</time>
					</trkpt>
					<trkpt lat="48.699440" lon="1.887180">
						<ele>161</ele>
						<time>2024-09-16T13:58:27Z</time>
					</trkpt>
					<trkpt lat="48.699540" lon="1.887200">
						<ele>161</ele>
						<time>2024-09-16T13:58:29Z</time>
					</trkpt>
					<trkpt lat="48.699820" lon="1.887180">
						<ele>161</ele>
						<time>2024-09-16T13:58:34Z</time>
					</trkpt>
					<trkpt lat="48.699920" lon="1.887140">
						<ele>161</ele>
						<time>2024-09-16T13:58:35Z</time>
					</trkpt>
					<trkpt lat="48.700020" lon="1.887070">
						<ele>161</ele>
						<time>2024-09-16T13:58:37Z</time>
					</trkpt>
					<trkpt lat="48.700060" lon="1.887200">
						<ele>160</ele>
						<time>2024-09-16T13:58:39Z</time>
					</trkpt>
					<trkpt lat="48.699510" lon="1.889990">
						<ele>152</ele>
						<time>2024-09-16T13:59:13Z</time>
					</trkpt>
					<trkpt lat="48.699320" lon="1.890910">
						<ele>150</ele>
						<time>2024-09-16T13:59:25Z</time>
					</trkpt>
					<trkpt lat="48.699230" lon="1.891240">
						<ele>149</ele>
						<time>2024-09-16T13:59:29Z</time>
					</trkpt>
					<trkpt lat="48.699020" lon="1.892000">
						<ele>148</ele>
						<time>2024-09-16T13:59:38Z</time>
					</trkpt>
					<trkpt lat="48.698770" lon="1.892900">
						<ele>146</ele>
						<time>2024-09-16T13:59:50Z</time>
					</trkpt>
					<trkpt lat="48.698190" lon="1.895870">
						<ele>147</ele>
						<time>2024-09-16T14:00:26Z</time>
					</trkpt>
					<trkpt lat="48.698190" lon="1.896000">
						<ele>146</ele>
						<time>2024-09-16T14:00:28Z</time>
					</trkpt>
					<trkpt lat="48.698110" lon="1.896070">
						<ele>147</ele>
						<time>2024-09-16T14:00:29Z</time>
					</trkpt>
					<trkpt lat="48.698060" lon="1.896170">
						<ele>148</ele>
						<time>2024-09-16T14:00:31Z</time>
					</trkpt>
					<trkpt lat="48.697930" lon="1.896550">
						<ele>149</ele>
						<time>2024-09-16T14:00:36Z</time>
					</trkpt>
					<trkpt lat="48.697910" lon="1.896720">
						<ele>148</ele>
						<time>2024-09-16T14:00:38Z</time>
					</trkpt>
					<trkpt lat="48.697910" lon="1.897070">
						<ele>147</ele>
						<time>2024-09-16T14:00:42Z</time>
					</trkpt>
					<trkpt lat="48.697970" lon="1.897480">
						<ele>146</ele>
						<time>2024-09-16T14:00:47Z</time>
					</trkpt>
					<trkpt lat="48.698230" lon="1.898360">
						<ele>144</ele>
						<time>2024-09-16T14:00:58Z</time>
					</trkpt>
					<trkpt lat="48.698350" lon="1.898960">
						<ele>145</ele>
						<time>2024-09-16T14:01:06Z</time>
					</trkpt>
					<trkpt lat="48.698390" lon="1.899380">
						<ele>146</ele>
						<time>2024-09-16T14:01:11Z</time>
					</trkpt>
					<trkpt lat="48.698400" lon="1.899820">
						<ele>146</ele>
						<time>2024-09-16T14:01:16Z</time>
					</trkpt>
					<trkpt lat="48.698330" lon="1.901660">
						<ele>149</ele>
						<time>2024-09-16T14:01:38Z</time>
					</trkpt>
					<trkpt lat="48.698280" lon="1.902230">
						<ele>149</ele>
						<time>2024-09-16T14:01:44Z</time>
					</trkpt>
					<trkpt lat="48.698200" lon="1.902530">
						<ele>150</ele>
						<time>2024-09-16T14:01:48Z</time>
					</trkpt>
					<trkpt lat="48.697690" lon="1.903540">
						<ele>151</ele>
						<time>2024-09-16T14:02:03Z</time>
					</trkpt>
					<trkpt lat="48.697260" lon="1.904700">
						<ele>149</ele>
						<time>2024-09-16T14:02:19Z</time>
					</trkpt>
					<trkpt lat="48.697060" lon="1.904930">
						<ele>148</ele>
						<time>2024-09-16T14:02:23Z</time>
					</trkpt>
					<trkpt lat="48.696550" lon="1.905430">
						<ele>145</ele>
						<time>2024-09-16T14:02:34Z</time>
					</trkpt>
					<trkpt lat="48.696370" lon="1.905640">
						<ele>144</ele>
						<time>2024-09-16T14:02:38Z</time>
					</trkpt>
					<trkpt lat="48.696010" lon="1.906420">
						<ele>142</ele>
						<time>2024-09-16T14:02:49Z</time>
					</trkpt>
					<trkpt lat="48.695880" lon="1.906640">
						<ele>142</ele>
						<time>2024-09-16T14:02:53Z</time>
					</trkpt>
					<trkpt lat="48.695680" lon="1.906890">
						<ele>143</ele>
						<time>2024-09-16T14:02:57Z</time>
					</trkpt>
					<trkpt lat="48.694820" lon="1.907600">
						<ele>146</ele>
						<time>2024-09-16T14:03:15Z</time>
					</trkpt>
					<trkpt lat="48.694620" lon="1.907670">
						<ele>146</ele>
						<time>2024-09-16T14:03:18Z</time>
					</trkpt>
					<trkpt lat="48.693880" lon="1.907740">
						<ele>147</ele>
						<time>2024-09-16T14:03:31Z</time>
					</trkpt>
					<trkpt lat="48.693550" lon="1.907930">
						<ele>147</ele>
						<time>2024-09-16T14:03:38Z</time>
					</trkpt>
					<trkpt lat="48.693350" lon="1.908140">
						<ele>147</ele>
						<time>2024-09-16T14:03:42Z</time>
					</trkpt>
					<trkpt lat="48.691790" lon="1.910040">
						<ele>144</ele>
						<time>2024-09-16T14:04:18Z</time>
					</trkpt>
					<trkpt lat="48.691350" lon="1.910530">
						<ele>143</ele>
						<time>2024-09-16T14:04:27Z</time>
					</trkpt>
					<trkpt lat="48.691160" lon="1.910810">
						<ele>142</ele>
						<time>2024-09-16T14:04:32Z</time>
					</trkpt>
					<trkpt lat="48.691040" lon="1.911060">
						<ele>141</ele>
						<time>2024-09-16T14:04:36Z</time>
					</trkpt>
					<trkpt lat="48.690830" lon="1.911620">
						<ele>138</ele>
						<time>2024-09-16T14:04:43Z</time>
					</trkpt>
					<trkpt lat="48.690700" lon="1.911920">
						<ele>137</ele>
						<time>2024-09-16T14:04:48Z</time>
					</trkpt>
					<trkpt lat="48.690110" lon="1.912830">
						<ele>134</ele>
						<time>2024-09-16T14:05:03Z</time>
					</trkpt>
					<trkpt lat="48.689980" lon="1.913070">
						<ele>134</ele>
						<time>2024-09-16T14:05:06Z</time>
					</trkpt>
					<trkpt lat="48.689850" lon="1.913480">
						<ele>134</ele>
						<time>2024-09-16T14:05:12Z</time>
					</trkpt>
					<trkpt lat="48.689770" lon="1.913930">
						<ele>134</ele>
						<time>2024-09-16T14:05:17Z</time>
					</trkpt>
					<trkpt lat="48.689470" lon="1.916090">
						<ele>134</ele>
						<time>2024-09-16T14:05:43Z</time>
					</trkpt>
					<trkpt lat="48.689390" lon="1.917030">
						<ele>134</ele>
						<time>2024-09-16T14:05:54Z</time>
					</trkpt>
					<trkpt lat="48.689370" lon="1.917470">
						<ele>135</ele>
						<time>2024-09-16T14:05:59Z</time>
					</trkpt>
					<trkpt lat="48.689310" lon="1.917630">
						<ele>135</ele>
						<time>2024-09-16T14:06:01Z</time>
					</trkpt>
					<trkpt lat="48.689110" lon="1.917880">
						<ele>135</ele>
						<time>2024-09-16T14:06:06Z</time>
					</trkpt>
					<trkpt lat="48.688890" lon="1.918010">
						<ele>136</ele>
						<time>2024-09-16T14:06:10Z</time>
					</trkpt>
					<trkpt lat="48.688670" lon="1.918220">
						<ele>137</ele>
						<time>2024-09-16T14:06:15Z</time>
					</trkpt>
					<trkpt lat="48.688350" lon="1.918640">
						<ele>139</ele>
						<time>2024-09-16T14:06:22Z</time>
					</trkpt>
					<trkpt lat="48.687950" lon="1.919290">
						<ele>139</ele>
						<time>2024-09-16T14:06:33Z</time>
					</trkpt>
					<trkpt lat="48.687330" lon="1.920500">
						<ele>140</ele>
						<time>2024-09-16T14:06:51Z</time>
					</trkpt>
					<trkpt lat="48.687090" lon="1.920900">
						<ele>140</ele>
						<time>2024-09-16T14:06:57Z</time>
					</trkpt>
					<trkpt lat="48.686220" lon="1.922190">
						<ele>138</ele>
						<time>2024-09-16T14:07:19Z</time>
					</trkpt>
					<trkpt lat="48.685950" lon="1.922790">
						<ele>138</ele>
						<time>2024-09-16T14:07:27Z</time>
					</trkpt>
					<trkpt lat="48.685390" lon="1.924580">
						<ele>139</ele>
						<time>2024-09-16T14:07:51Z</time>
					</trkpt>
					<trkpt lat="48.685270" lon="1.925110">
						<ele>138</ele>
						<time>2024-09-16T14:07:57Z</time>
					</trkpt>
					<trkpt lat="48.685170" lon="1.925630">
						<ele>136</ele>
						<time>2024-09-16T14:08:04Z</time>
					</trkpt>
					<trkpt lat="48.685080" lon="1.925990">
						<ele>136</ele>
						<time>2024-09-16T14:08:08Z</time>
					</trkpt>
					<trkpt lat="48.684830" lon="1.926560">
						<ele>138</ele>
						<time>2024-09-16T14:08:16Z</time>
					</trkpt>
					<trkpt lat="48.683620" lon="1.928740">
						<ele>145</ele>
						<time>2024-09-16T14:08:50Z</time>
					</trkpt>
					<trkpt lat="48.683470" lon="1.928960">
						<ele>148</ele>
						<time>2024-09-16T14:08:53Z</time>
					</trkpt>
					<trkpt lat="48.683000" lon="1.929540">
						<ele>155</ele>
						<time>2024-09-16T14:09:04Z</time>
					</trkpt>
					<trkpt lat="48.682390" lon="1.930490">
						<ele>160</ele>
						<time>2024-09-16T14:09:20Z</time>
					</trkpt>
					<trkpt lat="48.682300" lon="1.930650">
						<ele>161</ele>
						<time>2024-09-16T14:09:22Z</time>
					</trkpt>
					<trkpt lat="48.682270" lon="1.930890">
						<ele>161</ele>
						<time>2024-09-16T14:09:25Z</time>
					</trkpt>
					<trkpt lat="48.682320" lon="1.931140">
						<ele>158</ele>
						<time>2024-09-16T14:09:28Z</time>
					</trkpt>
					<trkpt lat="48.682310" lon="1.931450">
						<ele>157</ele>
						<time>2024-09-16T14:09:32Z</time>
					</trkpt>
					<trkpt lat="48.682250" lon="1.931730">
						<ele>156</ele>
						<time>2024-09-16T14:09:35Z</time>
					</trkpt>
					<trkpt lat="48.682200" lon="1.931850">
						<ele>155</ele>
						<time>2024-09-16T14:09:37Z</time>
					</trkpt>
					<trkpt lat="48.682130" lon="1.931960">
						<ele>156</ele>
						<time>2024-09-16T14:09:39Z</time>
					</trkpt>
					<trkpt lat="48.681930" lon="1.932200">
						<ele>158</ele>
						<time>2024-09-16T14:09:43Z</time>
					</trkpt>
					<trkpt lat="48.681890" lon="1.932280">
						<ele>158</ele>
						<time>2024-09-16T14:09:44Z</time>
					</trkpt>
					<trkpt lat="48.681810" lon="1.932570">
						<ele>156</ele>
						<time>2024-09-16T14:09:48Z</time>
					</trkpt>
					<trkpt lat="48.681790" lon="1.932860">
						<ele>154</ele>
						<time>2024-09-16T14:09:51Z</time>
					</trkpt>
					<trkpt lat="48.681760" lon="1.933060">
						<ele>152</ele>
						<time>2024-09-16T14:09:54Z</time>
					</trkpt>
					<trkpt lat="48.681720" lon="1.933190">
						<ele>152</ele>
						<time>2024-09-16T14:09:56Z</time>
					</trkpt>
					<trkpt lat="48.681600" lon="1.933390">
						<ele>151</ele>
						<time>2024-09-16T14:09:59Z</time>
					</trkpt>
					<trkpt lat="48.681410" lon="1.933690">
						<ele>148</ele>
						<time>2024-09-16T14:10:04Z</time>
					</trkpt>
					<trkpt lat="48.681300" lon="1.934080">
						<ele>144</ele>
						<time>2024-09-16T14:10:09Z</time>
					</trkpt>
					<trkpt lat="48.681170" lon="1.934630">
						<ele>142</ele>
						<time>2024-09-16T14:10:15Z</time>
					</trkpt>
					<trkpt lat="48.681130" lon="1.934920">
						<ele>141</ele>
						<time>2024-09-16T14:10:19Z</time>
					</trkpt>
					<trkpt lat="48.681110" lon="1.935390">
						<ele>139</ele>
						<time>2024-09-16T14:10:24Z</time>
					</trkpt>
					<trkpt lat="48.681120" lon="1.935880">
						<ele>137</ele>
						<time>2024-09-16T14:10:30Z</time>
					</trkpt>
					<trkpt lat="48.681310" lon="1.937000">
						<ele>137</ele>
						<time>2024-09-16T14:10:44Z</time>
					</trkpt>
					<trkpt lat="48.681600" lon="1.938200">
						<ele>135</ele>
						<time>2024-09-16T14:10:59Z</time>
					</trkpt>
					<trkpt lat="48.681680" lon="1.938720">
						<ele>133</ele>
						<time>2024-09-16T14:11:05Z</time>
					</trkpt>
					<trkpt lat="48.681720" lon="1.940560">
						<ele>134</ele>
						<time>2024-09-16T14:11:27Z</time>
					</trkpt>
					<trkpt lat="48.681690" lon="1.940990">
						<ele>134</ele>
						<time>2024-09-16T14:11:32Z</time>
					</trkpt>
					<trkpt lat="48.681590" lon="1.941510">
						<ele>133</ele>
						<time>2024-09-16T14:11:38Z</time>
					</trkpt>
					<trkpt lat="48.681480" lon="1.941910">
						<ele>132</ele>
						<time>2024-09-16T14:11:43Z</time>
					</trkpt>
					<trkpt lat="48.681420" lon="1.942090">
						<ele>131</ele>
						<time>2024-09-16T14:11:46Z</time>
					</trkpt>
					<trkpt lat="48.681350" lon="1.942270">
						<ele>130</ele>
						<time>2024-09-16T14:11:48Z</time>
					</trkpt>
					<trkpt lat="48.681040" lon="1.942850">
						<ele>129</ele>
						<time>2024-09-16T14:11:57Z</time>
					</trkpt>
					<trkpt lat="48.680640" lon="1.943570">
						<ele>126</ele>
						<time>2024-09-16T14:12:08Z</time>
					</trkpt>
					<trkpt lat="48.680010" lon="1.944600">
						<ele>128</ele>
						<time>2024-09-16T14:12:24Z</time>
					</trkpt>
					<trkpt lat="48.679770" lon="1.944940">
						<ele>129</ele>
						<time>2024-09-16T14:12:30Z</time>
					</trkpt>
					<trkpt lat="48.679120" lon="1.945720">
						<ele>128</ele>
						<time>2024-09-16T14:12:45Z</time>
					</trkpt>
					<trkpt lat="48.678750" lon="1.946260">
						<ele>130</ele>
						<time>2024-09-16T14:12:54Z</time>
					</trkpt>
					<trkpt lat="48.678590" lon="1.946580">
						<ele>130</ele>
						<time>2024-09-16T14:12:59Z</time>
					</trkpt>
					<trkpt lat="48.678450" lon="1.946960">
						<ele>130</ele>
						<time>2024-09-16T14:13:04Z</time>
					</trkpt>
					<trkpt lat="48.678330" lon="1.947320">
						<ele>130</ele>
						<time>2024-09-16T14:13:09Z</time>
					</trkpt>
					<trkpt lat="48.678010" lon="1.948430">
						<ele>132</ele>
						<time>2024-09-16T14:13:23Z</time>
					</trkpt>
					<trkpt lat="48.677870" lon="1.948740">
						<ele>132</ele>
						<time>2024-09-16T14:13:27Z</time>
					</trkpt>
					<trkpt lat="48.677740" lon="1.948980">
						<ele>133</ele>
						<time>2024-09-16T14:13:31Z</time>
					</trkpt>
					<trkpt lat="48.677560" lon="1.949250">
						<ele>133</ele>
						<time>2024-09-16T14:13:36Z</time>
					</trkpt>
					<trkpt lat="48.677460" lon="1.949500">
						<ele>132</ele>
						<time>2024-09-16T14:13:39Z</time>
					</trkpt>
					<trkpt lat="48.677350" lon="1.949920">
						<ele>130</ele>
						<time>2024-09-16T14:13:44Z</time>
					</trkpt>
					<trkpt lat="48.677080" lon="1.951310">
						<ele>129</ele>
						<time>2024-09-16T14:14:01Z</time>
					</trkpt>
					<trkpt lat="48.677050" lon="1.951550">
						<ele>130</ele>
						<time>2024-09-16T14:14:04Z</time>
					</trkpt>
					<trkpt lat="48.677030" lon="1.951890">
						<ele>129</ele>
						<time>2024-09-16T14:14:08Z</time>
					</trkpt>
					<trkpt lat="48.676990" lon="1.952140">
						<ele>129</ele>
						<time>2024-09-16T14:14:11Z</time>
					</trkpt>
					<trkpt lat="48.676510" lon="1.953320">
						<ele>129</ele>
						<time>2024-09-16T14:14:27Z</time>
					</trkpt>
					<trkpt lat="48.676460" lon="1.953510">
						<ele>129</ele>
						<time>2024-09-16T14:14:30Z</time>
					</trkpt>
					<trkpt lat="48.676430" lon="1.953670">
						<ele>129</ele>
						<time>2024-09-16T14:14:32Z</time>
					</trkpt>
					<trkpt lat="48.676360" lon="1.954390">
						<ele>127</ele>
						<time>2024-09-16T14:14:40Z</time>
					</trkpt>
					<trkpt lat="48.676280" lon="1.954700">
						<ele>127</ele>
						<time>2024-09-16T14:14:44Z</time>
					</trkpt>
					<trkpt lat="48.676210" lon="1.954840">
						<ele>128</ele>
						<time>2024-09-16T14:14:46Z</time>
					</trkpt>
					<trkpt lat="48.676100" lon="1.955020">
						<ele>129</ele>
						<time>2024-09-16T14:14:49Z</time>
					</trkpt>
					<trkpt lat="48.675950" lon="1.955190">
						<ele>129</ele>
						<time>2024-09-16T14:14:53Z</time>
					</trkpt>
					<trkpt lat="48.675520" lon="1.955610">
						<ele>128</ele>
						<time>2024-09-16T14:15:02Z</time>
					</trkpt>
					<trkpt lat="48.675330" lon="1.955740">
						<ele>128</ele>
						<time>2024-09-16T14:15:05Z</time>
					</trkpt>
					<trkpt lat="48.675140" lon="1.955810">
						<ele>128</ele>
						<time>2024-09-16T14:15:09Z</time>
					</trkpt>
					<trkpt lat="48.674650" lon="1.955780">
						<ele>132</ele>
						<time>2024-09-16T14:15:18Z</time>
					</trkpt>
					<trkpt lat="48.674530" lon="1.955780">
						<ele>133</ele>
						<time>2024-09-16T14:15:20Z</time>
					</trkpt>
					<trkpt lat="48.674410" lon="1.955820">
						<ele>133</ele>
						<time>2024-09-16T14:15:22Z</time>
					</trkpt>
					<trkpt lat="48.674330" lon="1.955870">
						<ele>134</ele>
						<time>2024-09-16T14:15:23Z</time>
					</trkpt>
					<trkpt lat="48.674250" lon="1.955960">
						<ele>133</ele>
						<time>2024-09-16T14:15:25Z</time>
					</trkpt>
					<trkpt lat="48.674170" lon="1.956070">
						<ele>133</ele>
						<time>2024-09-16T14:15:27Z</time>
					</trkpt>
					<trkpt lat="48.674110" lon="1.956220">
						<ele>132</ele>
						<time>2024-09-16T14:15:29Z</time>
					</trkpt>
					<trkpt lat="48.674090" lon="1.956380">
						<ele>131</ele>
						<time>2024-09-16T14:15:31Z</time>
					</trkpt>
					<trkpt lat="48.674100" lon="1.956640">
						<ele>129</ele>
						<time>2024-09-16T14:15:34Z</time>
					</trkpt>
					<trkpt lat="48.674250" lon="1.957360">
						<ele>130</ele>
						<time>2024-09-16T14:15:43Z</time>
					</trkpt>
					<trkpt lat="48.674290" lon="1.957730">
						<ele>130</ele>
						<time>2024-09-16T14:15:47Z</time>
					</trkpt>
					<trkpt lat="48.674320" lon="1.958380">
						<ele>131</ele>
						<time>2024-09-16T14:15:55Z</time>
					</trkpt>
					<trkpt lat="48.674270" lon="1.959240">
						<ele>128</ele>
						<time>2024-09-16T14:16:05Z</time>
					</trkpt>
					<trkpt lat="48.674150" lon="1.960010">
						<ele>127</ele>
						<time>2024-09-16T14:16:15Z</time>
					</trkpt>
					<trkpt lat="48.674080" lon="1.960450">
						<ele>129</ele>
						<time>2024-09-16T14:16:20Z</time>
					</trkpt>
					<trkpt lat="48.674060" lon="1.960840">
						<ele>129</ele>
						<time>2024-09-16T14:16:24Z</time>
					</trkpt>
					<trkpt lat="48.674070" lon="1.961620">
						<ele>127</ele>
						<time>2024-09-16T14:16:34Z</time>
					</trkpt>
					<trkpt lat="48.674250" lon="1.961730">
						<ele>126</ele>
						<time>2024-09-16T14:16:37Z</time>
					</trkpt>
					<trkpt lat="48.674600" lon="1.961940">
						<ele>127</ele>
						<time>2024-09-16T14:16:44Z</time>
					</trkpt>
					<trkpt lat="48.675300" lon="1.962450">
						<ele>127</ele>
						<time>2024-09-16T14:16:58Z</time>
					</trkpt>
					<trkpt lat="48.675410" lon="1.962580">
						<ele>128</ele>
						<time>2024-09-16T14:17:00Z</time>
					</trkpt>
					<trkpt lat="48.675470" lon="1.962690">
						<ele>128</ele>
						<time>2024-09-16T14:17:02Z</time>
					</trkpt>
					<trkpt lat="48.675680" lon="1.963150">
						<ele>130</ele>
						<time>2024-09-16T14:17:08Z</time>
					</trkpt>
					<trkpt lat="48.675830" lon="1.963630">
						<ele>130</ele>
						<time>2024-09-16T14:17:15Z</time>
					</trkpt>
					<trkpt lat="48.675960" lon="1.963930">
						<ele>128</ele>
						<time>2024-09-16T14:17:19Z</time>
					</trkpt>
					<trkpt lat="48.676260" lon="1.964290">
						<ele>124</ele>
						<time>2024-09-16T14:17:26Z</time>
					</trkpt>
					<trkpt lat="48.676450" lon="1.964450">
						<ele>123</ele>
						<time>2024-09-16T14:17:29Z</time>
					</trkpt>
					<trkpt lat="48.676700" lon="1.964590">
						<ele>123</ele>
						<time>2024-09-16T14:17:34Z</time>
					</trkpt>
					<trkpt lat="48.676760" lon="1.964600">
						<ele>124</ele>
						<time>2024-09-16T14:17:35Z</time>
					</trkpt>
					<trkpt lat="48.677130" lon="1.964670">
						<ele>126</ele>
						<time>2024-09-16T14:17:42Z</time>
					</trkpt>
					<trkpt lat="48.677380" lon="1.964840">
						<ele>127</ele>
						<time>2024-09-16T14:17:47Z</time>
					</trkpt>
					<trkpt lat="48.677680" lon="1.965140">
						<ele>128</ele>
						<time>2024-09-16T14:17:53Z</time>
					</trkpt>
					<trkpt lat="48.678380" lon="1.965690">
						<ele>127</ele>
						<time>2024-09-16T14:18:07Z</time>
					</trkpt>
					<trkpt lat="48.678820" lon="1.965960">
						<ele>122</ele>
						<time>2024-09-16T14:18:16Z</time>
					</trkpt>
					<trkpt lat="48.678960" lon="1.966000">
						<ele>120</ele>
						<time>2024-09-16T14:18:18Z</time>
					</trkpt>
					<trkpt lat="48.679200" lon="1.966050">
						<ele>117</ele>
						<time>2024-09-16T14:18:22Z</time>
					</trkpt>
					<trkpt lat="48.679530" lon="1.966090">
						<ele>114</ele>
						<time>2024-09-16T14:18:28Z</time>
					</trkpt>
					<trkpt lat="48.680090" lon="1.966160">
						<ele>110</ele>
						<time>2024-09-16T14:18:38Z</time>
					</trkpt>
					<trkpt lat="48.680150" lon="1.966130">
						<ele>110</ele>
						<time>2024-09-16T14:18:40Z</time>
					</trkpt>
					<trkpt lat="48.680220" lon="1.966070">
						<ele>110</ele>
						<time>2024-09-16T14:18:41Z</time>
					</trkpt>
					<trkpt lat="48.680270" lon="1.966000">
						<ele>109</ele>
						<time>2024-09-16T14:18:42Z</time>
					</trkpt>
					<trkpt lat="48.680370" lon="1.965800">
						<ele>108</ele>
						<time>2024-09-16T14:18:45Z</time>
					</trkpt>
					<trkpt lat="48.680390" lon="1.965710">
						<ele>109</ele>
						<time>2024-09-16T14:18:46Z</time>
					</trkpt>
					<trkpt lat="48.680490" lon="1.965310">
						<ele>113</ele>
						<time>2024-09-16T14:18:51Z</time>
					</trkpt>
					<trkpt lat="48.680590" lon="1.965140">
						<ele>115</ele>
						<time>2024-09-16T14:18:54Z</time>
					</trkpt>
					<trkpt lat="48.680640" lon="1.965090">
						<ele>115</ele>
						<time>2024-09-16T14:18:55Z</time>
					</trkpt>
					<trkpt lat="48.680730" lon="1.965050">
						<ele>116</ele>
						<time>2024-09-16T14:18:57Z</time>
					</trkpt>
					<trkpt lat="48.680840" lon="1.965050">
						<ele>116</ele>
						<time>2024-09-16T14:18:59Z</time>
					</trkpt>
					<trkpt lat="48.681420" lon="1.965180">
						<ele>119</ele>
						<time>2024-09-16T14:19:09Z</time>
					</trkpt>
					<trkpt lat="48.681660" lon="1.965160">
						<ele>121</ele>
						<time>2024-09-16T14:19:13Z</time>
					</trkpt>
					<trkpt lat="48.681740" lon="1.965170">
						<ele>122</ele>
						<time>2024-09-16T14:19:15Z</time>
					</trkpt>
					<trkpt lat="48.681870" lon="1.965240">
						<ele>123</ele>
						<time>2024-09-16T14:19:17Z</time>
					</trkpt>
					<trkpt lat="48.682080" lon="1.965480">
						<ele>122</ele>
						<time>2024-09-16T14:19:22Z</time>
					</trkpt>
					<trkpt lat="48.682170" lon="1.965540">
						<ele>122</ele>
						<time>2024-09-16T14:19:24Z</time>
					</trkpt>
					<trkpt lat="48.682260" lon="1.965590">
						<ele>122</ele>
						<time>2024-09-16T14:19:25Z</time>
					</trkpt>
					<trkpt lat="48.682510" lon="1.965640">
						<ele>124</ele>
						<time>2024-09-16T14:19:30Z</time>
					</trkpt>
					<trkpt lat="48.682630" lon="1.965760">
						<ele>124</ele>
						<time>2024-09-16T14:19:32Z</time>
					</trkpt>
					<trkpt lat="48.682670" lon="1.965850">
						<ele>123</ele>
						<time>2024-09-16T14:19:34Z</time>
					</trkpt>
					<trkpt lat="48.682710" lon="1.965940">
						<ele>122</ele>
						<time>2024-09-16T14:19:35Z</time>
					</trkpt>
					<trkpt lat="48.682780" lon="1.966240">
						<ele>120</ele>
						<time>2024-09-16T14:19:39Z</time>
					</trkpt>
					<trkpt lat="48.682800" lon="1.966780">
						<ele>115</ele>
						<time>2024-09-16T14:19:45Z</time>
					</trkpt>
					<trkpt lat="48.682820" lon="1.966960">
						<ele>113</ele>
						<time>2024-09-16T14:19:47Z</time>
					</trkpt>
					<trkpt lat="48.682930" lon="1.967410">
						<ele>109</ele>
						<time>2024-09-16T14:19:53Z</time>
					</trkpt>
					<trkpt lat="48.683650" lon="1.969530">
						<ele>102</ele>
						<time>2024-09-16T14:20:21Z</time>
					</trkpt>
					<trkpt lat="48.683720" lon="1.969700">
						<ele>101</ele>
						<time>2024-09-16T14:20:23Z</time>
					</trkpt>
					<trkpt lat="48.683790" lon="1.969820">
						<ele>101</ele>
						<time>2024-09-16T14:20:25Z</time>
					</trkpt>
					<trkpt lat="48.683850" lon="1.969900">
						<ele>101</ele>
						<time>2024-09-16T14:20:26Z</time>
					</trkpt>
					<trkpt lat="48.683980" lon="1.970030">
						<ele>101</ele>
						<time>2024-09-16T14:20:29Z</time>
					</trkpt>
					<trkpt lat="48.684200" lon="1.970160">
						<ele>102</ele>
						<time>2024-09-16T14:20:33Z</time>
					</trkpt>
					<trkpt lat="48.686090" lon="1.970920">
						<ele>106</ele>
						<time>2024-09-16T14:21:08Z</time>
					</trkpt>
					<trkpt lat="48.686590" lon="1.971130">
						<ele>106</ele>
						<time>2024-09-16T14:21:17Z</time>
					</trkpt>
					<trkpt lat="48.686790" lon="1.971250">
						<ele>107</ele>
						<time>2024-09-16T14:21:21Z</time>
					</trkpt>
					<trkpt lat="48.687650" lon="1.972150">
						<ele>111</ele>
						<time>2024-09-16T14:21:40Z</time>
					</trkpt>
					<trkpt lat="48.687730" lon="1.972240">
						<ele>111</ele>
						<time>2024-09-16T14:21:42Z</time>
					</trkpt>
					<trkpt lat="48.687870" lon="1.972360">
						<ele>112</ele>
						<time>2024-09-16T14:21:45Z</time>
					</trkpt>
					<trkpt lat="48.688180" lon="1.972530">
						<ele>113</ele>
						<time>2024-09-16T14:21:50Z</time>
					</trkpt>
					<trkpt lat="48.688410" lon="1.972690">
						<ele>114</ele>
						<time>2024-09-16T14:21:55Z</time>
					</trkpt>
					<trkpt lat="48.689500" lon="1.973530">
						<ele>112</ele>
						<time>2024-09-16T14:22:17Z</time>
					</trkpt>
					<trkpt lat="48.690690" lon="1.974460">
						<ele>109</ele>
						<time>2024-09-16T14:22:40Z</time>
					</trkpt>
					<trkpt lat="48.691180" lon="1.974710">
						<ele>107</ele>
						<time>2024-09-16T14:22:50Z</time>
					</trkpt>
					<trkpt lat="48.694030" lon="1.976330">
						<ele>110</ele>
						<time>2024-09-16T14:23:44Z</time>
					</trkpt>
					<trkpt lat="48.694660" lon="1.976710">
						<ele>110</ele>
						<time>2024-09-16T14:23:56Z</time>
					</trkpt>
					<trkpt lat="48.696000" lon="1.977610">
						<ele>109</ele>
						<time>2024-09-16T14:24:22Z</time>
					</trkpt>
					<trkpt lat="48.696910" lon="1.978190">
						<ele>107</ele>
						<time>2024-09-16T14:24:40Z</time>
					</trkpt>
					<trkpt lat="48.697520" lon="1.978610">
						<ele>106</ele>
						<time>2024-09-16T14:24:51Z</time>
					</trkpt>
					<trkpt lat="48.697920" lon="1.978870">
						<ele>105</ele>
						<time>2024-09-16T14:24:59Z</time>
					</trkpt>
					<trkpt lat="48.698010" lon="1.978930">
						<ele>105</ele>
						<time>2024-09-16T14:25:01Z</time>
					</trkpt>
					<trkpt lat="48.698270" lon="1.979100">
						<ele>104</ele>
						<time>2024-09-16T14:25:06Z</time>
					</trkpt>
					<trkpt lat="48.698790" lon="1.979450">
						<ele>102</ele>
						<time>2024-09-16T14:25:16Z</time>
					</trkpt>
					<trkpt lat="48.698870" lon="1.979510">
						<ele>102</ele>
						<time>2024-09-16T14:25:18Z</time>
					</trkpt>
					<trkpt lat="48.699310" lon="1.979810">
						<ele>99</ele>
						<time>2024-09-16T14:25:26Z</time>
					</trkpt>
					<trkpt lat="48.699480" lon="1.979920">
						<ele>98</ele>
						<time>2024-09-16T14:25:30Z</time>
					</trkpt>
					<trkpt lat="48.700650" lon="1.980690">
						<ele>95</ele>
						<time>2024-09-16T14:25:52Z</time>
					</trkpt>
					<trkpt lat="48.701080" lon="1.980980">
						<ele>95</ele>
						<time>2024-09-16T14:26:01Z</time>
					</trkpt>
					<trkpt lat="48.701610" lon="1.981330">
						<ele>97</ele>
						<time>2024-09-16T14:26:11Z</time>
					</trkpt>
					<trkpt lat="48.701830" lon="1.981530">
						<ele>98</ele>
						<time>2024-09-16T14:26:16Z</time>
					</trkpt>
					<trkpt lat="48.702120" lon="1.981960">
						<ele>98</ele>
						<time>2024-09-16T14:26:23Z</time>
					</trkpt>
					<trkpt lat="48.702510" lon="1.982610">
						<ele>98</ele>
						<time>2024-09-16T14:26:33Z</time>
					</trkpt>
					<trkpt lat="48.702680" lon="1.982900">
						<ele>98</ele>
						<time>2024-09-16T14:26:38Z</time>
					</trkpt>
					<trkpt lat="48.702940" lon="1.983330">
						<ele>98</ele>
						<time>2024-09-16T14:26:44Z</time>
					</trkpt>
					<trkpt lat="48.703290" lon="1.983870">
						<ele>97</ele>
						<time>2024-09-16T14:26:53Z</time>
					</trkpt>
					<trkpt lat="48.703430" lon="1.984040">
						<ele>96</ele>
						<time>2024-09-16T14:26:57Z</time>
					</trkpt>
					<trkpt lat="48.703520" lon="1.984120">
						<ele>96</ele>
						<time>2024-09-16T14:26:58Z</time>
					</trkpt>
					<trkpt lat="48.703930" lon="1.984440">
						<ele>97</ele>
						<time>2024-09-16T14:27:07Z</time>
					</trkpt>
					<trkpt lat="48.704120" lon="1.984600">
						<ele>97</ele>
						<time>2024-09-16T14:27:10Z</time>
					</trkpt>
					<trkpt lat="48.704250" lon="1.984800">
						<ele>98</ele>
						<time>2024-09-16T14:27:14Z</time>
					</trkpt>
					<trkpt lat="48.704590" lon="1.985540">
						<ele>100</ele>
						<time>2024-09-16T14:27:24Z</time>
					</trkpt>
					<trkpt lat="48.704720" lon="1.985760">
						<ele>101</ele>
						<time>2024-09-16T14:27:28Z</time>
					</trkpt>
					<trkpt lat="48.704770" lon="1.985800">
						<ele>101</ele>
						<time>2024-09-16T14:27:29Z</time>
					</trkpt>
					<trkpt lat="48.704950" lon="1.985950">
						<ele>101</ele>
						<time>2024-09-16T14:27:32Z</time>
					</trkpt>
					<trkpt lat="48.705070" lon="1.986050">
						<ele>101</ele>
						<time>2024-09-16T14:27:35Z</time>
					</trkpt>
					<trkpt lat="48.705430" lon="1.986230">
						<ele>101</ele>
						<time>2024-09-16T14:27:42Z</time>
					</trkpt>
					<trkpt lat="48.705550" lon="1.986350">
						<ele>100</ele>
						<time>2024-09-16T14:27:44Z</time>
					</trkpt>
					<trkpt lat="48.705710" lon="1.986580">
						<ele>98</ele>
						<time>2024-09-16T14:27:48Z</time>
					</trkpt>
					<trkpt lat="48.705780" lon="1.986690">
						<ele>98</ele>
						<time>2024-09-16T14:27:50Z</time>
					</trkpt>
					<trkpt lat="48.705820" lon="1.986760">
						<ele>98</ele>
						<time>2024-09-16T14:27:51Z</time>
					</trkpt>
					<trkpt lat="48.705870" lon="1.986850">
						<ele>98</ele>
						<time>2024-09-16T14:27:52Z</time>
					</trkpt>
					<trkpt lat="48.705940" lon="1.986960">
						<ele>99</ele>
						<time>2024-09-16T14:27:54Z</time>
					</trkpt>
					<trkpt lat="48.706280" lon="1.987520">
						<ele>99</ele>
						<time>2024-09-16T14:28:03Z</time>
					</trkpt>
					<trkpt lat="48.706380" lon="1.987700">
						<ele>99</ele>
						<time>2024-09-16T14:28:06Z</time>
					</trkpt>
					<trkpt lat="48.706650" lon="1.988390">
						<ele>100</ele>
						<time>2024-09-16T14:28:15Z</time>
					</trkpt>
					<trkpt lat="48.706790" lon="1.988830">
						<ele>98</ele>
						<time>2024-09-16T14:28:21Z</time>
					</trkpt>
					<trkpt lat="48.706850" lon="1.988960">
						<ele>98</ele>
						<time>2024-09-16T14:28:23Z</time>
					</trkpt>
					<trkpt lat="48.706930" lon="1.989040">
						<ele>98</ele>
						<time>2024-09-16T14:28:25Z</time>
					</trkpt>
					<trkpt lat="48.706990" lon="1.989090">
						<ele>97</ele>
						<time>2024-09-16T14:28:26Z</time>
					</trkpt>
					<trkpt lat="48.707070" lon="1.989110">
						<ele>97</ele>
						<time>2024-09-16T14:28:27Z</time>
					</trkpt>
					<trkpt lat="48.708370" lon="1.989400">
						<ele>97</ele>
						<time>2024-09-16T14:28:51Z</time>
					</trkpt>
					<trkpt lat="48.710120" lon="1.989740">
						<ele>96</ele>
						<time>2024-09-16T14:29:22Z</time>
					</trkpt>
					<trkpt lat="48.710420" lon="1.989840">
						<ele>98</ele>
						<time>2024-09-16T14:29:28Z</time>
					</trkpt>
					<trkpt lat="48.710710" lon="1.990000">
						<ele>99</ele>
						<time>2024-09-16T14:29:33Z</time>
					</trkpt>
					<trkpt lat="48.710810" lon="1.990070">
						<ele>100</ele>
						<time>2024-09-16T14:29:35Z</time>
					</trkpt>
					<trkpt lat="48.710990" lon="1.990190">
						<ele>104</ele>
						<time>2024-09-16T14:29:38Z</time>
					</trkpt>
					<trkpt lat="48.711140" lon="1.990320">
						<ele>108</ele>
						<time>2024-09-16T14:29:42Z</time>
					</trkpt>
					<trkpt lat="48.711270" lon="1.990500">
						<ele>111</ele>
						<time>2024-09-16T14:29:45Z</time>
					</trkpt>
					<trkpt lat="48.711310" lon="1.990620">
						<ele>113</ele>
						<time>2024-09-16T14:29:46Z</time>
					</trkpt>
					<trkpt lat="48.711340" lon="1.990800">
						<ele>114</ele>
						<time>2024-09-16T14:29:48Z</time>
					</trkpt>
					<trkpt lat="48.711320" lon="1.990890">
						<ele>114</ele>
						<time>2024-09-16T14:29:50Z</time>
					</trkpt>
					<trkpt lat="48.711150" lon="1.991300">
						<ele>113</ele>
						<time>2024-09-16T14:29:55Z</time>
					</trkpt>
					<trkpt lat="48.711130" lon="1.991410">
						<ele>113</ele>
						<time>2024-09-16T14:29:57Z</time>
					</trkpt>
					<trkpt lat="48.711140" lon="1.991520">
						<ele>114</ele>
						<time>2024-09-16T14:29:58Z</time>
					</trkpt>
					<trkpt lat="48.711180" lon="1.991680">
						<ele>117</ele>
						<time>2024-09-16T14:30:00Z</time>
					</trkpt>
					<trkpt lat="48.711220" lon="1.991970">
						<ele>120</ele>
						<time>2024-09-16T14:30:03Z</time>
					</trkpt>
					<trkpt lat="48.711220" lon="1.992100">
						<ele>121</ele>
						<time>2024-09-16T14:30:05Z</time>
					</trkpt>
					<trkpt lat="48.711190" lon="1.992240">
						<ele>121</ele>
						<time>2024-09-16T14:30:07Z</time>
					</trkpt>
					<trkpt lat="48.711150" lon="1.992360">
						<ele>121</ele>
						<time>2024-09-16T14:30:08Z</time>
					</trkpt>
					<trkpt lat="48.710920" lon="1.992780">
						<ele>119</ele>
						<time>2024-09-16T14:30:15Z</time>
					</trkpt>
					<trkpt lat="48.710870" lon="1.993240">
						<ele>123</ele>
						<time>2024-09-16T14:30:20Z</time>
					</trkpt>
					<trkpt lat="48.710830" lon="1.993420">
						<ele>124</ele>
						<time>2024-09-16T14:30:22Z</time>
					</trkpt>
					<trkpt lat="48.710780" lon="1.993550">
						<ele>125</ele>
						<time>2024-09-16T14:30:24Z</time>
					</trkpt>
					<trkpt lat="48.710730" lon="1.993640">
						<ele>125</ele>
						<time>2024-09-16T14:30:25Z</time>
					</trkpt>
					<trkpt lat="48.710580" lon="1.993790">
						<ele>124</ele>
						<time>2024-09-16T14:30:29Z</time>
					</trkpt>
					<trkpt lat="48.710500" lon="1.993900">
						<ele>123</ele>
						<time>2024-09-16T14:30:31Z</time>
					</trkpt>
					<trkpt lat="48.710450" lon="1.994050">
						<ele>124</ele>
						<time>2024-09-16T14:30:33Z</time>
					</trkpt>
					<trkpt lat="48.710410" lon="1.994390">
						<ele>129</ele>
						<time>2024-09-16T14:30:37Z</time>
					</trkpt>
					<trkpt lat="48.710360" lon="1.994680">
						<ele>132</ele>
						<time>2024-09-16T14:30:40Z</time>
					</trkpt>
					<trkpt lat="48.710260" lon="1.994860">
						<ele>133</ele>
						<time>2024-09-16T14:30:43Z</time>
					</trkpt>
					<trkpt lat="48.710030" lon="1.995150">
						<ele>132</ele>
						<time>2024-09-16T14:30:48Z</time>
					</trkpt>
					<trkpt lat="48.709970" lon="1.995250">
						<ele>132</ele>
						<time>2024-09-16T14:30:50Z</time>
					</trkpt>
					<trkpt lat="48.709940" lon="1.995360">
						<ele>134</ele>
						<time>2024-09-16T14:30:51Z</time>
					</trkpt>
					<trkpt lat="48.709900" lon="1.995600">
						<ele>137</ele>
						<time>2024-09-16T14:30:54Z</time>
					</trkpt>
					<trkpt lat="48.709920" lon="1.996020">
						<ele>143</ele>
						<time>2024-09-16T14:30:59Z</time>
					</trkpt>
					<trkpt lat="48.709900" lon="1.996140">
						<ele>145</ele>
						<time>2024-09-16T14:31:00Z</time>
					</trkpt>
					<trkpt lat="48.709870" lon="1.996250">
						<ele>146</ele>
						<time>2024-09-16T14:31:02Z</time>
					</trkpt>
					<trkpt lat="48.709800" lon="1.996350">
						<ele>146</ele>
						<time>2024-09-16T14:31:04Z</time>
					</trkpt>
					<trkpt lat="48.709710" lon="1.996440">
						<ele>145</ele>
						<time>2024-09-16T14:31:06Z</time>
					</trkpt>
					<trkpt lat="48.709580" lon="1.996510">
						<ele>143</ele>
						<time>2024-09-16T14:31:08Z</time>
					</trkpt>
					<trkpt lat="48.709430" lon="1.996600">
						<ele>141</ele>
						<time>2024-09-16T14:31:11Z</time>
					</trkpt>
					<trkpt lat="48.709320" lon="1.996680">
						<ele>140</ele>
						<time>2024-09-16T14:31:13Z</time>
					</trkpt>
					<trkpt lat="48.709250" lon="1.996760">
						<ele>139</ele>
						<time>2024-09-16T14:31:15Z</time>
					</trkpt>
					<trkpt lat="48.709180" lon="1.996890">
						<ele>139</ele>
						<time>2024-09-16T14:31:17Z</time>
					</trkpt>
					<trkpt lat="48.709120" lon="1.997270">
						<ele>142</ele>
						<time>2024-09-16T14:31:21Z</time>
					</trkpt>
					<trkpt lat="48.709120" lon="1.997460">
						<ele>144</ele>
						<time>2024-09-16T14:31:23Z</time>
					</trkpt>
					<trkpt lat="48.709090" lon="1.997770">
						<ele>147</ele>
						<time>2024-09-16T14:31:27Z</time>
					</trkpt>
					<trkpt lat="48.709050" lon="1.997910">
						<ele>147</ele>
						<time>2024-09-16T14:31:29Z</time>
					</trkpt>
					<trkpt lat="48.708830" lon="1.998470">
						<ele>150</ele>
						<time>2024-09-16T14:31:36Z</time>
					</trkpt>
					<trkpt lat="48.708720" lon="1.998550">
						<ele>149</ele>
						<time>2024-09-16T14:31:39Z</time>
					</trkpt>
					<trkpt lat="48.708500" lon="1.998630">
						<ele>145</ele>
						<time>2024-09-16T14:31:43Z</time>
					</trkpt>
					<trkpt lat="48.708420" lon="1.998720">
						<ele>145</ele>
						<time>2024-09-16T14:31:44Z</time>
					</trkpt>
					<trkpt lat="48.708360" lon="1.998870">
						<ele>147</ele>
						<time>2024-09-16T14:31:47Z</time>
					</trkpt>
					<trkpt lat="48.708220" lon="1.999700">
						<ele>155</ele>
						<time>2024-09-16T14:31:57Z</time>
					</trkpt>
					<trkpt lat="48.708170" lon="1.999860">
						<ele>156</ele>
						<time>2024-09-16T14:31:59Z</time>
					</trkpt>
					<trkpt lat="48.707890" lon="2.000440">
						<ele>155</ele>
						<time>2024-09-16T14:32:07Z</time>
					</trkpt>
					<trkpt lat="48.707760" lon="2.000930">
						<ele>157</ele>
						<time>2024-09-16T14:32:13Z</time>
					</trkpt>
					<trkpt lat="48.707750" lon="2.001100">
						<ele>158</ele>
						<time>2024-09-16T14:32:15Z</time>
					</trkpt>
					<trkpt lat="48.707780" lon="2.001280">
						<ele>159</ele>
						<time>2024-09-16T14:32:17Z</time>
					</trkpt>
					<trkpt lat="48.707860" lon="2.001400">
						<ele>161</ele>
						<time>2024-09-16T14:32:19Z</time>
					</trkpt>
					<trkpt lat="48.707910" lon="2.001420">
						<ele>162</ele>
						<time>2024-09-16T14:32:20Z</time>
					</trkpt>
					<trkpt lat="48.708130" lon="2.001470">
						<ele>166</ele>
						<time>2024-09-16T14:32:24Z</time>
					</trkpt>
					<trkpt lat="48.708430" lon="2.001500">
						<ele>169</ele>
						<time>2024-09-16T14:32:30Z</time>
					</trkpt>
					<trkpt lat="48.709060" lon="2.001550">
						<ele>172</ele>
						<time>2024-09-16T14:32:41Z</time>
					</trkpt>
					<trkpt lat="48.709470" lon="2.001600">
						<ele>173</ele>
						<time>2024-09-16T14:32:48Z</time>
					</trkpt>
					<trkpt lat="48.710280" lon="2.001640">
						<ele>172</ele>
						<time>2024-09-16T14:33:03Z</time>
					</trkpt>
					<trkpt lat="48.713090" lon="2.001860">
						<ele>164</ele>
						<time>2024-09-16T14:33:53Z</time>
					</trkpt>
					<trkpt lat="48.718820" lon="2.002340">
						<ele>158</ele>
						<time>2024-09-16T14:35:35Z</time>
					</trkpt>
					<trkpt lat="48.719230" lon="2.002350">
						<ele>158</ele>
						<time>2024-09-16T14:35:42Z</time>
					</trkpt>
					<trkpt lat="48.719380" lon="2.002350">
						<ele>158</ele>
						<time>2024-09-16T14:35:45Z</time>
					</trkpt>
					<trkpt lat="48.719610" lon="2.002280">
						<ele>158</ele>
						<time>2024-09-16T14:35:49Z</time>
					</trkpt>
					<trkpt lat="48.719800" lon="2.002270">
						<ele>158</ele>
						<time>2024-09-16T14:35:52Z</time>
					</trkpt>
					<trkpt lat="48.719890" lon="2.002320">
						<ele>158</ele>
						<time>2024-09-16T14:35:54Z</time>
					</trkpt>
					<trkpt lat="48.719930" lon="2.002410">
						<ele>158</ele>
						<time>2024-09-16T14:35:55Z</time>
					</trkpt>
					<trkpt lat="48.719990" lon="2.002470">
						<ele>158</ele>
						<time>2024-09-16T14:35:57Z</time>
					</trkpt>
					<trkpt lat="48.720080" lon="2.002510">
						<ele>158</ele>
						<time>2024-09-16T14:35:58Z</time>
					</trkpt>
					<trkpt lat="48.720150" lon="2.002500">
						<ele>158</ele>
						<time>2024-09-16T14:36:00Z</time>
					</trkpt>
					<trkpt lat="48.720260" lon="2.002390">
						<ele>157</ele>
						<time>2024-09-16T14:36:02Z</time>
					</trkpt>
					<trkpt lat="48.720370" lon="2.002340">
						<ele>157</ele>
						<time>2024-09-16T14:36:04Z</time>
					</trkpt>
					<trkpt lat="48.720430" lon="2.002330">
						<ele>157</ele>
						<time>2024-09-16T14:36:05Z</time>
					</trkpt>
					<trkpt lat="48.720860" lon="2.002510">
						<ele>157</ele>
						<time>2024-09-16T14:36:13Z</time>
					</trkpt>
					<trkpt lat="48.721020" lon="2.002520">
						<ele>157</ele>
						<time>2024-09-16T14:36:16Z</time>
					</trkpt>
					<trkpt lat="48.721120" lon="2.002540">
						<ele>157</ele>
						<time>2024-09-16T14:36:18Z</time>
					</trkpt>
					<trkpt lat="48.724840" lon="2.002840">
						<ele>162</ele>
						<time>2024-09-16T14:37:24Z</time>
					</trkpt>
					<trkpt lat="48.726140" lon="2.002930">
						<ele>165</ele>
						<time>2024-09-16T14:37:47Z</time>
					</trkpt>
					<trkpt lat="48.726730" lon="2.002990">
						<ele>166</ele>
						<time>2024-09-16T14:37:58Z</time>
					</trkpt>
					<trkpt lat="48.726950" lon="2.003060">
						<ele>166</ele>
						<time>2024-09-16T14:38:02Z</time>
					</trkpt>
					<trkpt lat="48.727180" lon="2.003090">
						<ele>166</ele>
						<time>2024-09-16T14:38:06Z</time>
					</trkpt>
					<trkpt lat="48.727340" lon="2.003100">
						<ele>167</ele>
						<time>2024-09-16T14:38:09Z</time>
					</trkpt>
					<trkpt lat="48.727610" lon="2.003120">
						<ele>166</ele>
						<time>2024-09-16T14:38:13Z</time>
					</trkpt>
					<trkpt lat="48.727830" lon="2.003090">
						<ele>166</ele>
						<time>2024-09-16T14:38:17Z</time>
					</trkpt>
					<trkpt lat="48.728920" lon="2.003190">
						<ele>164</ele>
						<time>2024-09-16T14:38:37Z</time>
					</trkpt>
					<trkpt lat="48.729440" lon="2.003220">
						<ele>163</ele>
						<time>2024-09-16T14:38:46Z</time>
					</trkpt>
					<trkpt lat="48.730350" lon="2.003300">
						<ele>161</ele>
						<time>2024-09-16T14:39:02Z</time>
					</trkpt>
					<trkpt lat="48.730530" lon="2.003350">
						<ele>160</ele>
						<time>2024-09-16T14:39:05Z</time>
					</trkpt>
					<trkpt lat="48.730720" lon="2.003430">
						<ele>160</ele>
						<time>2024-09-16T14:39:09Z</time>
					</trkpt>
					<trkpt lat="48.730860" lon="2.003530">
						<ele>160</ele>
						<time>2024-09-16T14:39:12Z</time>
					</trkpt>
					<trkpt lat="48.731010" lon="2.003690">
						<ele>160</ele>
						<time>2024-09-16T14:39:15Z</time>
					</trkpt>
					<trkpt lat="48.731140" lon="2.003880">
						<ele>160</ele>
						<time>2024-09-16T14:39:18Z</time>
					</trkpt>
					<trkpt lat="48.732410" lon="2.006180">
						<ele>161</ele>
						<time>2024-09-16T14:39:53Z</time>
					</trkpt>
					<trkpt lat="48.732420" lon="2.006210">
						<ele>161</ele>
						<time>2024-09-16T14:39:54Z</time>
					</trkpt>
					<trkpt lat="48.733220" lon="2.007680">
						<ele>167</ele>
						<time>2024-09-16T14:40:16Z</time>
					</trkpt>
					<trkpt lat="48.734140" lon="2.009320">
						<ele>165</ele>
						<time>2024-09-16T14:40:41Z</time>
					</trkpt>
					<trkpt lat="48.734630" lon="2.010250">
						<ele>162</ele>
						<time>2024-09-16T14:40:55Z</time>
					</trkpt>
					<trkpt lat="48.734990" lon="2.010850">
						<ele>158</ele>
						<time>2024-09-16T14:41:05Z</time>
					</trkpt>
					<trkpt lat="48.735190" lon="2.011120">
						<ele>156</ele>
						<time>2024-09-16T14:41:10Z</time>
					</trkpt>
					<trkpt lat="48.735410" lon="2.011380">
						<ele>154</ele>
						<time>2024-09-16T14:41:15Z</time>
					</trkpt>
					<trkpt lat="48.736150" lon="2.012050">
						<ele>146</ele>
						<time>2024-09-16T14:41:30Z</time>
					</trkpt>
					<trkpt lat="48.736250" lon="2.012170">
						<ele>145</ele>
						<time>2024-09-16T14:41:32Z</time>
					</trkpt>
					<trkpt lat="48.736440" lon="2.012450">
						<ele>144</ele>
						<time>2024-09-16T14:41:37Z</time>
					</trkpt>
					<trkpt lat="48.736540" lon="2.012650">
						<ele>143</ele>
						<time>2024-09-16T14:41:40Z</time>
					</trkpt>
					<trkpt lat="48.736770" lon="2.013250">
						<ele>140</ele>
						<time>2024-09-16T14:41:48Z</time>
					</trkpt>
					<trkpt lat="48.737650" lon="2.015850">
						<ele>125</ele>
						<time>2024-09-16T14:42:22Z</time>
					</trkpt>
					<trkpt lat="48.737690" lon="2.015990">
						<ele>123</ele>
						<time>2024-09-16T14:42:24Z</time>
					</trkpt>
					<trkpt lat="48.737720" lon="2.016100">
						<ele>122</ele>
						<time>2024-09-16T14:42:25Z</time>
					</trkpt>
					<trkpt lat="48.737780" lon="2.016530">
						<ele>118</ele>
						<time>2024-09-16T14:42:31Z</time>
					</trkpt>
					<trkpt lat="48.737770" lon="2.016680">
						<ele>117</ele>
						<time>2024-09-16T14:42:32Z</time>
					</trkpt>
					<trkpt lat="48.737740" lon="2.016770">
						<ele>117</ele>
						<time>2024-09-16T14:42:34Z</time>
					</trkpt>
					<trkpt lat="48.737740" lon="2.016860">
						<ele>116</ele>
						<time>2024-09-16T14:42:35Z</time>
					</trkpt>
					<trkpt lat="48.737780" lon="2.016950">
						<ele>115</ele>
						<time>2024-09-16T14:42:36Z</time>
					</trkpt>
					<trkpt lat="48.737810" lon="2.016980">
						<ele>115</ele>
						<time>2024-09-16T14:42:37Z</time>
					</trkpt>
					<trkpt lat="48.737880" lon="2.016990">
						<ele>115</ele>
						<time>2024-09-16T14:42:38Z</time>
					</trkpt>
					<trkpt lat="48.737980" lon="2.017100">
						<ele>114</ele>
						<time>2024-09-16T14:42:40Z</time>
					</trkpt>
					<trkpt lat="48.738100" lon="2.017330">
						<ele>113</ele>
						<time>2024-09-16T14:42:43Z</time>
					</trkpt>
					<trkpt lat="48.738170" lon="2.017440">
						<ele>113</ele>
						<time>2024-09-16T14:42:45Z</time>
					</trkpt>
					<trkpt lat="48.739450" lon="2.021230">
						<ele>109</ele>
						<time>2024-09-16T14:43:35Z</time>
					</trkpt>
					<trkpt lat="48.739500" lon="2.021390">
						<ele>109</ele>
						<time>2024-09-16T14:43:37Z</time>
					</trkpt>
					<trkpt lat="48.739910" lon="2.022660">
						<ele>115</ele>
						<time>2024-09-16T14:43:54Z</time>
					</trkpt>
					<trkpt lat="48.739980" lon="2.022830">
						<ele>116</ele>
						<time>2024-09-16T14:43:56Z</time>
					</trkpt>
					<trkpt lat="48.740040" lon="2.022910">
						<ele>118</ele>
						<time>2024-09-16T14:43:58Z</time>
					</trkpt>
					<trkpt lat="48.740140" lon="2.022990">
						<ele>120</ele>
						<time>2024-09-16T14:44:00Z</time>
					</trkpt>
					<trkpt lat="48.740240" lon="2.023020">
						<ele>122</ele>
						<time>2024-09-16T14:44:01Z</time>
					</trkpt>
					<trkpt lat="48.740430" lon="2.022970">
						<ele>124</ele>
						<time>2024-09-16T14:44:05Z</time>
					</trkpt>
					<trkpt lat="48.740550" lon="2.022870">
						<ele>125</ele>
						<time>2024-09-16T14:44:07Z</time>
					</trkpt>
					<trkpt lat="48.741050" lon="2.021770">
						<ele>125</ele>
						<time>2024-09-16T14:44:23Z</time>
					</trkpt>
					<trkpt lat="48.741250" lon="2.021550">
						<ele>127</ele>
						<time>2024-09-16T14:44:27Z</time>
					</trkpt>
					<trkpt lat="48.741880" lon="2.021050">
						<ele>136</ele>
						<time>2024-09-16T14:44:40Z</time>
					</trkpt>
					<trkpt lat="48.741990" lon="2.020900">
						<ele>136</ele>
						<time>2024-09-16T14:44:43Z</time>
					</trkpt>
					<trkpt lat="48.742160" lon="2.020480">
						<ele>135</ele>
						<time>2024-09-16T14:44:48Z</time>
					</trkpt>
					<trkpt lat="48.742260" lon="2.020330">
						<ele>135</ele>
						<time>2024-09-16T14:44:51Z</time>
					</trkpt>
					<trkpt lat="48.742360" lon="2.020210">
						<ele>135</ele>
						<time>2024-09-16T14:44:53Z</time>
					</trkpt>
					<trkpt lat="48.742490" lon="2.020120">
						<ele>137</ele>
						<time>2024-09-16T14:44:56Z</time>
					</trkpt>
					<trkpt lat="48.742920" lon="2.019900">
						<ele>142</ele>
						<time>2024-09-16T14:45:04Z</time>
					</trkpt>
					<trkpt lat="48.743720" lon="2.019150">
						<ele>145</ele>
						<time>2024-09-16T14:45:21Z</time>
					</trkpt>
					<trkpt lat="48.744090" lon="2.018860">
						<ele>146</ele>
						<time>2024-09-16T14:45:28Z</time>
					</trkpt>
					<trkpt lat="48.744260" lon="2.018810">
						<ele>146</ele>
						<time>2024-09-16T14:45:31Z</time>
					</trkpt>
					<trkpt lat="48.744440" lon="2.018810">
						<ele>147</ele>
						<time>2024-09-16T14:45:34Z</time>
					</trkpt>
					<trkpt lat="48.744630" lon="2.018910">
						<ele>149</ele>
						<time>2024-09-16T14:45:38Z</time>
					</trkpt>
					<trkpt lat="48.744880" lon="2.019150">
						<ele>154</ele>
						<time>2024-09-16T14:45:43Z</time>
					</trkpt>
					<trkpt lat="48.744980" lon="2.019290">
						<ele>155</ele>
						<time>2024-09-16T14:45:46Z</time>
					</trkpt>
					<trkpt lat="48.745090" lon="2.019470">
						<ele>157</ele>
						<time>2024-09-16T14:45:48Z</time>
					</trkpt>
					<trkpt lat="48.745870" lon="2.021070">
						<ele>163</ele>
						<time>2024-09-16T14:46:12Z</time>
					</trkpt>
					<trkpt lat="48.746120" lon="2.021590">
						<ele>165</ele>
						<time>2024-09-16T14:46:19Z</time>
					</trkpt>
					<trkpt lat="48.746180" lon="2.021750">
						<ele>165</ele>
						<time>2024-09-16T14:46:22Z</time>
					</trkpt>
					<trkpt lat="48.746370" lon="2.022470">
						<ele>163</ele>
						<time>2024-09-16T14:46:31Z</time>
					</trkpt>
					<trkpt lat="48.746460" lon="2.022780">
						<ele>164</ele>
						<time>2024-09-16T14:46:35Z</time>
					</trkpt>
					<trkpt lat="48.746560" lon="2.023090">
						<ele>164</ele>
						<time>2024-09-16T14:46:39Z</time>
					</trkpt>
					<trkpt lat="48.746730" lon="2.023450">
						<ele>165</ele>
						<time>2024-09-16T14:46:44Z</time>
					</trkpt>
					<trkpt lat="48.747510" lon="2.024960">
						<ele>164</ele>
						<time>2024-09-16T14:47:06Z</time>
					</trkpt>
					<trkpt lat="48.747540" lon="2.025100">
						<ele>164</ele>
						<time>2024-09-16T14:47:08Z</time>
					</trkpt>
					<trkpt lat="48.747550" lon="2.025160">
						<ele>164</ele>
						<time>2024-09-16T14:47:09Z</time>
					</trkpt>
					<trkpt lat="48.747530" lon="2.025270">
						<ele>164</ele>
						<time>2024-09-16T14:47:10Z</time>
					</trkpt>
					<trkpt lat="48.747540" lon="2.025320">
						<ele>164</ele>
						<time>2024-09-16T14:47:11Z</time>
					</trkpt>
					<trkpt lat="48.747600" lon="2.025420">
						<ele>163</ele>
						<time>2024-09-16T14:47:12Z</time>
					</trkpt>
					<trkpt lat="48.747660" lon="2.025440">
						<ele>163</ele>
						<time>2024-09-16T14:47:13Z</time>
					</trkpt>
					<trkpt lat="48.747690" lon="2.025430">
						<ele>163</ele>
						<time>2024-09-16T14:47:14Z</time>
					</trkpt>
					<trkpt lat="48.747860" lon="2.025640">
						<ele>163</ele>
						<time>2024-09-16T14:47:18Z</time>
					</trkpt>
					<trkpt lat="48.752380" lon="2.034600">
						<ele>154</ele>
						<time>2024-09-16T14:49:30Z</time>
					</trkpt>
					<trkpt lat="48.752690" lon="2.035210">
						<ele>153</ele>
						<time>2024-09-16T14:49:39Z</time>
					</trkpt>
					<trkpt lat="48.753090" lon="2.035990">
						<ele>152</ele>
						<time>2024-09-16T14:49:51Z</time>
					</trkpt>
					<trkpt lat="48.754050" lon="2.037880">
						<ele>153</ele>
						<time>2024-09-16T14:50:19Z</time>
					</trkpt>
					<trkpt lat="48.754210" lon="2.038250">
						<ele>155</ele>
						<time>2024-09-16T14:50:24Z</time>
					</trkpt>
					<trkpt lat="48.754230" lon="2.038340">
						<ele>155</ele>
						<time>2024-09-16T14:50:25Z</time>
					</trkpt>
					<trkpt lat="48.754240" lon="2.038480">
						<ele>156</ele>
						<time>2024-09-16T14:50:27Z</time>
					</trkpt>
					<trkpt lat="48.754240" lon="2.038660">
						<ele>157</ele>
						<time>2024-09-16T14:50:29Z</time>
					</trkpt>
					<trkpt lat="48.754100" lon="2.039390">
						<ele>159</ele>
						<time>2024-09-16T14:50:38Z</time>
					</trkpt>
					<trkpt lat="48.754050" lon="2.039690">
						<ele>160</ele>
						<time>2024-09-16T14:50:41Z</time>
					</trkpt>
					<trkpt lat="48.754020" lon="2.040230">
						<ele>162</ele>
						<time>2024-09-16T14:50:48Z</time>
					</trkpt>
					<trkpt lat="48.754040" lon="2.040470">
						<ele>162</ele>
						<time>2024-09-16T14:50:51Z</time>
					</trkpt>
					<trkpt lat="48.754110" lon="2.040750">
						<ele>164</ele>
						<time>2024-09-16T14:50:54Z</time>
					</trkpt>
					<trkpt lat="48.754130" lon="2.040860">
						<ele>164</ele>
						<time>2024-09-16T14:50:55Z</time>
					</trkpt>
					<trkpt lat="48.754190" lon="2.041050">
						<ele>164</ele>
						<time>2024-09-16T14:50:58Z</time>
					</trkpt>
					<trkpt lat="48.754200" lon="2.041080">
						<ele>164</ele>
						<time>2024-09-16T14:50:58Z</time>
					</trkpt>
					<trkpt lat="48.754300" lon="2.041290">
						<ele>163</ele>
						<time>2024-09-16T14:51:01Z</time>
					</trkpt>
					<trkpt lat="48.754410" lon="2.041560">
						<ele>163</ele>
						<time>2024-09-16T14:51:05Z</time>
					</trkpt>
					<trkpt lat="48.754520" lon="2.041690">
						<ele>163</ele>
						<time>2024-09-16T14:51:08Z</time>
					</trkpt>
					<trkpt lat="48.754590" lon="2.041800">
						<ele>163</ele>
						<time>2024-09-16T14:51:09Z</time>
					</trkpt>
					<trkpt lat="48.754630" lon="2.041920">
						<ele>163</ele>
						<time>2024-09-16T14:51:11Z</time>
					</trkpt>
					<trkpt lat="48.754670" lon="2.041960">
						<ele>164</ele>
						<time>2024-09-16T14:51:12Z</time>
					</trkpt>
					<trkpt lat="48.754710" lon="2.042080">
						<ele>164</ele>
						<time>2024-09-16T14:51:13Z</time>
					</trkpt>
					<trkpt lat="48.754740" lon="2.042230">
						<ele>164</ele>
						<time>2024-09-16T14:51:15Z</time>
					</trkpt>
					<trkpt lat="48.754800" lon="2.042430">
						<ele>164</ele>
						<time>2024-09-16T14:51:18Z</time>
					</trkpt>
					<trkpt lat="48.755260" lon="2.043510">
						<ele>165</ele>
						<time>2024-09-16T14:51:33Z</time>
					</trkpt>
					<trkpt lat="48.755510" lon="2.044080">
						<ele>165</ele>
						<time>2024-09-16T14:51:41Z</time>
					</trkpt>
					<trkpt lat="48.755540" lon="2.044150">
						<ele>165</ele>
						<time>2024-09-16T14:51:42Z</time>
					</trkpt>
					<trkpt lat="48.755600" lon="2.044290">
						<ele>165</ele>
						<time>2024-09-16T14:51:44Z</time>
					</trkpt>
					<trkpt lat="48.756090" lon="2.045450">
						<ele>165</ele>
						<time>2024-09-16T14:52:00Z</time>
					</trkpt>
					<trkpt lat="48.756580" lon="2.048270">
						<ele>169</ele>
						<time>2024-09-16T14:52:34Z</time>
					</trkpt>
					<trkpt lat="48.756680" lon="2.048810">
						<ele>168</ele>
						<time>2024-09-16T14:52:41Z</time>
					</trkpt>
					<trkpt lat="48.756760" lon="2.049000">
						<ele>167</ele>
						<time>2024-09-16T14:52:43Z</time>
					</trkpt>
					<trkpt lat="48.757050" lon="2.049190">
						<ele>166</ele>
						<time>2024-09-16T14:52:49Z</time>
					</trkpt>
					<trkpt lat="48.757910" lon="2.049760">
						<ele>164</ele>
						<time>2024-09-16T14:53:06Z</time>
					</trkpt>
					<trkpt lat="48.757970" lon="2.049830">
						<ele>164</ele>
						<time>2024-09-16T14:53:07Z</time>
					</trkpt>
					<trkpt lat="48.758000" lon="2.049910">
						<ele>164</ele>
						<time>2024-09-16T14:53:08Z</time>
					</trkpt>
					<trkpt lat="48.758030" lon="2.050070">
						<ele>163</ele>
						<time>2024-09-16T14:53:10Z</time>
					</trkpt>
					<trkpt lat="48.758060" lon="2.050210">
						<ele>164</ele>
						<time>2024-09-16T14:53:12Z</time>
					</trkpt>
					<trkpt lat="48.758370" lon="2.051410">
						<ele>164</ele>
						<time>2024-09-16T14:53:27Z</time>
					</trkpt>
					<trkpt lat="48.758380" lon="2.051510">
						<ele>164</ele>
						<time>2024-09-16T14:53:28Z</time>
					</trkpt>
					<trkpt lat="48.758400" lon="2.051750">
						<ele>164</ele>
						<time>2024-09-16T14:53:31Z</time>
					</trkpt>
					<trkpt lat="48.758470" lon="2.052800">
						<ele>164</ele>
						<time>2024-09-16T14:53:43Z</time>
					</trkpt>
					<trkpt lat="48.758480" lon="2.053030">
						<ele>164</ele>
						<time>2024-09-16T14:53:46Z</time>
					</trkpt>
					<trkpt lat="48.758530" lon="2.053700">
						<ele>163</ele>
						<time>2024-09-16T14:53:54Z</time>
					</trkpt>
					<trkpt lat="48.758570" lon="2.054350">
						<ele>163</ele>
						<time>2024-09-16T14:54:02Z</time>
					</trkpt>
					<trkpt lat="48.758580" lon="2.054430">
						<ele>163</ele>
						<time>2024-09-16T14:54:03Z</time>
					</trkpt>
					<trkpt lat="48.758610" lon="2.054610">
						<ele>163</ele>
						<time>2024-09-16T14:54:05Z</time>
					</trkpt>
					<trkpt lat="48.758670" lon="2.054750">
						<ele>163</ele>
						<time>2024-09-16T14:54:07Z</time>
					</trkpt>
					<trkpt lat="48.758660" lon="2.054810">
						<ele>163</ele>
						<time>2024-09-16T14:54:07Z</time>
					</trkpt>
					<trkpt lat="48.758670" lon="2.054850">
						<ele>163</ele>
						<time>2024-09-16T14:54:08Z</time>
					</trkpt>
					<trkpt lat="48.758680" lon="2.054870">
						<ele>163</ele>
						<time>2024-09-16T14:54:08Z</time>
					</trkpt>
					<trkpt lat="48.758810" lon="2.055480">
						<ele>163</ele>
						<time>2024-09-16T14:54:16Z</time>
					</trkpt>
					<trkpt lat="48.758810" lon="2.055650">
						<ele>163</ele>
						<time>2024-09-16T14:54:18Z</time>
					</trkpt>
					<trkpt lat="48.758810" lon="2.055760">
						<ele>163</ele>
						<time>2024-09-16T14:54:19Z</time>
					</trkpt>
					<trkpt lat="48.758840" lon="2.055830">
						<ele>163</ele>
						<time>2024-09-16T14:54:20Z</time>
					</trkpt>
					<trkpt lat="48.758880" lon="2.055850">
						<ele>163</ele>
						<time>2024-09-16T14:54:21Z</time>
					</trkpt>
					<trkpt lat="48.759010" lon="2.056380">
						<ele>162</ele>
						<time>2024-09-16T14:54:27Z</time>
					</trkpt>
					<trkpt lat="48.759070" lon="2.056570">
						<ele>161</ele>
						<time>2024-09-16T14:54:30Z</time>
					</trkpt>
					<trkpt lat="48.759110" lon="2.056680">
						<ele>161</ele>
						<time>2024-09-16T14:54:31Z</time>
					</trkpt>
					<trkpt lat="48.759140" lon="2.056790">
						<ele>161</ele>
						<time>2024-09-16T14:54:33Z</time>
					</trkpt>
					<trkpt lat="48.759220" lon="2.056950">
						<ele>161</ele>
						<time>2024-09-16T14:54:35Z</time>
					</trkpt>
					<trkpt lat="48.760490" lon="2.059470">
						<ele>160</ele>
						<time>2024-09-16T14:55:12Z</time>
					</trkpt>
					<trkpt lat="48.760740" lon="2.059960">
						<ele>159</ele>
						<time>2024-09-16T14:55:20Z</time>
					</trkpt>
					<trkpt lat="48.760910" lon="2.060310">
						<ele>159</ele>
						<time>2024-09-16T14:55:25Z</time>
					</trkpt>
					<trkpt lat="48.760970" lon="2.060430">
						<ele>159</ele>
						<time>2024-09-16T14:55:26Z</time>
					</trkpt>
					<trkpt lat="48.761010" lon="2.060510">
						<ele>159</ele>
						<time>2024-09-16T14:55:28Z</time>
					</trkpt>
					<trkpt lat="48.761060" lon="2.060590">
						<ele>159</ele>
						<time>2024-09-16T14:55:29Z</time>
					</trkpt>
					<trkpt lat="48.761150" lon="2.060770">
						<ele>159</ele>
						<time>2024-09-16T14:55:32Z</time>
					</trkpt>
					<trkpt lat="48.761640" lon="2.061710">
						<ele>159</ele>
						<time>2024-09-16T14:55:46Z</time>
					</trkpt>
					<trkpt lat="48.761950" lon="2.062390">
						<ele>160</ele>
						<time>2024-09-16T14:55:55Z</time>
					</trkpt>
					<trkpt lat="48.762080" lon="2.063080">
						<ele>160</ele>
						<time>2024-09-16T14:56:04Z</time>
					</trkpt>
					<trkpt lat="48.762090" lon="2.063270">
						<ele>160</ele>
						<time>2024-09-16T14:56:06Z</time>
					</trkpt>
					<trkpt lat="48.762040" lon="2.063430">
						<ele>160</ele>
						<time>2024-09-16T14:56:08Z</time>
					</trkpt>
					<trkpt lat="48.762030" lon="2.063500">
						<ele>160</ele>
						<time>2024-09-16T14:56:09Z</time>
					</trkpt>
					<trkpt lat="48.762050" lon="2.063630">
						<ele>160</ele>
						<time>2024-09-16T14:56:10Z</time>
					</trkpt>
					<trkpt lat="48.762120" lon="2.063770">
						<ele>160</ele>
						<time>2024-09-16T14:56:13Z</time>
					</trkpt>
					<trkpt lat="48.762170" lon="2.063810">
						<ele>160</ele>
						<time>2024-09-16T14:56:14Z</time>
					</trkpt>
					<trkpt lat="48.762190" lon="2.063980">
						<ele>160</ele>
						<time>2024-09-16T14:56:16Z</time>
					</trkpt>
					<trkpt lat="48.762340" lon="2.063960">
						<ele>160</ele>
						<time>2024-09-16T14:56:18Z</time>
					</trkpt>
					<trkpt lat="48.762400" lon="2.063930">
						<ele>160</ele>
						<time>2024-09-16T14:56:19Z</time>
					</trkpt>
					<trkpt lat="48.762350" lon="2.064590">
						<ele>161</ele>
						<time>2024-09-16T14:56:27Z</time>
					</trkpt>
					<trkpt lat="48.762260" lon="2.065170">
						<ele>162</ele>
						<time>2024-09-16T14:56:34Z</time>
					</trkpt>
					<trkpt lat="48.761710" lon="2.067060">
						<ele>163</ele>
						<time>2024-09-16T14:56:58Z</time>
					</trkpt>
					<trkpt lat="48.761690" lon="2.067150">
						<ele>163</ele>
						<time>2024-09-16T14:57:00Z</time>
					</trkpt>
					<trkpt lat="48.761720" lon="2.067240">
						<ele>163</ele>
						<time>2024-09-16T14:57:01Z</time>
					</trkpt>
					<trkpt lat="48.761710" lon="2.067330">
						<ele>163</ele>
						<time>2024-09-16T14:57:02Z</time>
					</trkpt>
					<trkpt lat="48.761690" lon="2.067390">
						<ele>163</ele>
						<time>2024-09-16T14:57:03Z</time>
					</trkpt>
					<trkpt lat="48.761600" lon="2.067420">
						<ele>163</ele>
						<time>2024-09-16T14:57:04Z</time>
					</trkpt>
					<trkpt lat="48.761560" lon="2.067530">
						<ele>163</ele>
						<time>2024-09-16T14:57:06Z</time>
					</trkpt>
					<trkpt lat="48.761330" lon="2.068320">
						<ele>164</ele>
						<time>2024-09-16T14:57:16Z</time>
					</trkpt>
					<trkpt lat="48.761190" lon="2.068880">
						<ele>164</ele>
						<time>2024-09-16T14:57:23Z</time>
					</trkpt>
					<trkpt lat="48.761130" lon="2.069420">
						<ele>164</ele>
						<time>2024-09-16T14:57:29Z</time>
					</trkpt>
					<trkpt lat="48.761130" lon="2.069850">
						<ele>164</ele>
						<time>2024-09-16T14:57:34Z</time>
					</trkpt>
					<trkpt lat="48.761150" lon="2.070160">
						<ele>164</ele>
						<time>2024-09-16T14:57:38Z</time>
					</trkpt>
					<trkpt lat="48.761180" lon="2.070390">
						<ele>164</ele>
						<time>2024-09-16T14:57:41Z</time>
					</trkpt>
					<trkpt lat="48.761270" lon="2.070800">
						<ele>163</ele>
						<time>2024-09-16T14:57:46Z</time>
					</trkpt>
					<trkpt lat="48.761440" lon="2.071180">
						<ele>162</ele>
						<time>2024-09-16T14:57:51Z</time>
					</trkpt>
					<trkpt lat="48.761730" lon="2.071740">
						<ele>162</ele>
						<time>2024-09-16T14:58:00Z</time>
					</trkpt>
					<trkpt lat="48.761760" lon="2.071720">
						<ele>162</ele>
						<time>2024-09-16T14:58:00Z</time>
					</trkpt>
					<trkpt lat="48.761880" lon="2.071710">
						<ele>162</ele>
						<time>2024-09-16T14:58:02Z</time>
					</trkpt>
					<trkpt lat="48.761960" lon="2.071730">
						<ele>162</ele>
						<time>2024-09-16T14:58:04Z</time>
					</trkpt>
					<trkpt lat="48.762100" lon="2.071830">
						<ele>162</ele>
						<time>2024-09-16T14:58:06Z</time>
					</trkpt>
					<trkpt lat="48.762180" lon="2.071940">
						<ele>162</ele>
						<time>2024-09-16T14:58:08Z</time>
					</trkpt>
					<trkpt lat="48.762240" lon="2.072020">
						<ele>162</ele>
						<time>2024-09-16T14:58:10Z</time>
					</trkpt>
					<trkpt lat="48.762300" lon="2.072150">
						<ele>162</ele>
						<time>2024-09-16T14:58:12Z</time>
					</trkpt>
					<trkpt lat="48.762320" lon="2.072200">
						<ele>162</ele>
						<time>2024-09-16T14:58:12Z</time>
					</trkpt>
					<trkpt lat="48.762300" lon="2.072280">
						<ele>162</ele>
						<time>2024-09-16T14:58:13Z</time>
					</trkpt>
					<trkpt lat="48.762280" lon="2.072570">
						<ele>162</ele>
						<time>2024-09-16T14:58:17Z</time>
					</trkpt>
					<trkpt lat="48.762250" lon="2.072660">
						<ele>162</ele>
						<time>2024-09-16T14:58:18Z</time>
					</trkpt>
					<trkpt lat="48.762460" lon="2.073140">
						<ele>164</ele>
						<time>2024-09-16T14:58:25Z</time>
					</trkpt>
					<trkpt lat="48.763120" lon="2.074400">
						<ele>164</ele>
						<time>2024-09-16T14:58:44Z</time>
					</trkpt>
					<trkpt lat="48.763230" lon="2.074610">
						<ele>164</ele>
						<time>2024-09-16T14:58:47Z</time>
					</trkpt>
					<trkpt lat="48.763820" lon="2.075750">
						<ele>162</ele>
						<time>2024-09-16T14:59:04Z</time>
					</trkpt>
					<trkpt lat="48.763900" lon="2.075770">
						<ele>162</ele>
						<time>2024-09-16T14:59:05Z</time>
					</trkpt>
					<trkpt lat="48.763940" lon="2.075850">
						<ele>162</ele>
						<time>2024-09-16T14:59:06Z</time>
					</trkpt>
					<trkpt lat="48.763970" lon="2.075900">
						<ele>162</ele>
						<time>2024-09-16T14:59:07Z</time>
					</trkpt>
					<trkpt lat="48.763940" lon="2.076020">
						<ele>161</ele>
						<time>2024-09-16T14:59:09Z</time>
					</trkpt>
					<trkpt lat="48.763940" lon="2.076080">
						<ele>161</ele>
						<time>2024-09-16T14:59:09Z</time>
					</trkpt>
					<trkpt lat="48.763980" lon="2.076170">
						<ele>161</ele>
						<time>2024-09-16T14:59:11Z</time>
					</trkpt>
					<trkpt lat="48.764980" lon="2.078040">
						<ele>160</ele>
						<time>2024-09-16T14:59:39Z</time>
					</trkpt>
					<trkpt lat="48.765140" lon="2.078370">
						<ele>161</ele>
						<time>2024-09-16T14:59:44Z</time>
					</trkpt>
					<trkpt lat="48.765750" lon="2.079520">
						<ele>160</ele>
						<time>2024-09-16T15:00:01Z</time>
					</trkpt>
					<trkpt lat="48.765850" lon="2.079710">
						<ele>160</ele>
						<time>2024-09-16T15:00:04Z</time>
					</trkpt>
					<trkpt lat="48.765990" lon="2.079790">
						<ele>161</ele>
						<time>2024-09-16T15:00:06Z</time>
					</trkpt>
					<trkpt lat="48.766130" lon="2.079780">
						<ele>161</ele>
						<time>2024-09-16T15:00:09Z</time>
					</trkpt>
					<trkpt lat="48.766180" lon="2.079720">
						<ele>161</ele>
						<time>2024-09-16T15:00:10Z</time>
					</trkpt>
					<trkpt lat="48.766220" lon="2.079750">
						<ele>161</ele>
						<time>2024-09-16T15:00:11Z</time>
					</trkpt>
					<trkpt lat="48.766290" lon="2.079840">
						<ele>161</ele>
						<time>2024-09-16T15:00:13Z</time>
					</trkpt>
					<trkpt lat="48.766340" lon="2.079900">
						<ele>161</ele>
						<time>2024-09-16T15:00:14Z</time>
					</trkpt>
					<trkpt lat="48.766320" lon="2.079940">
						<ele>161</ele>
						<time>2024-09-16T15:00:14Z</time>
					</trkpt>
					<trkpt lat="48.766330" lon="2.080000">
						<ele>161</ele>
						<time>2024-09-16T15:00:15Z</time>
					</trkpt>
					<trkpt lat="48.766380" lon="2.080220">
						<ele>161</ele>
						<time>2024-09-16T15:00:18Z</time>
					</trkpt>
					<trkpt lat="48.766420" lon="2.080320">
						<ele>161</ele>
						<time>2024-09-16T15:00:19Z</time>
					</trkpt>
					<trkpt lat="48.766470" lon="2.080360">
						<ele>161</ele>
						<time>2024-09-16T15:00:20Z</time>
					</trkpt>
					<trkpt lat="48.766450" lon="2.080450">
						<ele>161</ele>
						<time>2024-09-16T15:00:21Z</time>
					</trkpt>
					<trkpt lat="48.766400" lon="2.080610">
						<ele>161</ele>
						<time>2024-09-16T15:00:23Z</time>
					</trkpt>
					<trkpt lat="48.766390" lon="2.080680">
						<ele>161</ele>
						<time>2024-09-16T15:00:24Z</time>
					</trkpt>
					<trkpt lat="48.770230" lon="2.082390">
						<ele>161</ele>
						<time>2024-09-16T15:01:35Z</time>
					</trkpt>
					<trkpt lat="48.770280" lon="2.082420">
						<ele>161</ele>
						<time>2024-09-16T15:01:36Z</time>
					</trkpt>
					<trkpt lat="48.770450" lon="2.082510">
						<ele>160</ele>
						<time>2024-09-16T15:01:39Z</time>
					</trkpt>
					<trkpt lat="48.770550" lon="2.082570">
						<ele>160</ele>
						<time>2024-09-16T15:01:41Z</time>
					</trkpt>
					<trkpt lat="48.770590" lon="2.082640">
						<ele>160</ele>
						<time>2024-09-16T15:01:42Z</time>
					</trkpt>
					<trkpt lat="48.770690" lon="2.082900">
						<ele>160</ele>
						<time>2024-09-16T15:01:46Z</time>
					</trkpt>
					<trkpt lat="48.770710" lon="2.082980">
						<ele>160</ele>
						<time>2024-09-16T15:01:47Z</time>
					</trkpt>
					<trkpt lat="48.770760" lon="2.083020">
						<ele>160</ele>
						<time>2024-09-16T15:01:48Z</time>
					</trkpt>
					<trkpt lat="48.770880" lon="2.083070">
						<ele>160</ele>
						<time>2024-09-16T15:01:50Z</time>
					</trkpt>
					<trkpt lat="48.770930" lon="2.083110">
						<ele>160</ele>
						<time>2024-09-16T15:01:51Z</time>
					</trkpt>
					<trkpt lat="48.770980" lon="2.083050">
						<ele>160</ele>
						<time>2024-09-16T15:01:52Z</time>
					</trkpt>
					<trkpt lat="48.771080" lon="2.083010">
						<ele>159</ele>
						<time>2024-09-16T15:01:54Z</time>
					</trkpt>
					<trkpt lat="48.771160" lon="2.082950">
						<ele>159</ele>
						<time>2024-09-16T15:01:56Z</time>
					</trkpt>
					<trkpt lat="48.771220" lon="2.082870">
						<ele>159</ele>
						<time>2024-09-16T15:01:57Z</time>
					</trkpt>
					<trkpt lat="48.771290" lon="2.082850">
						<ele>159</ele>
						<time>2024-09-16T15:01:58Z</time>
					</trkpt>
					<trkpt lat="48.771370" lon="2.082870">
						<ele>159</ele>
						<time>2024-09-16T15:02:00Z</time>
					</trkpt>
					<trkpt lat="48.772150" lon="2.083340">
						<ele>160</ele>
						<time>2024-09-16T15:02:15Z</time>
					</trkpt>
					<trkpt lat="48.772510" lon="2.083570">
						<ele>161</ele>
						<time>2024-09-16T15:02:22Z</time>
					</trkpt>
					<trkpt lat="48.772830" lon="2.083960">
						<ele>163</ele>
						<time>2024-09-16T15:02:29Z</time>
					</trkpt>
					<trkpt lat="48.773090" lon="2.084420">
						<ele>163</ele>
						<time>2024-09-16T15:02:36Z</time>
					</trkpt>
					<trkpt lat="48.773310" lon="2.085020">
						<ele>163</ele>
						<time>2024-09-16T15:02:44Z</time>
					</trkpt>
					<trkpt lat="48.774320" lon="2.089430">
						<ele>162</ele>
						<time>2024-09-16T15:03:39Z</time>
					</trkpt>
					<trkpt lat="48.774590" lon="2.090440">
						<ele>162</ele>
						<time>2024-09-16T15:03:52Z</time>
					</trkpt>
					<trkpt lat="48.774590" lon="2.090590">
						<ele>162</ele>
						<time>2024-09-16T15:03:54Z</time>
					</trkpt>
					<trkpt lat="48.774500" lon="2.091260">
						<ele>161</ele>
						<time>2024-09-16T15:04:02Z</time>
					</trkpt>
					<trkpt lat="48.774320" lon="2.092140">
						<ele>159</ele>
						<time>2024-09-16T15:04:12Z</time>
					</trkpt>
					<trkpt lat="48.774060" lon="2.093330">
						<ele>158</ele>
						<time>2024-09-16T15:04:27Z</time>
					</trkpt>
					<trkpt lat="48.773600" lon="2.095220">
						<ele>160</ele>
						<time>2024-09-16T15:04:51Z</time>
					</trkpt>
					<trkpt lat="48.773460" lon="2.095720">
						<ele>161</ele>
						<time>2024-09-16T15:04:57Z</time>
					</trkpt>
					<trkpt lat="48.772740" lon="2.097840">
						<ele>159</ele>
						<time>2024-09-16T15:05:25Z</time>
					</trkpt>
					<trkpt lat="48.772210" lon="2.099470">
						<ele>162</ele>
						<time>2024-09-16T15:05:46Z</time>
					</trkpt>
					<trkpt lat="48.771240" lon="2.102280">
						<ele>159</ele>
						<time>2024-09-16T15:06:24Z</time>
					</trkpt>
					<trkpt lat="48.771000" lon="2.103120">
						<ele>161</ele>
						<time>2024-09-16T15:06:34Z</time>
					</trkpt>
					<trkpt lat="48.770920" lon="2.103710">
						<ele>162</ele>
						<time>2024-09-16T15:06:41Z</time>
					</trkpt>
					<trkpt lat="48.770870" lon="2.104530">
						<ele>161</ele>
						<time>2024-09-16T15:06:51Z</time>
					</trkpt>
					<trkpt lat="48.770790" lon="2.105110">
						<ele>161</ele>
						<time>2024-09-16T15:06:58Z</time>
					</trkpt>
					<trkpt lat="48.770690" lon="2.105560">
						<ele>161</ele>
						<time>2024-09-16T15:07:04Z</time>
					</trkpt>
					<trkpt lat="48.770750" lon="2.105590">
						<ele>161</ele>
						<time>2024-09-16T15:07:05Z</time>
					</trkpt>
					<trkpt lat="48.770820" lon="2.105640">
						<ele>160</ele>
						<time>2024-09-16T15:07:06Z</time>
					</trkpt>
					<trkpt lat="48.770780" lon="2.106240">
						<ele>160</ele>
						<time>2024-09-16T15:07:13Z</time>
					</trkpt>
					<trkpt lat="48.770720" lon="2.107020">
						<ele>160</ele>
						<time>2024-09-16T15:07:22Z</time>
					</trkpt>
					<trkpt lat="48.770700" lon="2.108890">
						<ele>160</ele>
						<time>2024-09-16T15:07:44Z</time>
					</trkpt>
					<trkpt lat="48.770700" lon="2.109670">
						<ele>159</ele>
						<time>2024-09-16T15:07:53Z</time>
					</trkpt>
					<trkpt lat="48.770670" lon="2.110290">
						<ele>158</ele>
						<time>2024-09-16T15:08:01Z</time>
					</trkpt>
					<trkpt lat="48.770650" lon="2.110750">
						<ele>157</ele>
						<time>2024-09-16T15:08:06Z</time>
					</trkpt>
					<trkpt lat="48.770600" lon="2.111380">
						<ele>157</ele>
						<time>2024-09-16T15:08:14Z</time>
					</trkpt>
					<trkpt lat="48.770490" lon="2.112550">
						<ele>158</ele>
						<time>2024-09-16T15:08:27Z</time>
					</trkpt>
					<trkpt lat="48.770410" lon="2.113060">
						<ele>158</ele>
						<time>2024-09-16T15:08:34Z</time>
					</trkpt>
					<trkpt lat="48.770370" lon="2.113260">
						<ele>158</ele>
						<time>2024-09-16T15:08:36Z</time>
					</trkpt>
					<trkpt lat="48.769960" lon="2.115250">
						<ele>155</ele>
						<time>2024-09-16T15:09:00Z</time>
					</trkpt>
					<trkpt lat="48.769790" lon="2.116070">
						<ele>155</ele>
						<time>2024-09-16T15:09:11Z</time>
					</trkpt>
					<trkpt lat="48.769690" lon="2.116560">
						<ele>156</ele>
						<time>2024-09-16T15:09:17Z</time>
					</trkpt>
					<trkpt lat="48.769340" lon="2.118310">
						<ele>158</ele>
						<time>2024-09-16T15:09:38Z</time>
					</trkpt>
					<trkpt lat="48.769130" lon="2.119410">
						<ele>157</ele>
						<time>2024-09-16T15:09:51Z</time>
					</trkpt>
					<trkpt lat="48.769060" lon="2.119630">
						<ele>157</ele>
						<time>2024-09-16T15:09:54Z</time>
					</trkpt>
					<trkpt lat="48.769030" lon="2.119600">
						<ele>157</ele>
						<time>2024-09-16T15:09:55Z</time>
					</trkpt>
					<trkpt lat="48.769000" lon="2.119610">
						<ele>157</ele>
						<time>2024-09-16T15:09:55Z</time>
					</trkpt>
					<trkpt lat="48.768970" lon="2.119660">
						<ele>157</ele>
						<time>2024-09-16T15:09:56Z</time>
					</trkpt>
					<trkpt lat="48.769010" lon="2.119890">
						<ele>157</ele>
						<time>2024-09-16T15:09:59Z</time>
					</trkpt>
					<trkpt lat="48.769040" lon="2.119920">
						<ele>157</ele>
						<time>2024-09-16T15:10:00Z</time>
					</trkpt>
					<trkpt lat="48.769020" lon="2.120430">
						<ele>157</ele>
						<time>2024-09-16T15:10:06Z</time>
					</trkpt>
					<trkpt lat="48.769000" lon="2.120920">
						<ele>157</ele>
						<time>2024-09-16T15:10:11Z</time>
					</trkpt>
					<trkpt lat="48.768940" lon="2.121000">
						<ele>157</ele>
						<time>2024-09-16T15:10:13Z</time>
					</trkpt>
					<trkpt lat="48.768920" lon="2.121520">
						<ele>155</ele>
						<time>2024-09-16T15:10:19Z</time>
					</trkpt>
					<trkpt lat="48.768840" lon="2.123420">
						<ele>153</ele>
						<time>2024-09-16T15:10:41Z</time>
					</trkpt>
					<trkpt lat="48.768810" lon="2.124110">
						<ele>153</ele>
						<time>2024-09-16T15:10:49Z</time>
					</trkpt>
					<trkpt lat="48.768770" lon="2.124820">
						<ele>152</ele>
						<time>2024-09-16T15:10:58Z</time>
					</trkpt>
					<trkpt lat="48.768760" lon="2.125140">
						<ele>151</ele>
						<time>2024-09-16T15:11:02Z</time>
					</trkpt>
					<trkpt lat="48.768760" lon="2.125270">
						<ele>151</ele>
						<time>2024-09-16T15:11:03Z</time>
					</trkpt>
					<trkpt lat="48.768690" lon="2.127010">
						<ele>149</ele>
						<time>2024-09-16T15:11:23Z</time>
					</trkpt>
					<trkpt lat="48.768650" lon="2.128160">
						<ele>149</ele>
						<time>2024-09-16T15:11:37Z</time>
					</trkpt>
					<trkpt lat="48.768660" lon="2.128370">
						<ele>149</ele>
						<time>2024-09-16T15:11:39Z</time>
					</trkpt>
					<trkpt lat="48.768700" lon="2.128630">
						<ele>149</ele>
						<time>2024-09-16T15:11:43Z</time>
					</trkpt>
					<trkpt lat="48.768720" lon="2.128700">
						<ele>149</ele>
						<time>2024-09-16T15:11:43Z</time>
					</trkpt>
					<trkpt lat="48.768750" lon="2.128760">
						<ele>149</ele>
						<time>2024-09-16T15:11:44Z</time>
					</trkpt>
					<trkpt lat="48.768760" lon="2.128880">
						<ele>149</ele>
						<time>2024-09-16T15:11:46Z</time>
					</trkpt>
					<trkpt lat="48.768800" lon="2.128910">
						<ele>149</ele>
						<time>2024-09-16T15:11:47Z</time>
					</trkpt>
					<trkpt lat="48.768790" lon="2.128960">
						<ele>149</ele>
						<time>2024-09-16T15:11:47Z</time>
					</trkpt>
					<trkpt lat="48.768720" lon="2.129020">
						<ele>150</ele>
						<time>2024-09-16T15:11:49Z</time>
					</trkpt>
					<trkpt lat="48.768730" lon="2.129060">
						<ele>149</ele>
						<time>2024-09-16T15:11:49Z</time>
					</trkpt>
					<trkpt lat="48.768750" lon="2.129130">
						<ele>149</ele>
						<time>2024-09-16T15:11:50Z</time>
					</trkpt>
					<trkpt lat="48.768760" lon="2.129170">
						<ele>149</ele>
						<time>2024-09-16T15:11:51Z</time>
					</trkpt>
					<trkpt lat="48.768000" lon="2.129530">
						<ele>151</ele>
						<time>2024-09-16T15:12:05Z</time>
					</trkpt>
					<trkpt lat="48.767940" lon="2.129630">
						<ele>150</ele>
						<time>2024-09-16T15:12:06Z</time>
					</trkpt>
					<trkpt lat="48.767920" lon="2.129730">
						<ele>150</ele>
						<time>2024-09-16T15:12:07Z</time>
					</trkpt>
					<trkpt lat="48.767960" lon="2.130100">
						<ele>150</ele>
						<time>2024-09-16T15:12:12Z</time>
					</trkpt>
					<trkpt lat="48.767970" lon="2.130430">
						<ele>150</ele>
						<time>2024-09-16T15:12:16Z</time>
					</trkpt>
					<trkpt lat="48.767910" lon="2.130650">
						<ele>151</ele>
						<time>2024-09-16T15:12:19Z</time>
					</trkpt>
					<trkpt lat="48.767490" lon="2.131700">
						<ele>150</ele>
						<time>2024-09-16T15:12:33Z</time>
					</trkpt>
					<trkpt lat="48.767380" lon="2.132070">
						<ele>150</ele>
						<time>2024-09-16T15:12:38Z</time>
					</trkpt>
					<trkpt lat="48.767160" lon="2.133460">
						<ele>149</ele>
						<time>2024-09-16T15:12:54Z</time>
					</trkpt>
					<trkpt lat="48.767110" lon="2.133730">
						<ele>150</ele>
						<time>2024-09-16T15:12:58Z</time>
					</trkpt>
					<trkpt lat="48.766880" lon="2.134440">
						<ele>149</ele>
						<time>2024-09-16T15:13:07Z</time>
					</trkpt>
					<trkpt lat="48.766850" lon="2.134560">
						<ele>148</ele>
						<time>2024-09-16T15:13:09Z</time>
					</trkpt>
					<trkpt lat="48.766560" lon="2.135380">
						<ele>146</ele>
						<time>2024-09-16T15:13:19Z</time>
					</trkpt>
					<trkpt lat="48.766210" lon="2.136510">
						<ele>148</ele>
						<time>2024-09-16T15:13:34Z</time>
					</trkpt>
					<trkpt lat="48.766100" lon="2.136970">
						<ele>149</ele>
						<time>2024-09-16T15:13:40Z</time>
					</trkpt>
					<trkpt lat="48.766020" lon="2.137360">
						<ele>148</ele>
						<time>2024-09-16T15:13:45Z</time>
					</trkpt>
					<trkpt lat="48.765880" lon="2.137880">
						<ele>148</ele>
						<time>2024-09-16T15:13:51Z</time>
					</trkpt>
					<trkpt lat="48.765710" lon="2.138200">
						<ele>148</ele>
						<time>2024-09-16T15:13:56Z</time>
					</trkpt>
					<trkpt lat="48.765350" lon="2.138630">
						<ele>148</ele>
						<time>2024-09-16T15:14:04Z</time>
					</trkpt>
					<trkpt lat="48.765320" lon="2.138580">
						<ele>148</ele>
						<time>2024-09-16T15:14:05Z</time>
					</trkpt>
					<trkpt lat="48.765090" lon="2.139170">
						<ele>148</ele>
						<time>2024-09-16T15:14:13Z</time>
					</trkpt>
					<trkpt lat="48.764770" lon="2.140230">
						<ele>147</ele>
						<time>2024-09-16T15:14:27Z</time>
					</trkpt>
					<trkpt lat="48.764740" lon="2.140320">
						<ele>147</ele>
						<time>2024-09-16T15:14:28Z</time>
					</trkpt>
					<trkpt lat="48.764990" lon="2.140420">
						<ele>146</ele>
						<time>2024-09-16T15:14:32Z</time>
					</trkpt>
					<trkpt lat="48.765640" lon="2.140800">
						<ele>145</ele>
						<time>2024-09-16T15:14:45Z</time>
					</trkpt>
					<trkpt lat="48.765990" lon="2.140930">
						<ele>143</ele>
						<time>2024-09-16T15:14:51Z</time>
					</trkpt>
					<trkpt lat="48.766600" lon="2.141360">
						<ele>136</ele>
						<time>2024-09-16T15:15:03Z</time>
					</trkpt>
					<trkpt lat="48.766660" lon="2.141430">
						<ele>134</ele>
						<time>2024-09-16T15:15:05Z</time>
					</trkpt>
					<trkpt lat="48.766740" lon="2.141430">
						<ele>134</ele>
						<time>2024-09-16T15:15:06Z</time>
					</trkpt>
					<trkpt lat="48.766830" lon="2.141490">
						<ele>132</ele>
						<time>2024-09-16T15:15:08Z</time>
					</trkpt>
					<trkpt lat="48.767180" lon="2.141890">
						<ele>125</ele>
						<time>2024-09-16T15:15:16Z</time>
					</trkpt>
					<trkpt lat="48.768580" lon="2.143630">
						<ele>104</ele>
						<time>2024-09-16T15:15:48Z</time>
					</trkpt>
					<trkpt lat="48.769070" lon="2.144290">
						<ele>99</ele>
						<time>2024-09-16T15:15:59Z</time>
					</trkpt>
					<trkpt lat="48.769660" lon="2.144950">
						<ele>100</ele>
						<time>2024-09-16T15:16:12Z</time>
					</trkpt>
					<trkpt lat="48.769710" lon="2.145010">
						<ele>100</ele>
						<time>2024-09-16T15:16:14Z</time>
					</trkpt>
					<trkpt lat="48.770000" lon="2.145390">
						<ele>101</ele>
						<time>2024-09-16T15:16:20Z</time>
					</trkpt>
					<trkpt lat="48.770030" lon="2.145430">
						<ele>101</ele>
						<time>2024-09-16T15:16:21Z</time>
					</trkpt>
					<trkpt lat="48.770130" lon="2.145630">
						<ele>102</ele>
						<time>2024-09-16T15:16:24Z</time>
					</trkpt>
					<trkpt lat="48.770220" lon="2.145800">
						<ele>103</ele>
						<time>2024-09-16T15:16:27Z</time>
					</trkpt>
					<trkpt lat="48.770570" lon="2.146450">
						<ele>106</ele>
						<time>2024-09-16T15:16:36Z</time>
					</trkpt>
					<trkpt lat="48.770590" lon="2.146470">
						<ele>106</ele>
						<time>2024-09-16T15:16:37Z</time>
					</trkpt>
					<trkpt lat="48.770730" lon="2.146720">
						<ele>105</ele>
						<time>2024-09-16T15:16:41Z</time>
					</trkpt>
					<trkpt lat="48.770830" lon="2.146890">
						<ele>106</ele>
						<time>2024-09-16T15:16:43Z</time>
					</trkpt>
					<trkpt lat="48.770930" lon="2.147080">
						<ele>108</ele>
						<time>2024-09-16T15:16:46Z</time>
					</trkpt>
					<trkpt lat="48.771030" lon="2.147230">
						<ele>109</ele>
						<time>2024-09-16T15:16:49Z</time>
					</trkpt>
					<trkpt lat="48.771020" lon="2.147320">
						<ele>108</ele>
						<time>2024-09-16T15:16:50Z</time>
					</trkpt>
					<trkpt lat="48.770870" lon="2.147330">
						<ele>107</ele>
						<time>2024-09-16T15:16:53Z</time>
					</trkpt>
					<trkpt lat="48.770830" lon="2.147340">
						<ele>107</ele>
						<time>2024-09-16T15:16:53Z</time>
					</trkpt>
					<trkpt lat="48.770780" lon="2.147360">
						<ele>106</ele>
						<time>2024-09-16T15:16:54Z</time>
					</trkpt>
					<trkpt lat="48.770600" lon="2.147440">
						<ele>105</ele>
						<time>2024-09-16T15:16:58Z</time>
					</trkpt>
					<trkpt lat="48.770500" lon="2.147510">
						<ele>105</ele>
						<time>2024-09-16T15:16:59Z</time>
					</trkpt>
					<trkpt lat="48.770310" lon="2.147730">
						<ele>105</ele>
						<time>2024-09-16T15:17:04Z</time>
					</trkpt>
					<trkpt lat="48.770010" lon="2.148250">
						<ele>102</ele>
						<time>2024-09-16T15:17:12Z</time>
					</trkpt>
					<trkpt lat="48.769770" lon="2.148830">
						<ele>106</ele>
						<time>2024-09-16T15:17:20Z</time>
					</trkpt>
					<trkpt lat="48.769720" lon="2.148890">
						<ele>106</ele>
						<time>2024-09-16T15:17:21Z</time>
					</trkpt>
					<trkpt lat="48.769630" lon="2.149120">
						<ele>106</ele>
						<time>2024-09-16T15:17:24Z</time>
					</trkpt>
					<trkpt lat="48.769560" lon="2.149290">
						<ele>107</ele>
						<time>2024-09-16T15:17:26Z</time>
					</trkpt>
					<trkpt lat="48.769540" lon="2.149420">
						<ele>108</ele>
						<time>2024-09-16T15:17:28Z</time>
					</trkpt>
					<trkpt lat="48.769350" lon="2.149890">
						<ele>107</ele>
						<time>2024-09-16T15:17:35Z</time>
					</trkpt>
					<trkpt lat="48.769190" lon="2.150350">
						<ele>106</ele>
						<time>2024-09-16T15:17:41Z</time>
					</trkpt>
					<trkpt lat="48.769060" lon="2.150690">
						<ele>107</ele>
						<time>2024-09-16T15:17:45Z</time>
					</trkpt>
					<trkpt lat="48.769010" lon="2.150870">
						<ele>107</ele>
						<time>2024-09-16T15:17:48Z</time>
					</trkpt>
					<trkpt lat="48.768960" lon="2.151020">
						<ele>106</ele>
						<time>2024-09-16T15:17:49Z</time>
					</trkpt>
					<trkpt lat="48.768920" lon="2.151280">
						<ele>105</ele>
						<time>2024-09-16T15:17:53Z</time>
					</trkpt>
					<trkpt lat="48.768920" lon="2.151410">
						<ele>105</ele>
						<time>2024-09-16T15:17:54Z</time>
					</trkpt>
					<trkpt lat="48.768920" lon="2.151900">
						<ele>105</ele>
						<time>2024-09-16T15:18:00Z</time>
					</trkpt>
					<trkpt lat="48.768940" lon="2.152100">
						<ele>106</ele>
						<time>2024-09-16T15:18:02Z</time>
					</trkpt>
					<trkpt lat="48.768950" lon="2.152690">
						<ele>106</ele>
						<time>2024-09-16T15:18:09Z</time>
					</trkpt>
					<trkpt lat="48.768940" lon="2.153000">
						<ele>105</ele>
						<time>2024-09-16T15:18:13Z</time>
					</trkpt>
					<trkpt lat="48.768940" lon="2.153070">
						<ele>104</ele>
						<time>2024-09-16T15:18:14Z</time>
					</trkpt>
					<trkpt lat="48.768940" lon="2.153250">
						<ele>104</ele>
						<time>2024-09-16T15:18:16Z</time>
					</trkpt>
					<trkpt lat="48.768920" lon="2.153430">
						<ele>103</ele>
						<time>2024-09-16T15:18:18Z</time>
					</trkpt>
					<trkpt lat="48.768920" lon="2.153840">
						<ele>104</ele>
						<time>2024-09-16T15:18:23Z</time>
					</trkpt>
					<trkpt lat="48.768910" lon="2.154120">
						<ele>104</ele>
						<time>2024-09-16T15:18:26Z</time>
					</trkpt>
					<trkpt lat="48.768850" lon="2.154530">
						<ele>105</ele>
						<time>2024-09-16T15:18:31Z</time>
					</trkpt>
					<trkpt lat="48.768590" lon="2.155200">
						<ele>104</ele>
						<time>2024-09-16T15:18:40Z</time>
					</trkpt>
					<trkpt lat="48.768520" lon="2.155380">
						<ele>104</ele>
						<time>2024-09-16T15:18:42Z</time>
					</trkpt>
					<trkpt lat="48.768460" lon="2.155450">
						<ele>103</ele>
						<time>2024-09-16T15:18:44Z</time>
					</trkpt>
					<trkpt lat="48.768380" lon="2.155650">
						<ele>102</ele>
						<time>2024-09-16T15:18:47Z</time>
					</trkpt>
					<trkpt lat="48.768350" lon="2.155750">
						<ele>102</ele>
						<time>2024-09-16T15:18:48Z</time>
					</trkpt>
					<trkpt lat="48.768160" lon="2.156230">
						<ele>103</ele>
						<time>2024-09-16T15:18:54Z</time>
					</trkpt>
					<trkpt lat="48.768060" lon="2.156440">
						<ele>102</ele>
						<time>2024-09-16T15:18:57Z</time>
					</trkpt>
					<trkpt lat="48.768010" lon="2.156570">
						<ele>102</ele>
						<time>2024-09-16T15:18:59Z</time>
					</trkpt>
					<trkpt lat="48.767990" lon="2.156680">
						<ele>102</ele>
						<time>2024-09-16T15:19:01Z</time>
					</trkpt>
					<trkpt lat="48.767750" lon="2.157270">
						<ele>102</ele>
						<time>2024-09-16T15:19:09Z</time>
					</trkpt>
					<trkpt lat="48.767730" lon="2.157310">
						<ele>102</ele>
						<time>2024-09-16T15:19:09Z</time>
					</trkpt>
					<trkpt lat="48.767570" lon="2.157740">
						<ele>101</ele>
						<time>2024-09-16T15:19:15Z</time>
					</trkpt>
					<trkpt lat="48.767500" lon="2.157910">
						<ele>101</ele>
						<time>2024-09-16T15:19:17Z</time>
					</trkpt>
					<trkpt lat="48.767460" lon="2.157950">
						<ele>101</ele>
						<time>2024-09-16T15:19:18Z</time>
					</trkpt>
					<trkpt lat="48.767360" lon="2.158240">
						<ele>103</ele>
						<time>2024-09-16T15:19:22Z</time>
					</trkpt>
					<trkpt lat="48.767120" lon="2.158820">
						<ele>103</ele>
						<time>2024-09-16T15:19:30Z</time>
					</trkpt>
					<trkpt lat="48.767060" lon="2.158930">
						<ele>102</ele>
						<time>2024-09-16T15:19:32Z</time>
					</trkpt>
					<trkpt lat="48.766920" lon="2.159260">
						<ele>101</ele>
						<time>2024-09-16T15:19:36Z</time>
					</trkpt>
					<trkpt lat="48.766890" lon="2.159310">
						<ele>100</ele>
						<time>2024-09-16T15:19:37Z</time>
					</trkpt>
					<trkpt lat="48.766850" lon="2.159430">
						<ele>100</ele>
						<time>2024-09-16T15:19:39Z</time>
					</trkpt>
					<trkpt lat="48.766720" lon="2.159560">
						<ele>98</ele>
						<time>2024-09-16T15:19:42Z</time>
					</trkpt>
					<trkpt lat="48.766160" lon="2.159980">
						<ele>93</ele>
						<time>2024-09-16T15:19:53Z</time>
					</trkpt>
					<trkpt lat="48.766020" lon="2.160020">
						<ele>92</ele>
						<time>2024-09-16T15:19:55Z</time>
					</trkpt>
					<trkpt lat="48.765970" lon="2.160060">
						<ele>91</ele>
						<time>2024-09-16T15:19:56Z</time>
					</trkpt>
					<trkpt lat="48.765880" lon="2.160120">
						<ele>91</ele>
						<time>2024-09-16T15:19:58Z</time>
					</trkpt>
					<trkpt lat="48.765790" lon="2.160230">
						<ele>91</ele>
						<time>2024-09-16T15:20:00Z</time>
					</trkpt>
					<trkpt lat="48.765400" lon="2.160530">
						<ele>91</ele>
						<time>2024-09-16T15:20:08Z</time>
					</trkpt>
					<trkpt lat="48.765350" lon="2.160560">
						<ele>92</ele>
						<time>2024-09-16T15:20:09Z</time>
					</trkpt>
					<trkpt lat="48.765260" lon="2.160610">
						<ele>92</ele>
						<time>2024-09-16T15:20:10Z</time>
					</trkpt>
					<trkpt lat="48.765150" lon="2.160710">
						<ele>92</ele>
						<time>2024-09-16T15:20:13Z</time>
					</trkpt>
					<trkpt lat="48.765100" lon="2.160710">
						<ele>92</ele>
						<time>2024-09-16T15:20:14Z</time>
					</trkpt>
					<trkpt lat="48.765050" lon="2.160770">
						<ele>92</ele>
						<time>2024-09-16T15:20:15Z</time>
					</trkpt>
					<trkpt lat="48.765040" lon="2.160850">
						<ele>92</ele>
						<time>2024-09-16T15:20:16Z</time>
					</trkpt>
					<trkpt lat="48.765060" lon="2.160930">
						<ele>92</ele>
						<time>2024-09-16T15:20:17Z</time>
					</trkpt>
					<trkpt lat="48.765100" lon="2.160980">
						<ele>92</ele>
						<time>2024-09-16T15:20:18Z</time>
					</trkpt>
					<trkpt lat="48.765150" lon="2.161080">
						<ele>92</ele>
						<time>2024-09-16T15:20:19Z</time>
					</trkpt>
					<trkpt lat="48.765210" lon="2.161250">
						<ele>92</ele>
						<time>2024-09-16T15:20:21Z</time>
					</trkpt>
					<trkpt lat="48.765200" lon="2.161870">
						<ele>92</ele>
						<time>2024-09-16T15:20:29Z</time>
					</trkpt>
					<trkpt lat="48.765200" lon="2.162060">
						<ele>91</ele>
						<time>2024-09-16T15:20:31Z</time>
					</trkpt>
					<trkpt lat="48.765200" lon="2.162120">
						<ele>91</ele>
						<time>2024-09-16T15:20:32Z</time>
					</trkpt>
					<trkpt lat="48.765200" lon="2.162280">
						<ele>91</ele>
						<time>2024-09-16T15:20:33Z</time>
					</trkpt>
					<trkpt lat="48.765190" lon="2.162400">
						<ele>91</ele>
						<time>2024-09-16T15:20:35Z</time>
					</trkpt>
					<trkpt lat="48.765190" lon="2.162540">
						<ele>91</ele>
						<time>2024-09-16T15:20:37Z</time>
					</trkpt>
					<trkpt lat="48.765190" lon="2.162970">
						<ele>91</ele>
						<time>2024-09-16T15:20:42Z</time>
					</trkpt>
					<trkpt lat="48.765190" lon="2.163130">
						<ele>91</ele>
						<time>2024-09-16T15:20:43Z</time>
					</trkpt>
					<trkpt lat="48.765190" lon="2.163600">
						<ele>91</ele>
						<time>2024-09-16T15:20:49Z</time>
					</trkpt>
					<trkpt lat="48.765180" lon="2.163730">
						<ele>91</ele>
						<time>2024-09-16T15:20:50Z</time>
					</trkpt>
					<trkpt lat="48.765170" lon="2.164040">
						<ele>91</ele>
						<time>2024-09-16T15:20:54Z</time>
					</trkpt>
					<trkpt lat="48.765160" lon="2.164140">
						<ele>91</ele>
						<time>2024-09-16T15:20:55Z</time>
					</trkpt>
					<trkpt lat="48.765140" lon="2.164300">
						<ele>91</ele>
						<time>2024-09-16T15:20:57Z</time>
					</trkpt>
					<trkpt lat="48.765110" lon="2.164790">
						<ele>90</ele>
						<time>2024-09-16T15:21:03Z</time>
					</trkpt>
					<trkpt lat="48.765070" lon="2.165180">
						<ele>89</ele>
						<time>2024-09-16T15:21:08Z</time>
					</trkpt>
					<trkpt lat="48.765020" lon="2.165720">
						<ele>90</ele>
						<time>2024-09-16T15:21:14Z</time>
					</trkpt>
					<trkpt lat="48.765020" lon="2.165770">
						<ele>90</ele>
						<time>2024-09-16T15:21:15Z</time>
					</trkpt>
					<trkpt lat="48.764970" lon="2.166420">
						<ele>89</ele>
						<time>2024-09-16T15:21:22Z</time>
					</trkpt>
					<trkpt lat="48.764900" lon="2.167390">
						<ele>88</ele>
						<time>2024-09-16T15:21:34Z</time>
					</trkpt>
					<trkpt lat="48.764900" lon="2.167500">
						<ele>87</ele>
						<time>2024-09-16T15:21:35Z</time>
					</trkpt>
					<trkpt lat="48.764890" lon="2.167810">
						<ele>88</ele>
						<time>2024-09-16T15:21:39Z</time>
					</trkpt>
					<trkpt lat="48.764880" lon="2.168070">
						<ele>88</ele>
						<time>2024-09-16T15:21:42Z</time>
					</trkpt>
					<trkpt lat="48.764860" lon="2.168710">
						<ele>88</ele>
						<time>2024-09-16T15:21:49Z</time>
					</trkpt>
					<trkpt lat="48.765430" lon="2.169180">
						<ele>90</ele>
						<time>2024-09-16T15:22:01Z</time>
					</trkpt>
					<trkpt lat="48.765800" lon="2.169490">
						<ele>92</ele>
						<time>2024-09-16T15:22:08Z</time>
					</trkpt>
					<trkpt lat="48.765850" lon="2.169550">
						<ele>93</ele>
						<time>2024-09-16T15:22:09Z</time>
					</trkpt>
					<trkpt lat="48.765920" lon="2.169630">
						<ele>94</ele>
						<time>2024-09-16T15:22:11Z</time>
					</trkpt>
					<trkpt lat="48.766210" lon="2.169870">
						<ele>98</ele>
						<time>2024-09-16T15:22:17Z</time>
					</trkpt>
					<trkpt lat="48.766300" lon="2.169940">
						<ele>99</ele>
						<time>2024-09-16T15:22:19Z</time>
					</trkpt>
					<trkpt lat="48.766450" lon="2.170070">
						<ele>100</ele>
						<time>2024-09-16T15:22:22Z</time>
					</trkpt>
					<trkpt lat="48.766650" lon="2.170360">
						<ele>102</ele>
						<time>2024-09-16T15:22:27Z</time>
					</trkpt>
					<trkpt lat="48.767020" lon="2.170920">
						<ele>107</ele>
						<time>2024-09-16T15:22:36Z</time>
					</trkpt>
					<trkpt lat="48.767170" lon="2.171120">
						<ele>108</ele>
						<time>2024-09-16T15:22:40Z</time>
					</trkpt>
					<trkpt lat="48.767360" lon="2.171330">
						<ele>110</ele>
						<time>2024-09-16T15:22:44Z</time>
					</trkpt>
					<trkpt lat="48.769370" lon="2.172660">
						<ele>120</ele>
						<time>2024-09-16T15:23:23Z</time>
					</trkpt>
					<trkpt lat="48.769620" lon="2.172830">
						<ele>121</ele>
						<time>2024-09-16T15:23:28Z</time>
					</trkpt>
					<trkpt lat="48.771120" lon="2.173820">
						<ele>130</ele>
						<time>2024-09-16T15:23:57Z</time>
					</trkpt>
					<trkpt lat="48.771270" lon="2.173910">
						<ele>131</ele>
						<time>2024-09-16T15:24:00Z</time>
					</trkpt>
					<trkpt lat="48.771420" lon="2.173880">
						<ele>132</ele>
						<time>2024-09-16T15:24:02Z</time>
					</trkpt>
					<trkpt lat="48.771520" lon="2.173810">
						<ele>133</ele>
						<time>2024-09-16T15:24:04Z</time>
					</trkpt>
					<trkpt lat="48.771590" lon="2.173710">
						<ele>133</ele>
						<time>2024-09-16T15:24:06Z</time>
					</trkpt>
					<trkpt lat="48.771660" lon="2.173540">
						<ele>132</ele>
						<time>2024-09-16T15:24:08Z</time>
					</trkpt>
					<trkpt lat="48.771870" lon="2.173000">
						<ele>134</ele>
						<time>2024-09-16T15:24:16Z</time>
					</trkpt>
					<trkpt lat="48.771920" lon="2.172920">
						<ele>134</ele>
						<time>2024-09-16T15:24:17Z</time>
					</trkpt>
					<trkpt lat="48.772070" lon="2.172770">
						<ele>135</ele>
						<time>2024-09-16T15:24:20Z</time>
					</trkpt>
					<trkpt lat="48.772250" lon="2.172670">
						<ele>135</ele>
						<time>2024-09-16T15:24:24Z</time>
					</trkpt>
					<trkpt lat="48.772430" lon="2.172660">
						<ele>135</ele>
						<time>2024-09-16T15:24:27Z</time>
					</trkpt>
					<trkpt lat="48.772700" lon="2.172730">
						<ele>137</ele>
						<time>2024-09-16T15:24:32Z</time>
					</trkpt>
					<trkpt lat="48.773450" lon="2.173030">
						<ele>142</ele>
						<time>2024-09-16T15:24:45Z</time>
					</trkpt>
					<trkpt lat="48.773640" lon="2.173030">
						<ele>143</ele>
						<time>2024-09-16T15:24:49Z</time>
					</trkpt>
					<trkpt lat="48.773830" lon="2.172970">
						<ele>143</ele>
						<time>2024-09-16T15:24:52Z</time>
					</trkpt>
					<trkpt lat="48.774170" lon="2.172760">
						<ele>144</ele>
						<time>2024-09-16T15:24:59Z</time>
					</trkpt>
					<trkpt lat="48.774350" lon="2.172600">
						<ele>146</ele>
						<time>2024-09-16T15:25:02Z</time>
					</trkpt>
					<trkpt lat="48.774440" lon="2.172490">
						<ele>147</ele>
						<time>2024-09-16T15:25:05Z</time>
					</trkpt>
					<trkpt lat="48.774890" lon="2.171650">
						<ele>156</ele>
						<time>2024-09-16T15:25:17Z</time>
					</trkpt>
					<trkpt lat="48.775030" lon="2.171480">
						<ele>158</ele>
						<time>2024-09-16T15:25:20Z</time>
					</trkpt>
					<trkpt lat="48.775290" lon="2.171250">
						<ele>160</ele>
						<time>2024-09-16T15:25:26Z</time>
					</trkpt>
					<trkpt lat="48.775650" lon="2.171030">
						<ele>164</ele>
						<time>2024-09-16T15:25:33Z</time>
					</trkpt>
					<trkpt lat="48.775770" lon="2.170980">
						<ele>165</ele>
						<time>2024-09-16T15:25:35Z</time>
					</trkpt>
					<trkpt lat="48.776010" lon="2.170990">
						<ele>165</ele>
						<time>2024-09-16T15:25:39Z</time>
					</trkpt>
					<trkpt lat="48.776610" lon="2.171210">
						<ele>165</ele>
						<time>2024-09-16T15:25:50Z</time>
					</trkpt>
					<trkpt lat="48.776750" lon="2.171220">
						<ele>166</ele>
						<time>2024-09-16T15:25:53Z</time>
					</trkpt>
					<trkpt lat="48.776920" lon="2.171140">
						<ele>166</ele>
						<time>2024-09-16T15:25:56Z</time>
					</trkpt>
					<trkpt lat="48.778700" lon="2.169270">
						<ele>170</ele>
						<time>2024-09-16T15:26:34Z</time>
					</trkpt>
					<trkpt lat="48.778830" lon="2.169170">
						<ele>171</ele>
						<time>2024-09-16T15:26:37Z</time>
					</trkpt>
					<trkpt lat="48.779030" lon="2.169110">
						<ele>171</ele>
						<time>2024-09-16T15:26:41Z</time>
					</trkpt>
					<trkpt lat="48.779740" lon="2.169090">
						<ele>173</ele>
						<time>2024-09-16T15:26:53Z</time>
					</trkpt>
					<trkpt lat="48.780280" lon="2.169070">
						<ele>174</ele>
						<time>2024-09-16T15:27:03Z</time>
					</trkpt>
					<trkpt lat="48.780300" lon="2.169150">
						<ele>174</ele>
						<time>2024-09-16T15:27:04Z</time>
					</trkpt>
					<trkpt lat="48.780350" lon="2.169220">
						<ele>174</ele>
						<time>2024-09-16T15:27:05Z</time>
					</trkpt>
					<trkpt lat="48.780420" lon="2.169480">
						<ele>174</ele>
						<time>2024-09-16T15:27:08Z</time>
					</trkpt>
					<trkpt lat="48.780430" lon="2.169790">
						<ele>174</ele>
						<time>2024-09-16T15:27:12Z</time>
					</trkpt>
					<trkpt lat="48.780410" lon="2.169950">
						<ele>174</ele>
						<time>2024-09-16T15:27:14Z</time>
					</trkpt>
					<trkpt lat="48.780330" lon="2.170270">
						<ele>173</ele>
						<time>2024-09-16T15:27:18Z</time>
					</trkpt>
					<trkpt lat="48.780260" lon="2.170500">
						<ele>173</ele>
						<time>2024-09-16T15:27:21Z</time>
					</trkpt>
					<trkpt lat="48.780140" lon="2.170780">
						<ele>173</ele>
						<time>2024-09-16T15:27:25Z</time>
					</trkpt>
					<trkpt lat="48.780050" lon="2.170940">
						<ele>172</ele>
						<time>2024-09-16T15:27:27Z</time>
					</trkpt>
					<trkpt lat="48.779970" lon="2.171060">
						<ele>172</ele>
						<time>2024-09-16T15:27:29Z</time>
					</trkpt>
					<trkpt lat="48.779870" lon="2.171210">
						<ele>173</ele>
						<time>2024-09-16T15:27:32Z</time>
					</trkpt>
					<trkpt lat="48.779490" lon="2.171750">
						<ele>176</ele>
						<time>2024-09-16T15:27:41Z</time>
					</trkpt>
					<trkpt lat="48.779320" lon="2.172180">
						<ele>177</ele>
						<time>2024-09-16T15:27:47Z</time>
					</trkpt>
					<trkpt lat="48.779260" lon="2.172490">
						<ele>178</ele>
						<time>2024-09-16T15:27:51Z</time>
					</trkpt>
					<trkpt lat="48.779220" lon="2.172840">
						<ele>178</ele>
						<time>2024-09-16T15:27:55Z</time>
					</trkpt>
					<trkpt lat="48.779240" lon="2.174070">
						<ele>177</ele>
						<time>2024-09-16T15:28:09Z</time>
					</trkpt>
					<trkpt lat="48.779210" lon="2.174560">
						<ele>176</ele>
						<time>2024-09-16T15:28:15Z</time>
					</trkpt>
					<trkpt lat="48.779280" lon="2.174710">
						<ele>176</ele>
						<time>2024-09-16T15:28:17Z</time>
					</trkpt>
					<trkpt lat="48.779320" lon="2.174780">
						<ele>176</ele>
						<time>2024-09-16T15:28:18Z</time>
					</trkpt>
					<trkpt lat="48.779350" lon="2.174800">
						<ele>176</ele>
						<time>2024-09-16T15:28:19Z</time>
					</trkpt>
					<trkpt lat="48.779540" lon="2.174820">
						<ele>175</ele>
						<time>2024-09-16T15:28:22Z</time>
					</trkpt>
					<trkpt lat="48.779710" lon="2.174730">
						<ele>175</ele>
						<time>2024-09-16T15:28:25Z</time>
					</trkpt>
					<trkpt lat="48.780120" lon="2.174340">
						<ele>174</ele>
						<time>2024-09-16T15:28:34Z</time>
					</trkpt>
					<trkpt lat="48.780350" lon="2.174120">
						<ele>175</ele>
						<time>2024-09-16T15:28:39Z</time>
					</trkpt>
					<trkpt lat="48.780450" lon="2.174050">
						<ele>176</ele>
						<time>2024-09-16T15:28:41Z</time>
					</trkpt>
					<trkpt lat="48.780570" lon="2.174050">
						<ele>176</ele>
						<time>2024-09-16T15:28:43Z</time>
					</trkpt>
					<trkpt lat="48.780820" lon="2.174070">
						<ele>177</ele>
						<time>2024-09-16T15:28:47Z</time>
					</trkpt>
					<trkpt lat="48.781150" lon="2.174120">
						<ele>178</ele>
						<time>2024-09-16T15:28:53Z</time>
					</trkpt>
					<trkpt lat="48.781190" lon="2.174130">
						<ele>178</ele>
						<time>2024-09-16T15:28:54Z</time>
					</trkpt>
					<trkpt lat="48.781380" lon="2.174080">
						<ele>178</ele>
						<time>2024-09-16T15:28:57Z</time>
					</trkpt>
					<trkpt lat="48.781770" lon="2.173790">
						<ele>177</ele>
						<time>2024-09-16T15:29:05Z</time>
					</trkpt>
					<trkpt lat="48.781920" lon="2.173730">
						<ele>177</ele>
						<time>2024-09-16T15:29:08Z</time>
					</trkpt>
					<trkpt lat="48.782050" lon="2.173730">
						<ele>177</ele>
						<time>2024-09-16T15:29:10Z</time>
					</trkpt>
					<trkpt lat="48.782130" lon="2.173760">
						<ele>177</ele>
						<time>2024-09-16T15:29:12Z</time>
					</trkpt>
					<trkpt lat="48.782270" lon="2.173870">
						<ele>177</ele>
						<time>2024-09-16T15:29:15Z</time>
					</trkpt>
					<trkpt lat="48.782360" lon="2.173990">
						<ele>177</ele>
						<time>2024-09-16T15:29:17Z</time>
					</trkpt>
					<trkpt lat="48.782460" lon="2.174220">
						<ele>176</ele>
						<time>2024-09-16T15:29:20Z</time>
					</trkpt>
					<trkpt lat="48.782530" lon="2.174530">
						<ele>176</ele>
						<time>2024-09-16T15:29:24Z</time>
					</trkpt>
					<trkpt lat="48.782610" lon="2.174810">
						<ele>175</ele>
						<time>2024-09-16T15:29:27Z</time>
					</trkpt>
					<trkpt lat="48.782660" lon="2.174950">
						<ele>175</ele>
						<time>2024-09-16T15:29:29Z</time>
					</trkpt>
					<trkpt lat="48.782700" lon="2.175040">
						<ele>176</ele>
						<time>2024-09-16T15:29:30Z</time>
					</trkpt>
					<trkpt lat="48.783080" lon="2.175700">
						<ele>176</ele>
						<time>2024-09-16T15:29:41Z</time>
					</trkpt>
					<trkpt lat="48.783190" lon="2.175890">
						<ele>176</ele>
						<time>2024-09-16T15:29:44Z</time>
					</trkpt>
					<trkpt lat="48.783300" lon="2.176070">
						<ele>176</ele>
						<time>2024-09-16T15:29:47Z</time>
					</trkpt>
					<trkpt lat="48.783350" lon="2.176160">
						<ele>176</ele>
						<time>2024-09-16T15:29:48Z</time>
					</trkpt>
					<trkpt lat="48.783380" lon="2.176200">
						<ele>176</ele>
						<time>2024-09-16T15:29:49Z</time>
					</trkpt>
					<trkpt lat="48.783550" lon="2.176500">
						<ele>177</ele>
						<time>2024-09-16T15:29:53Z</time>
					</trkpt>
					<trkpt lat="48.783740" lon="2.176810">
						<ele>177</ele>
						<time>2024-09-16T15:29:58Z</time>
					</trkpt>
					<trkpt lat="48.783810" lon="2.176920">
						<ele>177</ele>
						<time>2024-09-16T15:30:00Z</time>
					</trkpt>
					<trkpt lat="48.783840" lon="2.176970">
						<ele>177</ele>
						<time>2024-09-16T15:30:01Z</time>
					</trkpt>
					<trkpt lat="48.783870" lon="2.177020">
						<ele>177</ele>
						<time>2024-09-16T15:30:02Z</time>
					</trkpt>
					<trkpt lat="48.783880" lon="2.177040">
						<ele>177</ele>
						<time>2024-09-16T15:30:02Z</time>
					</trkpt>
					<trkpt lat="48.784250" lon="2.177670">
						<ele>177</ele>
						<time>2024-09-16T15:30:12Z</time>
					</trkpt>
					<trkpt lat="48.784760" lon="2.178570">
						<ele>178</ele>
						<time>2024-09-16T15:30:26Z</time>
					</trkpt>
					<trkpt lat="48.784800" lon="2.178630">
						<ele>178</ele>
						<time>2024-09-16T15:30:27Z</time>
					</trkpt>
					<trkpt lat="48.784880" lon="2.178780">
						<ele>178</ele>
						<time>2024-09-16T15:30:29Z</time>
					</trkpt>
					<trkpt lat="48.785160" lon="2.179260">
						<ele>179</ele>
						<time>2024-09-16T15:30:37Z</time>
					</trkpt>
					<trkpt lat="48.785180" lon="2.179290">
						<ele>178</ele>
						<time>2024-09-16T15:30:37Z</time>
					</trkpt>
					<trkpt lat="48.785300" lon="2.179450">
						<ele>178</ele>
						<time>2024-09-16T15:30:40Z</time>
					</trkpt>
					<trkpt lat="48.785320" lon="2.179550">
						<ele>178</ele>
						<time>2024-09-16T15:30:41Z</time>
					</trkpt>
					<trkpt lat="48.785400" lon="2.179660">
						<ele>177</ele>
						<time>2024-09-16T15:30:43Z</time>
					</trkpt>
					<trkpt lat="48.785390" lon="2.179750">
						<ele>177</ele>
						<time>2024-09-16T15:30:44Z</time>
					</trkpt>
					<trkpt lat="48.785460" lon="2.179770">
						<ele>177</ele>
						<time>2024-09-16T15:30:45Z</time>
					</trkpt>
					<trkpt lat="48.785540" lon="2.179760">
						<ele>177</ele>
						<time>2024-09-16T15:30:47Z</time>
					</trkpt>
					<trkpt lat="48.785660" lon="2.179760">
						<ele>177</ele>
						<time>2024-09-16T15:30:49Z</time>
					</trkpt>
					<trkpt lat="48.786130" lon="2.179690">
						<ele>176</ele>
						<time>2024-09-16T15:30:57Z</time>
					</trkpt>
					<trkpt lat="48.787730" lon="2.179490">
						<ele>175</ele>
						<time>2024-09-16T15:31:26Z</time>
					</trkpt>
					<trkpt lat="48.788180" lon="2.179440">
						<ele>174</ele>
						<time>2024-09-16T15:31:34Z</time>
					</trkpt>
					<trkpt lat="48.788200" lon="2.179440">
						<ele>174</ele>
						<time>2024-09-16T15:31:34Z</time>
					</trkpt>
					<trkpt lat="48.788280" lon="2.179430">
						<ele>174</ele>
						<time>2024-09-16T15:31:36Z</time>
					</trkpt>
					<trkpt lat="48.788370" lon="2.179450">
						<ele>174</ele>
						<time>2024-09-16T15:31:37Z</time>
					</trkpt>
					<trkpt lat="48.788350" lon="2.179570">
						<ele>174</ele>
						<time>2024-09-16T15:31:39Z</time>
					</trkpt>
					<trkpt lat="48.788350" lon="2.179620">
						<ele>174</ele>
						<time>2024-09-16T15:31:39Z</time>
					</trkpt>
					<trkpt lat="48.788360" lon="2.179690">
						<ele>174</ele>
						<time>2024-09-16T15:31:40Z</time>
					</trkpt>
					<trkpt lat="48.788490" lon="2.179680">
						<ele>174</ele>
						<time>2024-09-16T15:31:43Z</time>
					</trkpt>
					<trkpt lat="48.788940" lon="2.179840">
						<ele>175</ele>
						<time>2024-09-16T15:31:51Z</time>
					</trkpt>
					<trkpt lat="48.790350" lon="2.180160">
						<ele>167</ele>
						<time>2024-09-16T15:32:16Z</time>
					</trkpt>
					<trkpt lat="48.790850" lon="2.180160">
						<ele>162</ele>
						<time>2024-09-16T15:32:25Z</time>
					</trkpt>
					<trkpt lat="48.791010" lon="2.180130">
						<ele>161</ele>
						<time>2024-09-16T15:32:28Z</time>
					</trkpt>
					<trkpt lat="48.791320" lon="2.180030">
						<ele>159</ele>
						<time>2024-09-16T15:32:34Z</time>
					</trkpt>
					<trkpt lat="48.792810" lon="2.179360">
						<ele>144</ele>
						<time>2024-09-16T15:33:01Z</time>
					</trkpt>
					<trkpt lat="48.793050" lon="2.179300">
						<ele>142</ele>
						<time>2024-09-16T15:33:06Z</time>
					</trkpt>
					<trkpt lat="48.793210" lon="2.179280">
						<ele>141</ele>
						<time>2024-09-16T15:33:08Z</time>
					</trkpt>
					<trkpt lat="48.793710" lon="2.179350">
						<ele>137</ele>
						<time>2024-09-16T15:33:17Z</time>
					</trkpt>
					<trkpt lat="48.793980" lon="2.179460">
						<ele>135</ele>
						<time>2024-09-16T15:33:22Z</time>
					</trkpt>
					<trkpt lat="48.794300" lon="2.179670">
						<ele>132</ele>
						<time>2024-09-16T15:33:28Z</time>
					</trkpt>
					<trkpt lat="48.794600" lon="2.179960">
						<ele>130</ele>
						<time>2024-09-16T15:33:35Z</time>
					</trkpt>
					<trkpt lat="48.795170" lon="2.180610">
						<ele>129</ele>
						<time>2024-09-16T15:33:47Z</time>
					</trkpt>
					<trkpt lat="48.795230" lon="2.180590">
						<ele>129</ele>
						<time>2024-09-16T15:33:49Z</time>
					</trkpt>
					<trkpt lat="48.795500" lon="2.180900">
						<ele>126</ele>
						<time>2024-09-16T15:33:55Z</time>
					</trkpt>
					<trkpt lat="48.795590" lon="2.180990">
						<ele>125</ele>
						<time>2024-09-16T15:33:57Z</time>
					</trkpt>
					<trkpt lat="48.795720" lon="2.181130">
						<ele>123</ele>
						<time>2024-09-16T15:33:59Z</time>
					</trkpt>
					<trkpt lat="48.795800" lon="2.181220">
						<ele>121</ele>
						<time>2024-09-16T15:34:01Z</time>
					</trkpt>
					<trkpt lat="48.796000" lon="2.181440">
						<ele>119</ele>
						<time>2024-09-16T15:34:06Z</time>
					</trkpt>
					<trkpt lat="48.796250" lon="2.181790">
						<ele>118</ele>
						<time>2024-09-16T15:34:12Z</time>
					</trkpt>
					<trkpt lat="48.797150" lon="2.182840">
						<ele>112</ele>
						<time>2024-09-16T15:34:32Z</time>
					</trkpt>
					<trkpt lat="48.797210" lon="2.182900">
						<ele>112</ele>
						<time>2024-09-16T15:34:33Z</time>
					</trkpt>
					<trkpt lat="48.797620" lon="2.183400">
						<ele>110</ele>
						<time>2024-09-16T15:34:42Z</time>
					</trkpt>
					<trkpt lat="48.798250" lon="2.184110">
						<ele>106</ele>
						<time>2024-09-16T15:34:56Z</time>
					</trkpt>
					<trkpt lat="48.798950" lon="2.184930">
						<ele>103</ele>
						<time>2024-09-16T15:35:12Z</time>
					</trkpt>
					<trkpt lat="48.799140" lon="2.185130">
						<ele>103</ele>
						<time>2024-09-16T15:35:16Z</time>
					</trkpt>
					<trkpt lat="48.799340" lon="2.185380">
						<ele>102</ele>
						<time>2024-09-16T15:35:21Z</time>
					</trkpt>
					<trkpt lat="48.799430" lon="2.185490">
						<ele>102</ele>
						<time>2024-09-16T15:35:23Z</time>
					</trkpt>
					<trkpt lat="48.799450" lon="2.185510">
						<ele>102</ele>
						<time>2024-09-16T15:35:23Z</time>
					</trkpt>
					<trkpt lat="48.799490" lon="2.185550">
						<ele>102</ele>
						<time>2024-09-16T15:35:24Z</time>
					</trkpt>
					<trkpt lat="48.799590" lon="2.185660">
						<ele>102</ele>
						<time>2024-09-16T15:35:26Z</time>
					</trkpt>
					<trkpt lat="48.799970" lon="2.186070">
						<ele>102</ele>
						<time>2024-09-16T15:35:35Z</time>
					</trkpt>
					<trkpt lat="48.800280" lon="2.186420">
						<ele>101</ele>
						<time>2024-09-16T15:35:42Z</time>
					</trkpt>
					<trkpt lat="48.800530" lon="2.186720">
						<ele>99</ele>
						<time>2024-09-16T15:35:47Z</time>
					</trkpt>
					<trkpt lat="48.800620" lon="2.187270">
						<ele>98</ele>
						<time>2024-09-16T15:35:54Z</time>
					</trkpt>
					<trkpt lat="48.800610" lon="2.187310">
						<ele>98</ele>
						<time>2024-09-16T15:35:54Z</time>
					</trkpt>
					<trkpt lat="48.800540" lon="2.189010">
						<ele>104</ele>
						<time>2024-09-16T15:36:14Z</time>
					</trkpt>
					<trkpt lat="48.800530" lon="2.189170">
						<ele>105</ele>
						<time>2024-09-16T15:36:16Z</time>
					</trkpt>
					<trkpt lat="48.800500" lon="2.189160">
						<ele>105</ele>
						<time>2024-09-16T15:36:17Z</time>
					</trkpt>
					<trkpt lat="48.800470" lon="2.189180">
						<ele>104</ele>
						<time>2024-09-16T15:36:17Z</time>
					</trkpt>
					<trkpt lat="48.800460" lon="2.189230">
						<ele>105</ele>
						<time>2024-09-16T15:36:18Z</time>
					</trkpt>
					<trkpt lat="48.800470" lon="2.189270">
						<ele>105</ele>
						<time>2024-09-16T15:36:18Z</time>
					</trkpt>
					<trkpt lat="48.800490" lon="2.189300">
						<ele>105</ele>
						<time>2024-09-16T15:36:19Z</time>
					</trkpt>
					<trkpt lat="48.800530" lon="2.189290">
						<ele>106</ele>
						<time>2024-09-16T15:36:20Z</time>
					</trkpt>
					<trkpt lat="48.800560" lon="2.189340">
						<ele>107</ele>
						<time>2024-09-16T15:36:20Z</time>
					</trkpt>
					<trkpt lat="48.800540" lon="2.189770">
						<ele>110</ele>
						<time>2024-09-16T15:36:25Z</time>
					</trkpt>
					<trkpt lat="48.800450" lon="2.192630">
						<ele>119</ele>
						<time>2024-09-16T15:36:59Z</time>
					</trkpt>
					<trkpt lat="48.800450" lon="2.192860">
						<ele>119</ele>
						<time>2024-09-16T15:37:02Z</time>
					</trkpt>
					<trkpt lat="48.800510" lon="2.193070">
						<ele>120</ele>
						<time>2024-09-16T15:37:04Z</time>
					</trkpt>
					<trkpt lat="48.800600" lon="2.193240">
						<ele>122</ele>
						<time>2024-09-16T15:37:07Z</time>
					</trkpt>
					<trkpt lat="48.800710" lon="2.193360">
						<ele>123</ele>
						<time>2024-09-16T15:37:09Z</time>
					</trkpt>
					<trkpt lat="48.800820" lon="2.193430">
						<ele>125</ele>
						<time>2024-09-16T15:37:12Z</time>
					</trkpt>
					<trkpt lat="48.802520" lon="2.194140">
						<ele>137</ele>
						<time>2024-09-16T15:37:43Z</time>
					</trkpt>
					<trkpt lat="48.803530" lon="2.194560">
						<ele>141</ele>
						<time>2024-09-16T15:38:02Z</time>
					</trkpt>
					<trkpt lat="48.804270" lon="2.194880">
						<ele>142</ele>
						<time>2024-09-16T15:38:15Z</time>
					</trkpt>
					<trkpt lat="48.804360" lon="2.194940">
						<ele>142</ele>
						<time>2024-09-16T15:38:17Z</time>
					</trkpt>
					<trkpt lat="48.804420" lon="2.195010">
						<ele>142</ele>
						<time>2024-09-16T15:38:18Z</time>
					</trkpt>
					<trkpt lat="48.804380" lon="2.195000">
						<ele>142</ele>
						<time>2024-09-16T15:38:19Z</time>
					</trkpt>
					<trkpt lat="48.804420" lon="2.195080">
						<ele>142</ele>
						<time>2024-09-16T15:38:20Z</time>
					</trkpt>
					<trkpt lat="48.804930" lon="2.196250">
						<ele>142</ele>
						<time>2024-09-16T15:38:37Z</time>
					</trkpt>
					<trkpt lat="48.804950" lon="2.196420">
						<ele>142</ele>
						<time>2024-09-16T15:38:39Z</time>
					</trkpt>
					<trkpt lat="48.804940" lon="2.196590">
						<ele>141</ele>
						<time>2024-09-16T15:38:41Z</time>
					</trkpt>
					<trkpt lat="48.804900" lon="2.196750">
						<ele>141</ele>
						<time>2024-09-16T15:38:43Z</time>
					</trkpt>
					<trkpt lat="48.804560" lon="2.197570">
						<ele>143</ele>
						<time>2024-09-16T15:38:54Z</time>
					</trkpt>
					<trkpt lat="48.804220" lon="2.198450">
						<ele>151</ele>
						<time>2024-09-16T15:39:06Z</time>
					</trkpt>
					<trkpt lat="48.803940" lon="2.199130">
						<ele>154</ele>
						<time>2024-09-16T15:39:15Z</time>
					</trkpt>
					<trkpt lat="48.803820" lon="2.199870">
						<ele>156</ele>
						<time>2024-09-16T15:39:24Z</time>
					</trkpt>
					<trkpt lat="48.803720" lon="2.200680">
						<ele>160</ele>
						<time>2024-09-16T15:39:34Z</time>
					</trkpt>
					<trkpt lat="48.803670" lon="2.201020">
						<ele>161</ele>
						<time>2024-09-16T15:39:38Z</time>
					</trkpt>
					<trkpt lat="48.803450" lon="2.202460">
						<ele>170</ele>
						<time>2024-09-16T15:39:55Z</time>
					</trkpt>
					<trkpt lat="48.802800" lon="2.203750">
						<ele>175</ele>
						<time>2024-09-16T15:40:14Z</time>
					</trkpt>
					<trkpt lat="48.802710" lon="2.203890">
						<ele>175</ele>
						<time>2024-09-16T15:40:17Z</time>
					</trkpt>
					<trkpt lat="48.802640" lon="2.203900">
						<ele>175</ele>
						<time>2024-09-16T15:40:18Z</time>
					</trkpt>
					<trkpt lat="48.802610" lon="2.203910">
						<ele>175</ele>
						<time>2024-09-16T15:40:19Z</time>
					</trkpt>
					<trkpt lat="48.802530" lon="2.203840">
						<ele>175</ele>
						<time>2024-09-16T15:40:20Z</time>
					</trkpt>
					<trkpt lat="48.802440" lon="2.203800">
						<ele>176</ele>
						<time>2024-09-16T15:40:22Z</time>
					</trkpt>
					<trkpt lat="48.802330" lon="2.203800">
						<ele>176</ele>
						<time>2024-09-16T15:40:24Z</time>
					</trkpt>
					<trkpt lat="48.802170" lon="2.203890">
						<ele>176</ele>
						<time>2024-09-16T15:40:27Z</time>
					</trkpt>
					<trkpt lat="48.802090" lon="2.203970">
						<ele>177</ele>
						<time>2024-09-16T15:40:29Z</time>
					</trkpt>
					<trkpt lat="48.802050" lon="2.204050">
						<ele>177</ele>
						<time>2024-09-16T15:40:30Z</time>
					</trkpt>
					<trkpt lat="48.802000" lon="2.204210">
						<ele>178</ele>
						<time>2024-09-16T15:40:32Z</time>
					</trkpt>
					<trkpt lat="48.801980" lon="2.204450">
						<ele>178</ele>
						<time>2024-09-16T15:40:35Z</time>
					</trkpt>
					<trkpt lat="48.802010" lon="2.204670">
						<ele>179</ele>
						<time>2024-09-16T15:40:37Z</time>
					</trkpt>
					<trkpt lat="48.802110" lon="2.204860">
						<ele>178</ele>
						<time>2024-09-16T15:40:40Z</time>
					</trkpt>
					<trkpt lat="48.802200" lon="2.204950">
						<ele>178</ele>
						<time>2024-09-16T15:40:42Z</time>
					</trkpt>
					<trkpt lat="48.802170" lon="2.205020">
						<ele>178</ele>
						<time>2024-09-16T15:40:43Z</time>
					</trkpt>
					<trkpt lat="48.800960" lon="2.208400">
						<ele>186</ele>
						<time>2024-09-16T15:41:28Z</time>
					</trkpt>
					<trkpt lat="48.800880" lon="2.208340">
						<ele>186</ele>
						<time>2024-09-16T15:41:30Z</time>
					</trkpt>
					<trkpt lat="48.800810" lon="2.208320">
						<ele>186</ele>
						<time>2024-09-16T15:41:31Z</time>
					</trkpt>
					<trkpt lat="48.800730" lon="2.208330">
						<ele>186</ele>
						<time>2024-09-16T15:41:32Z</time>
					</trkpt>
					<trkpt lat="48.800670" lon="2.208370">
						<ele>185</ele>
						<time>2024-09-16T15:41:34Z</time>
					</trkpt>
					<trkpt lat="48.800600" lon="2.208450">
						<ele>185</ele>
						<time>2024-09-16T15:41:35Z</time>
					</trkpt>
					<trkpt lat="48.800550" lon="2.208560">
						<ele>184</ele>
						<time>2024-09-16T15:41:37Z</time>
					</trkpt>
					<trkpt lat="48.800520" lon="2.208690">
						<ele>184</ele>
						<time>2024-09-16T15:41:38Z</time>
					</trkpt>
					<trkpt lat="48.800520" lon="2.208800">
						<ele>184</ele>
						<time>2024-09-16T15:41:40Z</time>
					</trkpt>
					<trkpt lat="48.800540" lon="2.208900">
						<ele>184</ele>
						<time>2024-09-16T15:41:41Z</time>
					</trkpt>
					<trkpt lat="48.800560" lon="2.208950">
						<ele>184</ele>
						<time>2024-09-16T15:41:41Z</time>
					</trkpt>
					<trkpt lat="48.800620" lon="2.209050">
						<ele>184</ele>
						<time>2024-09-16T15:41:43Z</time>
					</trkpt>
					<trkpt lat="48.800720" lon="2.209140">
						<ele>184</ele>
						<time>2024-09-16T15:41:45Z</time>
					</trkpt>
					<trkpt lat="48.800390" lon="2.212320">
						<ele>186</ele>
						<time>2024-09-16T15:42:23Z</time>
					</trkpt>
					<trkpt lat="48.800270" lon="2.213270">
						<ele>183</ele>
						<time>2024-09-16T15:42:34Z</time>
					</trkpt>
					<trkpt lat="48.800200" lon="2.213940">
						<ele>179</ele>
						<time>2024-09-16T15:42:42Z</time>
					</trkpt>
					<trkpt lat="48.800120" lon="2.214770">
						<ele>175</ele>
						<time>2024-09-16T15:42:52Z</time>
					</trkpt>
					<trkpt lat="48.800040" lon="2.215470">
						<ele>173</ele>
						<time>2024-09-16T15:43:00Z</time>
					</trkpt>
					<trkpt lat="48.799990" lon="2.215520">
						<ele>173</ele>
						<time>2024-09-16T15:43:01Z</time>
					</trkpt>
					<trkpt lat="48.799880" lon="2.215560">
						<ele>173</ele>
						<time>2024-09-16T15:43:03Z</time>
					</trkpt>
					<trkpt lat="48.799750" lon="2.215580">
						<ele>173</ele>
						<time>2024-09-16T15:43:06Z</time>
					</trkpt>
					<trkpt lat="48.798780" lon="2.214680">
						<ele>178</ele>
						<time>2024-09-16T15:43:26Z</time>
					</trkpt>
					<trkpt lat="48.798320" lon="2.215740">
						<ele>173</ele>
						<time>2024-09-16T15:43:41Z</time>
					</trkpt>
					<trkpt lat="48.798270" lon="2.215880">
						<ele>172</ele>
						<time>2024-09-16T15:43:43Z</time>
					</trkpt>
					<trkpt lat="48.798250" lon="2.216010">
						<ele>172</ele>
						<time>2024-09-16T15:43:44Z</time>
					</trkpt>
					<trkpt lat="48.798210" lon="2.216370">
						<ele>170</ele>
						<time>2024-09-16T15:43:48Z</time>
					</trkpt>
					<trkpt lat="48.798180" lon="2.216790">
						<ele>169</ele>
						<time>2024-09-16T15:43:53Z</time>
					</trkpt>
					<trkpt lat="48.798030" lon="2.218560">
						<ele>165</ele>
						<time>2024-09-16T15:44:14Z</time>
					</trkpt>
					<trkpt lat="48.798190" lon="2.218400">
						<ele>166</ele>
						<time>2024-09-16T15:44:18Z</time>
					</trkpt>
					<trkpt lat="48.798850" lon="2.217480">
						<ele>170</ele>
						<time>2024-09-16T15:44:34Z</time>
					</trkpt>
					<trkpt lat="48.799370" lon="2.216740">
						<ele>173</ele>
						<time>2024-09-16T15:44:46Z</time>
					</trkpt>
					<trkpt lat="48.799660" lon="2.216360">
						<ele>172</ele>
						<time>2024-09-16T15:44:53Z</time>
					</trkpt>
					<trkpt lat="48.799920" lon="2.216190">
						<ele>172</ele>
						<time>2024-09-16T15:44:58Z</time>
					</trkpt>
					<trkpt lat="48.800070" lon="2.216150">
						<ele>173</ele>
						<time>2024-09-16T15:45:01Z</time>
					</trkpt>
					<trkpt lat="48.800200" lon="2.216180">
						<ele>173</ele>
						<time>2024-09-16T15:45:03Z</time>
					</trkpt>
					<trkpt lat="48.800410" lon="2.216340">
						<ele>173</ele>
						<time>2024-09-16T15:45:07Z</time>
					</trkpt>
					<trkpt lat="48.802000" lon="2.217850">
						<ele>183</ele>
						<time>2024-09-16T15:45:41Z</time>
					</trkpt>
					<trkpt lat="48.803690" lon="2.219470">
						<ele>180</ele>
						<time>2024-09-16T15:46:16Z</time>
					</trkpt>
					<trkpt lat="48.804470" lon="2.220240">
						<ele>174</ele>
						<time>2024-09-16T15:46:33Z</time>
					</trkpt>
					<trkpt lat="48.806640" lon="2.222350">
						<ele>172</ele>
						<time>2024-09-16T15:47:19Z</time>
					</trkpt>
					<trkpt lat="48.806970" lon="2.222650">
						<ele>171</ele>
						<time>2024-09-16T15:47:26Z</time>
					</trkpt>
					<trkpt lat="48.808220" lon="2.223860">
						<ele>174</ele>
						<time>2024-09-16T15:47:52Z</time>
					</trkpt>
					<trkpt lat="48.809360" lon="2.224940">
						<ele>175</ele>
						<time>2024-09-16T15:48:16Z</time>
					</trkpt>
					<trkpt lat="48.809810" lon="2.225410">
						<ele>174</ele>
						<time>2024-09-16T15:48:26Z</time>
					</trkpt>
					<trkpt lat="48.809850" lon="2.225590">
						<ele>173</ele>
						<time>2024-09-16T15:48:28Z</time>
					</trkpt>
					<trkpt lat="48.809900" lon="2.226150">
						<ele>173</ele>
						<time>2024-09-16T15:48:35Z</time>
					</trkpt>
					<trkpt lat="48.810000" lon="2.227140">
						<ele>169</ele>
						<time>2024-09-16T15:48:46Z</time>
					</trkpt>
					<trkpt lat="48.810060" lon="2.227760">
						<ele>166</ele>
						<time>2024-09-16T15:48:54Z</time>
					</trkpt>
					<trkpt lat="48.810070" lon="2.227870">
						<ele>166</ele>
						<time>2024-09-16T15:48:55Z</time>
					</trkpt>
					<trkpt lat="48.810210" lon="2.229180">
						<ele>162</ele>
						<time>2024-09-16T15:49:10Z</time>
					</trkpt>
					<trkpt lat="48.810300" lon="2.230060">
						<ele>156</ele>
						<time>2024-09-16T15:49:21Z</time>
					</trkpt>
					<trkpt lat="48.810340" lon="2.230230">
						<ele>155</ele>
						<time>2024-09-16T15:49:23Z</time>
					</trkpt>
					<trkpt lat="48.810450" lon="2.230260">
						<ele>154</ele>
						<time>2024-09-16T15:49:25Z</time>
					</trkpt>
					<trkpt lat="48.811850" lon="2.230090">
						<ele>147</ele>
						<time>2024-09-16T15:49:50Z</time>
					</trkpt>
					<trkpt lat="48.811920" lon="2.230180">
						<ele>146</ele>
						<time>2024-09-16T15:49:52Z</time>
					</trkpt>
					<trkpt lat="48.812110" lon="2.230090">
						<ele>145</ele>
						<time>2024-09-16T15:49:55Z</time>
					</trkpt>
					<trkpt lat="48.812430" lon="2.230010">
						<ele>143</ele>
						<time>2024-09-16T15:50:01Z</time>
					</trkpt>
					<trkpt lat="48.812770" lon="2.229900">
						<ele>141</ele>
						<time>2024-09-16T15:50:07Z</time>
					</trkpt>
					<trkpt lat="48.812900" lon="2.229980">
						<ele>139</ele>
						<time>2024-09-16T15:50:10Z</time>
					</trkpt>
					<trkpt lat="48.814130" lon="2.229830">
						<ele>128</ele>
						<time>2024-09-16T15:50:32Z</time>
					</trkpt>
					<trkpt lat="48.814500" lon="2.229840">
						<ele>124</ele>
						<time>2024-09-16T15:50:38Z</time>
					</trkpt>
					<trkpt lat="48.814730" lon="2.230050">
						<ele>120</ele>
						<time>2024-09-16T15:50:43Z</time>
					</trkpt>
					<trkpt lat="48.814890" lon="2.230220">
						<ele>118</ele>
						<time>2024-09-16T15:50:46Z</time>
					</trkpt>
					<trkpt lat="48.814910" lon="2.230440">
						<ele>118</ele>
						<time>2024-09-16T15:50:49Z</time>
					</trkpt>
					<trkpt lat="48.815380" lon="2.230320">
						<ele>115</ele>
						<time>2024-09-16T15:50:57Z</time>
					</trkpt>
					<trkpt lat="48.816030" lon="2.230160">
						<ele>113</ele>
						<time>2024-09-16T15:51:09Z</time>
					</trkpt>
					<trkpt lat="48.816530" lon="2.230040">
						<ele>111</ele>
						<time>2024-09-16T15:51:18Z</time>
					</trkpt>
					<trkpt lat="48.817510" lon="2.229790">
						<ele>104</ele>
						<time>2024-09-16T15:51:36Z</time>
					</trkpt>
					<trkpt lat="48.817570" lon="2.229760">
						<ele>104</ele>
						<time>2024-09-16T15:51:37Z</time>
					</trkpt>
					<trkpt lat="48.817680" lon="2.229990">
						<ele>103</ele>
						<time>2024-09-16T15:51:40Z</time>
					</trkpt>
					<trkpt lat="48.817730" lon="2.230040">
						<ele>102</ele>
						<time>2024-09-16T15:51:41Z</time>
					</trkpt>
					<trkpt lat="48.817750" lon="2.230100">
						<ele>102</ele>
						<time>2024-09-16T15:51:42Z</time>
					</trkpt>
					<trkpt lat="48.817780" lon="2.230140">
						<ele>102</ele>
						<time>2024-09-16T15:51:43Z</time>
					</trkpt>
					<trkpt lat="48.817820" lon="2.230160">
						<ele>102</ele>
						<time>2024-09-16T15:51:44Z</time>
					</trkpt>
					<trkpt lat="48.817870" lon="2.230160">
						<ele>101</ele>
						<time>2024-09-16T15:51:45Z</time>
					</trkpt>
					<trkpt lat="48.817900" lon="2.230130">
						<ele>101</ele>
						<time>2024-09-16T15:51:45Z</time>
					</trkpt>
					<trkpt lat="48.818210" lon="2.230660">
						<ele>97</ele>
						<time>2024-09-16T15:51:53Z</time>
					</trkpt>
					<trkpt lat="48.818250" lon="2.230730">
						<ele>97</ele>
						<time>2024-09-16T15:51:55Z</time>
					</trkpt>
					<trkpt lat="48.818370" lon="2.230940">
						<ele>96</ele>
						<time>2024-09-16T15:51:58Z</time>
					</trkpt>
					<trkpt lat="48.818530" lon="2.231220">
						<ele>95</ele>
						<time>2024-09-16T15:52:02Z</time>
					</trkpt>
					<trkpt lat="48.818550" lon="2.231270">
						<ele>95</ele>
						<time>2024-09-16T15:52:03Z</time>
					</trkpt>
					<trkpt lat="48.818590" lon="2.231340">
						<ele>94</ele>
						<time>2024-09-16T15:52:04Z</time>
					</trkpt>
					<trkpt lat="48.818720" lon="2.231570">
						<ele>94</ele>
						<time>2024-09-16T15:52:07Z</time>
					</trkpt>
					<trkpt lat="48.818830" lon="2.231820">
						<ele>93</ele>
						<time>2024-09-16T15:52:11Z</time>
					</trkpt>
					<trkpt lat="48.818890" lon="2.232040">
						<ele>93</ele>
						<time>2024-09-16T15:52:14Z</time>
					</trkpt>
					<trkpt lat="48.818930" lon="2.232310">
						<ele>92</ele>
						<time>2024-09-16T15:52:17Z</time>
					</trkpt>
					<trkpt lat="48.818940" lon="2.232360">
						<ele>92</ele>
						<time>2024-09-16T15:52:18Z</time>
					</trkpt>
					<trkpt lat="48.818970" lon="2.232650">
						<ele>91</ele>
						<time>2024-09-16T15:52:21Z</time>
					</trkpt>
					<trkpt lat="48.819010" lon="2.233000">
						<ele>88</ele>
						<time>2024-09-16T15:52:25Z</time>
					</trkpt>
					<trkpt lat="48.819030" lon="2.233380">
						<ele>86</ele>
						<time>2024-09-16T15:52:30Z</time>
					</trkpt>
					<trkpt lat="48.819010" lon="2.233800">
						<ele>82</ele>
						<time>2024-09-16T15:52:35Z</time>
					</trkpt>
					<trkpt lat="48.818940" lon="2.234130">
						<ele>80</ele>
						<time>2024-09-16T15:52:39Z</time>
					</trkpt>
					<trkpt lat="48.818850" lon="2.234410">
						<ele>79</ele>
						<time>2024-09-16T15:52:42Z</time>
					</trkpt>
					<trkpt lat="48.818820" lon="2.234550">
						<ele>79</ele>
						<time>2024-09-16T15:52:44Z</time>
					</trkpt>
					<trkpt lat="48.818820" lon="2.234680">
						<ele>78</ele>
						<time>2024-09-16T15:52:46Z</time>
					</trkpt>
					<trkpt lat="48.818890" lon="2.235690">
						<ele>66</ele>
						<time>2024-09-16T15:52:58Z</time>
					</trkpt>
					<trkpt lat="48.818900" lon="2.236460">
						<ele>62</ele>
						<time>2024-09-16T15:53:07Z</time>
					</trkpt>
					<trkpt lat="48.818900" lon="2.236610">
						<ele>62</ele>
						<time>2024-09-16T15:53:08Z</time>
					</trkpt>
					<trkpt lat="48.818890" lon="2.236950">
						<ele>61</ele>
						<time>2024-09-16T15:53:12Z</time>
					</trkpt>
					<trkpt lat="48.818800" lon="2.237870">
						<ele>60</ele>
						<time>2024-09-16T15:53:23Z</time>
					</trkpt>
					<trkpt lat="48.818800" lon="2.238550">
						<ele>58</ele>
						<time>2024-09-16T15:53:31Z</time>
					</trkpt>
					<trkpt lat="48.818780" lon="2.239370">
						<ele>57</ele>
						<time>2024-09-16T15:53:41Z</time>
					</trkpt>
					<trkpt lat="48.818770" lon="2.239800">
						<ele>55</ele>
						<time>2024-09-16T15:53:46Z</time>
					</trkpt>
					<trkpt lat="48.818750" lon="2.240620">
						<ele>53</ele>
						<time>2024-09-16T15:53:55Z</time>
					</trkpt>
					<trkpt lat="48.818790" lon="2.241110">
						<ele>51</ele>
						<time>2024-09-16T15:54:01Z</time>
					</trkpt>
					<trkpt lat="48.818990" lon="2.242550">
						<ele>41</ele>
						<time>2024-09-16T15:54:18Z</time>
					</trkpt>
					<trkpt lat="48.819000" lon="2.242660">
						<ele>41</ele>
						<time>2024-09-16T15:54:20Z</time>
					</trkpt>
					<trkpt lat="48.818990" lon="2.242680">
						<ele>41</ele>
						<time>2024-09-16T15:54:20Z</time>
					</trkpt>
					<trkpt lat="48.819090" lon="2.242700">
						<ele>38</ele>
						<time>2024-09-16T15:54:22Z</time>
					</trkpt>
					<trkpt lat="48.819110" lon="2.242770">
						<ele>38</ele>
						<time>2024-09-16T15:54:23Z</time>
					</trkpt>
					<trkpt lat="48.819440" lon="2.242800">
						<ele>34</ele>
						<time>2024-09-16T15:54:29Z</time>
					</trkpt>
					<trkpt lat="48.819670" lon="2.242850">
						<ele>32</ele>
						<time>2024-09-16T15:54:33Z</time>
					</trkpt>
					<trkpt lat="48.819750" lon="2.242810">
						<ele>32</ele>
						<time>2024-09-16T15:54:34Z</time>
					</trkpt>
					<trkpt lat="48.819780" lon="2.242830">
						<ele>31</ele>
						<time>2024-09-16T15:54:35Z</time>
					</trkpt>
					<trkpt lat="48.819890" lon="2.242910">
						<ele>30</ele>
						<time>2024-09-16T15:54:37Z</time>
					</trkpt>
					<trkpt lat="48.819910" lon="2.242990">
						<ele>30</ele>
						<time>2024-09-16T15:54:38Z</time>
					</trkpt>
					<trkpt lat="48.819980" lon="2.243060">
						<ele>30</ele>
						<time>2024-09-16T15:54:39Z</time>
					</trkpt>
					<trkpt lat="48.820010" lon="2.243180">
						<ele>30</ele>
						<time>2024-09-16T15:54:41Z</time>
					</trkpt>
					<trkpt lat="48.820080" lon="2.243710">
						<ele>31</ele>
						<time>2024-09-16T15:54:47Z</time>
					</trkpt>
					<trkpt lat="48.820170" lon="2.244540">
						<ele>34</ele>
						<time>2024-09-16T15:54:57Z</time>
					</trkpt>
					<trkpt lat="48.820280" lon="2.245230">
						<ele>35</ele>
						<time>2024-09-16T15:55:05Z</time>
					</trkpt>
					<trkpt lat="48.820480" lon="2.246210">
						<ele>32</ele>
						<time>2024-09-16T15:55:18Z</time>
					</trkpt>
					<trkpt lat="48.820590" lon="2.246790">
						<ele>29</ele>
						<time>2024-09-16T15:55:25Z</time>
					</trkpt>
					<trkpt lat="48.820630" lon="2.246950">
						<ele>29</ele>
						<time>2024-09-16T15:55:27Z</time>
					</trkpt>
					<trkpt lat="48.820670" lon="2.247080">
						<ele>29</ele>
						<time>2024-09-16T15:55:28Z</time>
					</trkpt>
					<trkpt lat="48.820820" lon="2.247520">
						<ele>29</ele>
						<time>2024-09-16T15:55:34Z</time>
					</trkpt>
					<trkpt lat="48.820940" lon="2.247970">
						<ele>31</ele>
						<time>2024-09-16T15:55:40Z</time>
					</trkpt>
					<trkpt lat="48.821090" lon="2.248530">
						<ele>32</ele>
						<time>2024-09-16T15:55:47Z</time>
					</trkpt>
					<trkpt lat="48.821320" lon="2.249670">
						<ele>32</ele>
						<time>2024-09-16T15:56:01Z</time>
					</trkpt>
					<trkpt lat="48.821350" lon="2.249930">
						<ele>31</ele>
						<time>2024-09-16T15:56:04Z</time>
					</trkpt>
					<trkpt lat="48.821400" lon="2.250280">
						<ele>32</ele>
						<time>2024-09-16T15:56:08Z</time>
					</trkpt>
					<trkpt lat="48.821450" lon="2.250390">
						<ele>32</ele>
						<time>2024-09-16T15:56:10Z</time>
					</trkpt>
					<trkpt lat="48.821540" lon="2.250490">
						<ele>32</ele>
						<time>2024-09-16T15:56:12Z</time>
					</trkpt>
					<trkpt lat="48.821680" lon="2.250460">
						<ele>32</ele>
						<time>2024-09-16T15:56:14Z</time>
					</trkpt>
					<trkpt lat="48.821810" lon="2.250310">
						<ele>32</ele>
						<time>2024-09-16T15:56:17Z</time>
					</trkpt>
					<trkpt lat="48.821920" lon="2.250330">
						<ele>32</ele>
						<time>2024-09-16T15:56:19Z</time>
					</trkpt>
					<trkpt lat="48.821980" lon="2.250230">
						<ele>32</ele>
						<time>2024-09-16T15:56:21Z</time>
					</trkpt>
					<trkpt lat="48.822190" lon="2.250120">
						<ele>32</ele>
						<time>2024-09-16T15:56:25Z</time>
					</trkpt>
					<trkpt lat="48.822340" lon="2.250070">
						<ele>33</ele>
						<time>2024-09-16T15:56:27Z</time>
					</trkpt>
					<trkpt lat="48.822470" lon="2.250040">
						<ele>33</ele>
						<time>2024-09-16T15:56:30Z</time>
					</trkpt>
					<trkpt lat="48.822520" lon="2.250040">
						<ele>33</ele>
						<time>2024-09-16T15:56:31Z</time>
					</trkpt>
					<trkpt lat="48.822970" lon="2.249810">
						<ele>36</ele>
						<time>2024-09-16T15:56:39Z</time>
					</trkpt>
					<trkpt lat="48.823020" lon="2.249680">
						<ele>37</ele>
						<time>2024-09-16T15:56:41Z</time>
					</trkpt>
					<trkpt lat="48.823140" lon="2.249650">
						<ele>37</ele>
						<time>2024-09-16T15:56:43Z</time>
					</trkpt>
					<trkpt lat="48.823220" lon="2.249640">
						<ele>38</ele>
						<time>2024-09-16T15:56:44Z</time>
					</trkpt>
					<trkpt lat="48.823270" lon="2.249590">
						<ele>38</ele>
						<time>2024-09-16T15:56:45Z</time>
					</trkpt>
					<trkpt lat="48.823380" lon="2.249490">
						<ele>38</ele>
						<time>2024-09-16T15:56:48Z</time>
					</trkpt>
					<trkpt lat="48.823530" lon="2.249350">
						<ele>37</ele>
						<time>2024-09-16T15:56:51Z</time>
					</trkpt>
					<trkpt lat="48.823790" lon="2.249220">
						<ele>36</ele>
						<time>2024-09-16T15:56:56Z</time>
					</trkpt>
					<trkpt lat="48.823860" lon="2.249190">
						<ele>35</ele>
						<time>2024-09-16T15:56:57Z</time>
					</trkpt>
					<trkpt lat="48.823910" lon="2.249170">
						<ele>35</ele>
						<time>2024-09-16T15:56:58Z</time>
					</trkpt>
					<trkpt lat="48.824890" lon="2.248650">
						<ele>31</ele>
						<time>2024-09-16T15:57:16Z</time>
					</trkpt>
					<trkpt lat="48.824950" lon="2.248620">
						<ele>31</ele>
						<time>2024-09-16T15:57:17Z</time>
					</trkpt>
					<trkpt lat="48.824960" lon="2.248620">
						<ele>31</ele>
						<time>2024-09-16T15:57:18Z</time>
					</trkpt>
					<trkpt lat="48.825120" lon="2.248540">
						<ele>32</ele>
						<time>2024-09-16T15:57:21Z</time>
					</trkpt>
					<trkpt lat="48.825150" lon="2.248580">
						<ele>33</ele>
						<time>2024-09-16T15:57:21Z</time>
					</trkpt>
					<trkpt lat="48.825170" lon="2.248760">
						<ele>32</ele>
						<time>2024-09-16T15:57:24Z</time>
					</trkpt>
					<trkpt lat="48.825200" lon="2.248970">
						<ele>32</ele>
						<time>2024-09-16T15:57:26Z</time>
					</trkpt>
					<trkpt lat="48.825330" lon="2.249350">
						<ele>32</ele>
						<time>2024-09-16T15:57:31Z</time>
					</trkpt>
					<trkpt lat="48.825520" lon="2.249810">
						<ele>30</ele>
						<time>2024-09-16T15:57:37Z</time>
					</trkpt>
					<trkpt lat="48.825950" lon="2.250640">
						<ele>27</ele>
						<time>2024-09-16T15:57:50Z</time>
					</trkpt>
					<trkpt lat="48.826190" lon="2.251040">
						<ele>27</ele>
						<time>2024-09-16T15:57:56Z</time>
					</trkpt>
					<trkpt lat="48.826440" lon="2.251400">
						<ele>27</ele>
						<time>2024-09-16T15:58:02Z</time>
					</trkpt>
					<trkpt lat="48.826460" lon="2.251490">
						<ele>26</ele>
						<time>2024-09-16T15:58:03Z</time>
					</trkpt>
					<trkpt lat="48.826790" lon="2.251880">
						<ele>26</ele>
						<time>2024-09-16T15:58:11Z</time>
					</trkpt>
					<trkpt lat="48.827260" lon="2.252380">
						<ele>30</ele>
						<time>2024-09-16T15:58:21Z</time>
					</trkpt>
					<trkpt lat="48.827720" lon="2.253020">
						<ele>33</ele>
						<time>2024-09-16T15:58:32Z</time>
					</trkpt>
					<trkpt lat="48.827850" lon="2.253220">
						<ele>34</ele>
						<time>2024-09-16T15:58:35Z</time>
					</trkpt>
					<trkpt lat="48.828150" lon="2.253660">
						<ele>34</ele>
						<time>2024-09-16T15:58:43Z</time>
					</trkpt>
					<trkpt lat="48.828370" lon="2.253950">
						<ele>33</ele>
						<time>2024-09-16T15:58:48Z</time>
					</trkpt>
					<trkpt lat="48.828920" lon="2.254640">
						<ele>30</ele>
						<time>2024-09-16T15:59:01Z</time>
					</trkpt>
					<trkpt lat="48.829120" lon="2.254920">
						<ele>28</ele>
						<time>2024-09-16T15:59:06Z</time>
					</trkpt>
					<trkpt lat="48.829720" lon="2.255900">
						<ele>30</ele>
						<time>2024-09-16T15:59:21Z</time>
					</trkpt>
					<trkpt lat="48.829890" lon="2.256160">
						<ele>31</ele>
						<time>2024-09-16T15:59:26Z</time>
					</trkpt>
					<trkpt lat="48.829920" lon="2.256350">
						<ele>31</ele>
						<time>2024-09-16T15:59:28Z</time>
					</trkpt>
					<trkpt lat="48.830060" lon="2.256650">
						<ele>30</ele>
						<time>2024-09-16T15:59:32Z</time>
					</trkpt>
					<trkpt lat="48.830310" lon="2.257120">
						<ele>33</ele>
						<time>2024-09-16T15:59:39Z</time>
					</trkpt>
					<trkpt lat="48.830670" lon="2.257750">
						<ele>35</ele>
						<time>2024-09-16T15:59:49Z</time>
					</trkpt>
					<trkpt lat="48.830860" lon="2.258050">
						<ele>35</ele>
						<time>2024-09-16T15:59:54Z</time>
					</trkpt>
					<trkpt lat="48.830920" lon="2.258160">
						<ele>35</ele>
						<time>2024-09-16T15:59:56Z</time>
					</trkpt>
					<trkpt lat="48.831000" lon="2.258270">
						<ele>35</ele>
						<time>2024-09-16T15:59:57Z</time>
					</trkpt>
					<trkpt lat="48.831020" lon="2.258290">
						<ele>35</ele>
						<time>2024-09-16T15:59:58Z</time>
					</trkpt>
					<trkpt lat="48.831080" lon="2.258360">
						<ele>36</ele>
						<time>2024-09-16T15:59:59Z</time>
					</trkpt>
					<trkpt lat="48.831070" lon="2.258410">
						<ele>35</ele>
						<time>2024-09-16T16:00:00Z</time>
					</trkpt>
					<trkpt lat="48.831420" lon="2.258860">
						<ele>34</ele>
						<time>2024-09-16T16:00:08Z</time>
					</trkpt>
					<trkpt lat="48.831790" lon="2.259360">
						<ele>31</ele>
						<time>2024-09-16T16:00:17Z</time>
					</trkpt>
					<trkpt lat="48.832260" lon="2.259910">
						<ele>31</ele>
						<time>2024-09-16T16:00:27Z</time>
					</trkpt>
					<trkpt lat="48.832470" lon="2.260080">
						<ele>31</ele>
						<time>2024-09-16T16:00:32Z</time>
					</trkpt>
					<trkpt lat="48.832750" lon="2.260340">
						<ele>35</ele>
						<time>2024-09-16T16:00:37Z</time>
					</trkpt>
					<trkpt lat="48.833170" lon="2.260720">
						<ele>38</ele>
						<time>2024-09-16T16:00:46Z</time>
					</trkpt>
					<trkpt lat="48.833740" lon="2.261220">
						<ele>32</ele>
						<time>2024-09-16T16:00:58Z</time>
					</trkpt>
					<trkpt lat="48.834030" lon="2.261490">
						<ele>30</ele>
						<time>2024-09-16T16:01:04Z</time>
					</trkpt>
					<trkpt lat="48.834510" lon="2.261930">
						<ele>30</ele>
						<time>2024-09-16T16:01:14Z</time>
					</trkpt>
					<trkpt lat="48.835010" lon="2.262440">
						<ele>29</ele>
						<time>2024-09-16T16:01:25Z</time>
					</trkpt>
					<trkpt lat="48.836490" lon="2.263990">
						<ele>33</ele>
						<time>2024-09-16T16:01:57Z</time>
					</trkpt>
					<trkpt lat="48.836510" lon="2.264020">
						<ele>32</ele>
						<time>2024-09-16T16:01:57Z</time>
					</trkpt>
					<trkpt lat="48.837350" lon="2.264870">
						<ele>28</ele>
						<time>2024-09-16T16:02:15Z</time>
					</trkpt>
					<trkpt lat="48.838040" lon="2.265600">
						<ele>29</ele>
						<time>2024-09-16T16:02:30Z</time>
					</trkpt>
					<trkpt lat="48.838280" lon="2.265880">
						<ele>29</ele>
						<time>2024-09-16T16:02:35Z</time>
					</trkpt>
					<trkpt lat="48.838430" lon="2.266190">
						<ele>30</ele>
						<time>2024-09-16T16:02:40Z</time>
					</trkpt>
					<trkpt lat="48.838560" lon="2.266390">
						<ele>32</ele>
						<time>2024-09-16T16:02:43Z</time>
					</trkpt>
					<trkpt lat="48.838790" lon="2.266620">
						<ele>36</ele>
						<time>2024-09-16T16:02:48Z</time>
					</trkpt>
					<trkpt lat="48.840330" lon="2.268110">
						<ele>37</ele>
						<time>2024-09-16T16:03:21Z</time>
					</trkpt>
					<trkpt lat="48.840820" lon="2.268640">
						<ele>34</ele>
						<time>2024-09-16T16:03:31Z</time>
					</trkpt>
					<trkpt lat="48.841180" lon="2.268990">
						<ele>33</ele>
						<time>2024-09-16T16:03:39Z</time>
					</trkpt>
					<trkpt lat="48.841410" lon="2.269180">
						<ele>33</ele>
						<time>2024-09-16T16:03:43Z</time>
					</trkpt>
					<trkpt lat="48.841650" lon="2.269370">
						<ele>33</ele>
						<time>2024-09-16T16:03:48Z</time>
					</trkpt>
					<trkpt lat="48.842480" lon="2.270170">
						<ele>38</ele>
						<time>2024-09-16T16:04:06Z</time>
					</trkpt>
					<trkpt lat="48.844060" lon="2.271690">
						<ele>44</ele>
						<time>2024-09-16T16:04:39Z</time>
					</trkpt>
					<trkpt lat="48.844380" lon="2.272080">
						<ele>43</ele>
						<time>2024-09-16T16:04:46Z</time>
					</trkpt>
					<trkpt lat="48.844990" lon="2.272680">
						<ele>42</ele>
						<time>2024-09-16T16:04:59Z</time>
					</trkpt>
					<trkpt lat="48.845170" lon="2.272820">
						<ele>40</ele>
						<time>2024-09-16T16:05:03Z</time>
					</trkpt>
					<trkpt lat="48.845640" lon="2.273230">
						<ele>34</ele>
						<time>2024-09-16T16:05:13Z</time>
					</trkpt>
					<trkpt lat="48.846090" lon="2.273650">
						<ele>34</ele>
						<time>2024-09-16T16:05:22Z</time>
					</trkpt>
					<trkpt lat="48.846860" lon="2.274480">
						<ele>38</ele>
						<time>2024-09-16T16:05:39Z</time>
					</trkpt>
					<trkpt lat="48.847160" lon="2.274780">
						<ele>39</ele>
						<time>2024-09-16T16:05:45Z</time>
					</trkpt>
					<trkpt lat="48.847820" lon="2.275340">
						<ele>43</ele>
						<time>2024-09-16T16:05:59Z</time>
					</trkpt>
					<trkpt lat="48.848930" lon="2.276410">
						<ele>46</ele>
						<time>2024-09-16T16:06:22Z</time>
					</trkpt>
					<trkpt lat="48.849910" lon="2.277640">
						<ele>37</ele>
						<time>2024-09-16T16:06:45Z</time>
					</trkpt>
					<trkpt lat="48.850140" lon="2.277960">
						<ele>36</ele>
						<time>2024-09-16T16:06:50Z</time>
					</trkpt>
					<trkpt lat="48.850760" lon="2.278900">
						<ele>34</ele>
						<time>2024-09-16T16:07:06Z</time>
					</trkpt>
					<trkpt lat="48.852470" lon="2.281170">
						<ele>32</ele>
						<time>2024-09-16T16:07:46Z</time>
					</trkpt>
					<trkpt lat="48.852730" lon="2.281540">
						<ele>34</ele>
						<time>2024-09-16T16:07:52Z</time>
					</trkpt>
					<trkpt lat="48.853100" lon="2.282110">
						<ele>34</ele>
						<time>2024-09-16T16:08:02Z</time>
					</trkpt>
					<trkpt lat="48.856800" lon="2.287160">
						<ele>38</ele>
						<time>2024-09-16T16:09:30Z</time>
					</trkpt>
					<trkpt lat="48.857180" lon="2.287550">
						<ele>40</ele>
						<time>2024-09-16T16:09:38Z</time>
					</trkpt>
					<trkpt lat="48.857700" lon="2.288070">
						<ele>38</ele>
						<time>2024-09-16T16:09:50Z</time>
					</trkpt>
					<trkpt lat="48.857710" lon="2.288100">
						<ele>38</ele>
						<time>2024-09-16T16:09:50Z</time>
					</trkpt>
					<trkpt lat="48.859880" lon="2.290750">
						<ele>33</ele>
						<time>2024-09-16T16:10:39Z</time>
					</trkpt>
					<trkpt lat="48.859940" lon="2.290800">
						<ele>33</ele>
						<time>2024-09-16T16:10:41Z</time>
					</trkpt>
					<trkpt lat="48.859990" lon="2.290770">
						<ele>33</ele>
						<time>2024-09-16T16:10:42Z</time>
					</trkpt>
					<trkpt lat="48.860280" lon="2.291130">
						<ele>31</ele>
						<time>2024-09-16T16:10:48Z</time>
					</trkpt>
					<trkpt lat="48.860360" lon="2.291230">
						<ele>31</ele>
						<time>2024-09-16T16:10:50Z</time>
					</trkpt>
					<trkpt lat="48.860320" lon="2.291290">
						<ele>31</ele>
						<time>2024-09-16T16:10:51Z</time>
					</trkpt>
					<trkpt lat="48.860300" lon="2.291320">
						<ele>31</ele>
						<time>2024-09-16T16:10:52Z</time>
					</trkpt>
					<trkpt lat="48.859320" lon="2.292830">
						<ele>33</ele>
						<time>2024-09-16T16:11:16Z</time>
					</trkpt>
					<trkpt lat="48.859130" lon="2.292970">
						<ele>36</ele>
						<time>2024-09-16T16:11:20Z</time>
					</trkpt>
					<trkpt lat="48.859070" lon="2.293050">
						<ele>37</ele>
						<time>2024-09-16T16:11:22Z</time>
					</trkpt>
					<trkpt lat="48.858980" lon="2.293160">
						<ele>38</ele>
						<time>2024-09-16T16:11:24Z</time>
					</trkpt>
					<trkpt lat="48.858900" lon="2.293280">
						<ele>39</ele>
						<time>2024-09-16T16:11:26Z</time>
					</trkpt>
					<trkpt lat="48.859040" lon="2.293490">
						<ele>40</ele>
						<time>2024-09-16T16:11:29Z</time>
					</trkpt>
					<trkpt lat="48.859120" lon="2.293600">
						<ele>41</ele>
						<time>2024-09-16T16:11:31Z</time>
					</trkpt>
					<trkpt lat="48.860120" lon="2.295020">
						<ele>38</ele>
						<time>2024-09-16T16:11:55Z</time>
					</trkpt>
					<trkpt lat="48.860540" lon="2.295610">
						<ele>36</ele>
						<time>2024-09-16T16:12:06Z</time>
					</trkpt>
					<trkpt lat="48.860600" lon="2.295770">
						<ele>36</ele>
						<time>2024-09-16T16:12:08Z</time>
					</trkpt>
					<trkpt lat="48.860920" lon="2.296290">
						<ele>34</ele>
						<time>2024-09-16T16:12:16Z</time>
					</trkpt>
					<trkpt lat="48.861280" lon="2.296970">
						<ele>33</ele>
						<time>2024-09-16T16:12:26Z</time>
					</trkpt>
					<trkpt lat="48.861560" lon="2.297730">
						<ele>32</ele>
						<time>2024-09-16T16:12:37Z</time>
					</trkpt>
					<trkpt lat="48.861750" lon="2.298300">
						<ele>30</ele>
						<time>2024-09-16T16:12:44Z</time>
					</trkpt>
					<trkpt lat="48.861880" lon="2.298800">
						<ele>30</ele>
						<time>2024-09-16T16:12:50Z</time>
					</trkpt>
					<trkpt lat="48.861930" lon="2.299020">
						<ele>30</ele>
						<time>2024-09-16T16:12:53Z</time>
					</trkpt>
					<trkpt lat="48.862020" lon="2.299430">
						<ele>32</ele>
						<time>2024-09-16T16:12:58Z</time>
					</trkpt>
					<trkpt lat="48.862100" lon="2.300000">
						<ele>36</ele>
						<time>2024-09-16T16:13:05Z</time>
					</trkpt>
					<trkpt lat="48.862180" lon="2.300750">
						<ele>39</ele>
						<time>2024-09-16T16:13:14Z</time>
					</trkpt>
					<trkpt lat="48.862210" lon="2.301180">
						<ele>38</ele>
						<time>2024-09-16T16:13:19Z</time>
					</trkpt>
					<trkpt lat="48.862250" lon="2.301210">
						<ele>38</ele>
						<time>2024-09-16T16:13:20Z</time>
					</trkpt>
					<trkpt lat="48.862250" lon="2.301270">
						<ele>37</ele>
						<time>2024-09-16T16:13:20Z</time>
					</trkpt>
					<trkpt lat="48.862260" lon="2.301380">
						<ele>37</ele>
						<time>2024-09-16T16:13:22Z</time>
					</trkpt>
					<trkpt lat="48.862260" lon="2.301560">
						<ele>36</ele>
						<time>2024-09-16T16:13:24Z</time>
					</trkpt>
					<trkpt lat="48.862260" lon="2.301830">
						<ele>37</ele>
						<time>2024-09-16T16:13:27Z</time>
					</trkpt>
					<trkpt lat="48.862300" lon="2.301950">
						<ele>37</ele>
						<time>2024-09-16T16:13:29Z</time>
					</trkpt>
					<trkpt lat="48.862340" lon="2.302110">
						<ele>38</ele>
						<time>2024-09-16T16:13:31Z</time>
					</trkpt>
					<trkpt lat="48.862440" lon="2.302100">
						<ele>37</ele>
						<time>2024-09-16T16:13:32Z</time>
					</trkpt>
					<trkpt lat="48.862520" lon="2.302090">
						<ele>36</ele>
						<time>2024-09-16T16:13:34Z</time>
					</trkpt>
					<trkpt lat="48.862510" lon="2.302140">
						<ele>37</ele>
						<time>2024-09-16T16:13:34Z</time>
					</trkpt>
					<trkpt lat="48.862480" lon="2.303010">
						<ele>42</ele>
						<time>2024-09-16T16:13:45Z</time>
					</trkpt>
					<trkpt lat="48.862480" lon="2.303170">
						<ele>42</ele>
						<time>2024-09-16T16:13:46Z</time>
					</trkpt>
					<trkpt lat="48.862520" lon="2.305220">
						<ele>37</ele>
						<time>2024-09-16T16:14:10Z</time>
					</trkpt>
					<trkpt lat="48.862530" lon="2.305550">
						<ele>36</ele>
						<time>2024-09-16T16:14:14Z</time>
					</trkpt>
					<trkpt lat="48.862600" lon="2.309220">
						<ele>44</ele>
						<time>2024-09-16T16:14:57Z</time>
					</trkpt>
					<trkpt lat="48.862610" lon="2.309830">
						<ele>42</ele>
						<time>2024-09-16T16:15:04Z</time>
					</trkpt>
					<trkpt lat="48.862640" lon="2.310170">
						<ele>40</ele>
						<time>2024-09-16T16:15:08Z</time>
					</trkpt>
					<trkpt lat="48.862660" lon="2.310250">
						<ele>39</ele>
						<time>2024-09-16T16:15:09Z</time>
					</trkpt>
					<trkpt lat="48.862680" lon="2.310420">
						<ele>38</ele>
						<time>2024-09-16T16:15:11Z</time>
					</trkpt>
					<trkpt lat="48.862680" lon="2.310610">
						<ele>38</ele>
						<time>2024-09-16T16:15:14Z</time>
					</trkpt>
					<trkpt lat="48.862680" lon="2.310660">
						<ele>37</ele>
						<time>2024-09-16T16:15:14Z</time>
					</trkpt>
					<trkpt lat="48.862850" lon="2.311510">
						<ele>32</ele>
						<time>2024-09-16T16:15:25Z</time>
					</trkpt>
					<trkpt lat="48.862880" lon="2.311910">
						<ele>32</ele>
						<time>2024-09-16T16:15:29Z</time>
					</trkpt>
					<trkpt lat="48.862900" lon="2.313180">
						<ele>32</ele>
						<time>2024-09-16T16:15:44Z</time>
					</trkpt>
					<trkpt lat="48.862910" lon="2.313450">
						<ele>33</ele>
						<time>2024-09-16T16:15:47Z</time>
					</trkpt>
					<trkpt lat="48.862910" lon="2.313680">
						<ele>33</ele>
						<time>2024-09-16T16:15:50Z</time>
					</trkpt>
					<trkpt lat="48.862940" lon="2.314890">
						<ele>34</ele>
						<time>2024-09-16T16:16:04Z</time>
					</trkpt>
					<trkpt lat="48.862940" lon="2.315250">
						<ele>33</ele>
						<time>2024-09-16T16:16:08Z</time>
					</trkpt>
					<trkpt lat="48.862990" lon="2.317930">
						<ele>43</ele>
						<time>2024-09-16T16:16:40Z</time>
					</trkpt>
					<trkpt lat="48.862960" lon="2.318180">
						<ele>40</ele>
						<time>2024-09-16T16:16:43Z</time>
					</trkpt>
					<trkpt lat="48.862750" lon="2.318850">
						<ele>33</ele>
						<time>2024-09-16T16:16:52Z</time>
					</trkpt>
					<trkpt lat="48.862740" lon="2.318900">
						<ele>33</ele>
						<time>2024-09-16T16:16:52Z</time>
					</trkpt>
					<trkpt lat="48.862740" lon="2.318970">
						<ele>32</ele>
						<time>2024-09-16T16:16:53Z</time>
					</trkpt>
					<trkpt lat="48.862690" lon="2.319090">
						<ele>32</ele>
						<time>2024-09-16T16:16:55Z</time>
					</trkpt>
					<trkpt lat="48.862660" lon="2.319220">
						<ele>32</ele>
						<time>2024-09-16T16:16:56Z</time>
					</trkpt>
					<trkpt lat="48.862600" lon="2.319350">
						<ele>32</ele>
						<time>2024-09-16T16:16:58Z</time>
					</trkpt>
					<trkpt lat="48.862550" lon="2.319540">
						<ele>32</ele>
						<time>2024-09-16T16:17:00Z</time>
					</trkpt>
					<trkpt lat="48.862540" lon="2.319560">
						<ele>32</ele>
						<time>2024-09-16T16:17:01Z</time>
					</trkpt>
					<trkpt lat="48.862520" lon="2.319640">
						<ele>32</ele>
						<time>2024-09-16T16:17:02Z</time>
					</trkpt>
					<trkpt lat="48.862450" lon="2.319870">
						<ele>32</ele>
						<time>2024-09-16T16:17:05Z</time>
					</trkpt>
					<trkpt lat="48.862380" lon="2.320070">
						<ele>33</ele>
						<time>2024-09-16T16:17:07Z</time>
					</trkpt>
					<trkpt lat="48.861420" lon="2.323250">
						<ele>34</ele>
						<time>2024-09-16T16:17:48Z</time>
					</trkpt>
					<trkpt lat="48.861210" lon="2.324000">
						<ele>34</ele>
						<time>2024-09-16T16:17:58Z</time>
					</trkpt>
					<trkpt lat="48.861160" lon="2.324220">
						<ele>34</ele>
						<time>2024-09-16T16:18:01Z</time>
					</trkpt>
					<trkpt lat="48.861120" lon="2.324360">
						<ele>34</ele>
						<time>2024-09-16T16:18:02Z</time>
					</trkpt>
					<trkpt lat="48.860830" lon="2.325330">
						<ele>33</ele>
						<time>2024-09-16T16:18:15Z</time>
					</trkpt>
					<trkpt lat="48.860780" lon="2.325520">
						<ele>33</ele>
						<time>2024-09-16T16:18:17Z</time>
					</trkpt>
					<trkpt lat="48.860720" lon="2.325720">
						<ele>34</ele>
						<time>2024-09-16T16:18:20Z</time>
					</trkpt>
					<trkpt lat="48.860680" lon="2.325850">
						<ele>34</ele>
						<time>2024-09-16T16:18:22Z</time>
					</trkpt>
					<trkpt lat="48.860650" lon="2.326060">
						<ele>34</ele>
						<time>2024-09-16T16:18:24Z</time>
					</trkpt>
					<trkpt lat="48.860270" lon="2.327290">
						<ele>38</ele>
						<time>2024-09-16T16:18:40Z</time>
					</trkpt>
					<trkpt lat="48.860040" lon="2.327860">
						<ele>38</ele>
						<time>2024-09-16T16:18:48Z</time>
					</trkpt>
					<trkpt lat="48.860020" lon="2.327930">
						<ele>38</ele>
						<time>2024-09-16T16:18:49Z</time>
					</trkpt>
					<trkpt lat="48.859950" lon="2.328140">
						<ele>38</ele>
						<time>2024-09-16T16:18:51Z</time>
					</trkpt>
					<trkpt lat="48.859680" lon="2.329010">
						<ele>41</ele>
						<time>2024-09-16T16:19:03Z</time>
					</trkpt>
					<trkpt lat="48.859580" lon="2.329360">
						<ele>41</ele>
						<time>2024-09-16T16:19:07Z</time>
					</trkpt>
					<trkpt lat="48.859540" lon="2.329490">
						<ele>41</ele>
						<time>2024-09-16T16:19:09Z</time>
					</trkpt>
					<trkpt lat="48.859490" lon="2.329640">
						<ele>41</ele>
						<time>2024-09-16T16:19:11Z</time>
					</trkpt>
					<trkpt lat="48.859470" lon="2.329760">
						<ele>41</ele>
						<time>2024-09-16T16:19:12Z</time>
					</trkpt>
					<trkpt lat="48.859320" lon="2.330240">
						<ele>39</ele>
						<time>2024-09-16T16:19:18Z</time>
					</trkpt>
					<trkpt lat="48.859280" lon="2.330340">
						<ele>39</ele>
						<time>2024-09-16T16:19:20Z</time>
					</trkpt>
					<trkpt lat="48.858930" lon="2.331350">
						<ele>38</ele>
						<time>2024-09-16T16:19:33Z</time>
					</trkpt>
					<trkpt lat="48.858640" lon="2.332280">
						<ele>39</ele>
						<time>2024-09-16T16:19:45Z</time>
					</trkpt>
					<trkpt lat="48.858600" lon="2.332410">
						<ele>40</ele>
						<time>2024-09-16T16:19:47Z</time>
					</trkpt>
					<trkpt lat="48.858590" lon="2.332480">
						<ele>40</ele>
						<time>2024-09-16T16:19:48Z</time>
					</trkpt>
					<trkpt lat="48.858530" lon="2.332720">
						<ele>41</ele>
						<time>2024-09-16T16:19:51Z</time>
					</trkpt>
					<trkpt lat="48.858650" lon="2.332650">
						<ele>40</ele>
						<time>2024-09-16T16:19:53Z</time>
					</trkpt>
					<trkpt lat="48.858700" lon="2.332630">
						<ele>39</ele>
						<time>2024-09-16T16:19:54Z</time>
					</trkpt>
					<trkpt lat="48.858820" lon="2.332610">
						<ele>38</ele>
						<time>2024-09-16T16:19:56Z</time>
					</trkpt>
					<trkpt lat="48.859280" lon="2.332870">
						<ele>39</ele>
						<time>2024-09-16T16:20:05Z</time>
					</trkpt>
					<trkpt lat="48.859950" lon="2.333260">
						<ele>47</ele>
						<time>2024-09-16T16:20:18Z</time>
					</trkpt>
					<trkpt lat="48.859960" lon="2.333270">
						<ele>47</ele>
						<time>2024-09-16T16:20:18Z</time>
					</trkpt>
					<trkpt lat="48.860100" lon="2.333390">
						<ele>46</ele>
						<time>2024-09-16T16:20:21Z</time>
					</trkpt>
					<trkpt lat="48.860180" lon="2.333530">
						<ele>45</ele>
						<time>2024-09-16T16:20:23Z</time>
					</trkpt>
					<trkpt lat="48.860210" lon="2.333540">
						<ele>45</ele>
						<time>2024-09-16T16:20:23Z</time>
					</trkpt>
					<trkpt lat="48.860340" lon="2.333610">
						<ele>43</ele>
						<time>2024-09-16T16:20:26Z</time>
					</trkpt>
					<trkpt lat="48.860980" lon="2.333980">
						<ele>38</ele>
						<time>2024-09-16T16:20:38Z</time>
					</trkpt>
					<trkpt lat="48.861140" lon="2.334080">
						<ele>38</ele>
						<time>2024-09-16T16:20:41Z</time>
					</trkpt>
					<trkpt lat="48.861150" lon="2.334240">
						<ele>39</ele>
						<time>2024-09-16T16:20:43Z</time>
					</trkpt>
					<trkpt lat="48.861200" lon="2.334380">
						<ele>39</ele>
						<time>2024-09-16T16:20:45Z</time>
					</trkpt>
					<trkpt lat="48.861270" lon="2.334490">
						<ele>40</ele>
						<time>2024-09-16T16:20:47Z</time>
					</trkpt>
					<trkpt lat="48.861370" lon="2.334550">
						<ele>40</ele>
						<time>2024-09-16T16:20:49Z</time>
					</trkpt>
					<trkpt lat="48.861420" lon="2.334570">
						<ele>40</ele>
						<time>2024-09-16T16:20:50Z</time>
					</trkpt>
					<trkpt lat="48.861530" lon="2.334550">
						<ele>40</ele>
						<time>2024-09-16T16:20:51Z</time>
					</trkpt>
					<trkpt lat="48.861620" lon="2.334480">
						<ele>39</ele>
						<time>2024-09-16T16:20:53Z</time>
					</trkpt>
					<trkpt lat="48.861690" lon="2.334360">
						<ele>39</ele>
						<time>2024-09-16T16:20:55Z</time>
					</trkpt>
					<trkpt lat="48.861830" lon="2.334520">
						<ele>40</ele>
						<time>2024-09-16T16:20:58Z</time>
					</trkpt>
					<trkpt lat="48.862310" lon="2.335090">
						<ele>44</ele>
						<time>2024-09-16T16:21:09Z</time>
					</trkpt>
					<trkpt lat="48.862340" lon="2.335120">
						<ele>44</ele>
						<time>2024-09-16T16:21:10Z</time>
					</trkpt>
					<trkpt lat="48.862400" lon="2.335200">
						<ele>45</ele>
						<time>2024-09-16T16:21:11Z</time>
					</trkpt>
					<trkpt lat="48.862570" lon="2.335310">
						<ele>46</ele>
						<time>2024-09-16T16:21:14Z</time>
					</trkpt>
					<trkpt lat="48.862580" lon="2.335310">
						<ele>46</ele>
						<time>2024-09-16T16:21:15Z</time>
					</trkpt>
					<trkpt lat="48.862580" lon="2.335310">
						<ele>46</ele>
						<time>2024-09-16T16:21:15Z</time>
					</trkpt>
					<trkpt lat="48.862600" lon="2.335320">
						<ele>46</ele>
						<time>2024-09-16T16:21:15Z</time>
					</trkpt>
					<trkpt lat="48.862640" lon="2.335330">
						<ele>46</ele>
						<time>2024-09-16T16:21:16Z</time>
					</trkpt>
					<trkpt lat="48.862610" lon="2.335430">
						<ele>46</ele>
						<time>2024-09-16T16:21:17Z</time>
					</trkpt>
					<trkpt lat="48.862380" lon="2.336190">
						<ele>48</ele>
						<time>2024-09-16T16:21:27Z</time>
					</trkpt>
					<trkpt lat="48.862260" lon="2.336570">
						<ele>48</ele>
						<time>2024-09-16T16:21:32Z</time>
					</trkpt>
					<trkpt lat="48.862130" lon="2.336960">
						<ele>48</ele>
						<time>2024-09-16T16:21:37Z</time>
					</trkpt>
					<trkpt lat="48.862160" lon="2.336980">
						<ele>48</ele>
						<time>2024-09-16T16:21:37Z</time>
					</trkpt>
					<trkpt lat="48.862210" lon="2.337010">
						<ele>48</ele>
						<time>2024-09-16T16:21:38Z</time>
					</trkpt>
					<trkpt lat="48.862260" lon="2.337040">
						<ele>47</ele>
						<time>2024-09-16T16:21:39Z</time>
					</trkpt>
					<trkpt lat="48.862640" lon="2.337270">
						<ele>46</ele>
						<time>2024-09-16T16:21:47Z</time>
					</trkpt>
					<trkpt lat="48.862710" lon="2.337310">
						<ele>45</ele>
						<time>2024-09-16T16:21:48Z</time>
					</trkpt>
					<trkpt lat="48.862690" lon="2.337400">
						<ele>45</ele>
						<time>2024-09-16T16:21:49Z</time>
					</trkpt>
					<trkpt lat="48.862670" lon="2.337470">
						<ele>45</ele>
						<time>2024-09-16T16:21:50Z</time>
					</trkpt>
					<trkpt lat="48.862650" lon="2.337530">
						<ele>45</ele>
						<time>2024-09-16T16:21:51Z</time>
					</trkpt>
					<trkpt lat="48.862560" lon="2.337850">
						<ele>45</ele>
						<time>2024-09-16T16:21:55Z</time>
					</trkpt>
					<trkpt lat="48.862490" lon="2.338080">
						<ele>45</ele>
						<time>2024-09-16T16:21:58Z</time>
					</trkpt>
					<trkpt lat="48.862470" lon="2.338190">
						<ele>45</ele>
						<time>2024-09-16T16:21:59Z</time>
					</trkpt>
					<trkpt lat="48.862270" lon="2.338970">
						<ele>47</ele>
						<time>2024-09-16T16:22:09Z</time>
					</trkpt>
					<trkpt lat="48.862220" lon="2.339160">
						<ele>47</ele>
						<time>2024-09-16T16:22:11Z</time>
					</trkpt>
					<trkpt lat="48.862180" lon="2.339270">
						<ele>47</ele>
						<time>2024-09-16T16:22:13Z</time>
					</trkpt>
					<trkpt lat="48.862120" lon="2.339450">
						<ele>48</ele>
						<time>2024-09-16T16:22:15Z</time>
					</trkpt>
					<trkpt lat="48.862070" lon="2.339670">
						<ele>48</ele>
						<time>2024-09-16T16:22:18Z</time>
					</trkpt>
					<trkpt lat="48.862110" lon="2.339760">
						<ele>49</ele>
						<time>2024-09-16T16:22:19Z</time>
					</trkpt>
					<trkpt lat="48.862390" lon="2.340300">
						<ele>50</ele>
						<time>2024-09-16T16:22:27Z</time>
					</trkpt>
					<trkpt lat="48.862620" lon="2.340750">
						<ele>51</ele>
						<time>2024-09-16T16:22:34Z</time>
					</trkpt>
					<trkpt lat="48.862920" lon="2.341340">
						<ele>50</ele>
						<time>2024-09-16T16:22:43Z</time>
					</trkpt>
					<trkpt lat="48.863040" lon="2.341560">
						<ele>49</ele>
						<time>2024-09-16T16:22:46Z</time>
					</trkpt>
					<trkpt lat="48.863100" lon="2.341660">
						<ele>49</ele>
						<time>2024-09-16T16:22:48Z</time>
					</trkpt>
					<trkpt lat="48.863080" lon="2.341750">
						<ele>49</ele>
						<time>2024-09-16T16:22:49Z</time>
					</trkpt>
					<trkpt lat="48.863040" lon="2.341910">
						<ele>49</ele>
						<time>2024-09-16T16:22:51Z</time>
					</trkpt>
					<trkpt lat="48.863100" lon="2.341940">
						<ele>49</ele>
						<time>2024-09-16T16:22:52Z</time>
					</trkpt>
					<trkpt lat="48.863150" lon="2.341960">
						<ele>49</ele>
						<time>2024-09-16T16:22:53Z</time>
					</trkpt>
					<trkpt lat="48.863760" lon="2.342290">
						<ele>49</ele>
						<time>2024-09-16T16:23:04Z</time>
					</trkpt>
					<trkpt lat="48.863890" lon="2.342350">
						<ele>49</ele>
						<time>2024-09-16T16:23:07Z</time>
					</trkpt>
					<trkpt lat="48.863830" lon="2.342440">
						<ele>49</ele>
						<time>2024-09-16T16:23:08Z</time>
					</trkpt>
					<trkpt lat="48.863690" lon="2.342650">
						<ele>49</ele>
						<time>2024-09-16T16:23:12Z</time>
					</trkpt>
					<trkpt lat="48.863640" lon="2.342720">
						<ele>49</ele>
						<time>2024-09-16T16:23:13Z</time>
					</trkpt>
					<trkpt lat="48.863550" lon="2.343020">
						<ele>48</ele>
						<time>2024-09-16T16:23:17Z</time>
					</trkpt>
					<trkpt lat="48.863560" lon="2.343030">
						<ele>48</ele>
						<time>2024-09-16T16:23:17Z</time>
					</trkpt>
					<trkpt lat="48.863420" lon="2.343550">
						<ele>46</ele>
						<time>2024-09-16T16:23:23Z</time>
					</trkpt>
					</trkseg>
				</trk>
			</gpx>